[[{"header":{"parameterUnit":"m.s-1","parameterCategory":1,"la1":30.6,"la2":29.2853,"lo1":-89.7004,"lo2":-87.6739,"dy":0.0162,"dx":0.0183,"nx":112,"ny":82,"refTime":"2023-07-31T12:00:00:Z","depth":0,"parameterNumber":2,"parameterNumberName":"U-component_of_WINDS"},"data":[0.0,0.0,0.0,0.0,0.0,0.0,0.0,0.0,0.0,0.0,0.0,0.0,0.0,0.0,0.0,0.0,0.0,0.0,0.0,0.0,0.0,0.0,0.0,0.0,0.0,0.0,0.0,0.0,0.0,0.0,0.0,0.0,0.0,0.0,0.0,0.0,0.0,0.0,0.0,0.0,0.0,0.0,0.0,0.0,0.0,0.0,0.0,0.0,0.0,0.0,0.0,0.0,0.0,0.0,0.0,0.0,0.0,0.0,0.0,0.0,0.0,0.0,0.0,0.0,0.0,0.0,0.0,0.0,0.0,0.0,0.0,0.0,0.0,0.0,0.0,0.0,0.0,0.0,0.0,0.0,0.0,0.0,0.0,0.0,0.0,0.0,0.0,0.0,0.0,0.0,0.0,2.859,3.074,3.2459,3.3321,3.2592,3.1789,3.1055,0.0,0.0,0.0,0.0,0.0,0.0,0.0,0.0,0.0,0.0,0.0,0.0,0.0,0.0,0.0,0.0,0.0,0.0,0.0,0.0,0.0,0.0,0.0,0.0,0.0,0.0,0.0,0.0,0.0,0.0,0.0,0.0,0.0,0.0,0.0,0.0,0.0,0.0,0.0,0.0,0.0,0.0,0.0,0.0,0.0,0.0,0.0,0.0,0.0,0.0,0.0,0.0,0.0,0.0,0.0,0.0,0.0,0.0,0.0,0.0,0.0,0.0,0.0,0.0,0.0,0.0,0.0,0.0,0.0,0.0,0.0,0.0,0.0,0.0,0.0,0.0,0.0,0.0,0.0,0.0,0.0,0.0,0.0,0.0,0.0,0.0,0.0,0.0,0.0,0.0,0.0,0.0,0.0,0.0,0.0,0.0,0.0,0.0,0.0,0.0,0.0,0.0,0.0,0.0,2.876,3.1237,3.1858,3.2441,3.3334,3.2606,3.203,3.1917,0.0,0.0,0.0,0.0,0.0,0.0,0.0,0.0,0.0,0.0,0.0,0.0,0.0,0.0,0.0,0.0,0.0,0.0,0.0,0.0,0.0,0.0,0.0,0.0,0.0,0.0,0.0,0.0,0.0,0.0,0.0,0.0,0.0,0.0,0.0,0.0,0.0,0.0,0.0,0.0,0.0,0.0,0.0,0.0,0.0,0.0,0.0,0.0,0.0,0.0,0.0,0.0,0.0,0.0,0.0,0.0,0.0,0.0,0.0,0.0,0.0,0.0,0.0,0.0,0.0,0.0,0.0,0.0,0.0,0.0,0.0,0.0,0.0,0.0,0.0,0.0,0.0,0.0,0.0,0.0,0.0,0.0,0.0,0.0,0.0,0.0,0.0,0.0,0.0,0.0,0.0,0.0,0.0,0.0,0.0,0.0,0.0,0.0,0.0,0.0,0.0,0.0,0.0,2.8501,3.0268,3.2513,3.3202,3.3867,3.4736,3.4003,3.3314,3.2826,3.1606,0.0,0.0,0.0,0.0,0.0,0.0,0.0,0.0,0.0,0.0,0.0,0.0,0.0,0.0,0.0,0.0,0.0,0.0,0.0,0.0,0.0,0.0,0.0,0.0,0.0,0.0,0.0,0.0,0.0,0.0,0.0,0.0,0.0,0.0,0.0,0.0,0.0,0.0,0.0,0.0,0.0,0.0,0.0,0.0,0.0,0.0,0.0,0.0,0.0,0.0,0.0,0.0,0.0,0.0,0.0,0.0,0.0,0.0,0.0,0.0,0.0,0.0,0.0,0.0,0.0,0.0,0.0,0.0,0.0,0.0,0.0,0.0,0.0,0.0,0.0,0.0,0.0,0.0,0.0,0.0,0.0,0.0,0.0,0.0,0.0,0.0,0.0,0.0,0.0,0.0,0.0,0.0,0.0,0.0,0.0,0.0,0.0,0.0,0.0,0.0,0.0,0.0,2.9718,3.1479,3.3137,3.4128,3.5034,3.5917,3.5208,3.4324,3.3452,3.2578,0.0,0.0,0.0,0.0,0.0,0.0,0.0,0.0,0.0,0.0,0.0,0.0,0.0,0.0,0.0,0.0,0.0,0.0,0.0,0.0,0.0,0.0,0.0,0.0,0.0,0.0,0.0,0.0,0.0,0.0,0.0,0.0,0.0,0.0,0.0,0.0,0.0,0.0,0.0,0.0,0.0,0.0,0.0,0.0,0.0,0.0,0.0,0.0,0.0,0.0,0.0,0.0,0.0,0.0,0.0,0.0,0.0,0.0,0.0,0.0,0.0,0.0,0.0,0.0,0.0,0.0,0.0,0.0,0.0,0.0,0.0,0.0,0.0,0.0,0.0,0.0,0.0,0.0,0.0,0.0,0.0,0.0,0.0,0.0,0.0,0.0,0.0,0.0,0.0,0.0,0.0,0.0,0.0,0.0,0.0,0.0,0.0,0.0,0.0,0.0,0.0,0.0,3.0497,3.2046,3.318,3.4086,3.4998,3.5911,3.5194,3.4336,3.3456,3.259,0.0,0.0,0.0,0.0,0.0,0.0,0.0,0.0,0.0,0.0,0.0,0.0,0.0,0.0,0.0,0.0,0.0,0.0,0.0,0.0,0.0,0.0,0.0,0.0,0.0,0.0,0.0,0.0,0.0,0.0,0.0,0.0,0.0,0.0,0.0,0.0,0.0,0.0,0.0,0.0,0.0,0.0,0.0,0.0,0.0,0.0,0.0,0.0,0.0,0.0,0.0,0.0,0.0,0.0,0.0,0.0,0.0,0.0,0.0,0.0,0.0,0.0,0.0,0.0,0.0,0.0,0.0,0.0,0.0,0.0,0.0,0.0,0.0,0.0,0.0,0.0,0.0,0.0,0.0,0.0,0.0,0.0,0.0,0.0,0.0,0.0,0.0,0.0,0.0,0.0,0.0,0.0,0.0,0.0,0.0,0.0,0.0,0.0,0.0,0.0,0.0,0.0,3.1245,3.2849,0.0,3.4834,3.5552,3.591,3.5681,3.5112,3.4218,0.0,0.0,0.0,0.0,0.0,0.0,0.0,0.0,0.0,0.0,0.0,0.0,0.0,0.0,0.0,0.0,0.0,0.0,0.0,0.0,0.0,0.0,0.0,0.0,0.0,0.0,0.0,0.0,0.0,0.0,0.0,0.0,0.0,0.0,0.0,0.0,0.0,0.0,0.0,0.0,0.0,0.0,0.0,0.0,0.0,0.0,0.0,0.0,0.0,0.0,0.0,0.0,0.0,0.0,0.0,0.0,0.0,0.0,0.0,0.0,0.0,0.0,0.0,0.0,0.0,0.0,0.0,0.0,0.0,0.0,0.0,0.0,0.0,0.0,0.0,0.0,0.0,0.0,0.0,0.0,0.0,0.0,0.0,0.0,0.0,0.0,0.0,0.0,0.0,0.0,0.0,0.0,0.0,0.0,0.0,0.0,0.0,0.0,0.0,0.0,0.0,0.0,2.9948,3.1728,3.3205,0.0,3.5477,3.6144,3.589,3.6187,3.5866,3.4684,0.0,0.0,0.0,0.0,0.0,0.0,0.0,0.0,0.0,0.0,0.0,0.0,0.0,0.0,0.0,0.0,0.0,0.0,0.0,0.0,0.0,0.0,0.0,0.0,0.0,0.0,0.0,0.0,0.0,0.0,0.0,0.0,0.0,0.0,0.0,0.0,0.0,0.0,0.0,0.0,0.0,0.0,0.0,0.0,0.0,0.0,0.0,0.0,0.0,0.0,0.0,0.0,0.0,0.0,0.0,0.0,0.0,0.0,0.0,0.0,0.0,0.0,0.0,0.0,0.0,0.0,0.0,0.0,0.0,0.0,0.0,0.0,0.0,0.0,0.0,0.0,0.0,0.0,0.0,0.0,0.0,0.0,0.0,0.0,0.0,0.0,0.0,0.0,0.0,0.0,0.0,0.0,0.0,0.0,0.0,0.0,0.0,0.0,0.0,0.0,0.0,0.0,3.0565,3.1889,3.303,3.4101,3.5882,3.6684,3.5891,3.667,3.6462,0.0,0.0,0.0,0.0,0.0,0.0,0.0,0.0,0.0,0.0,0.0,0.0,0.0,0.0,0.0,0.0,0.0,0.0,0.0,0.0,0.0,0.0,0.0,0.0,0.0,0.0,0.0,0.0,0.0,0.0,0.0,0.0,0.0,0.0,0.0,0.0,0.0,0.0,0.0,0.0,0.0,0.0,0.0,0.0,0.0,0.0,0.0,0.0,0.0,0.0,0.0,0.0,0.0,0.0,0.0,0.0,0.0,0.0,0.0,0.0,0.0,0.0,0.0,0.0,0.0,0.0,0.0,0.0,0.0,0.0,0.0,0.0,0.0,0.0,0.0,0.0,0.0,0.0,0.0,0.0,0.0,0.0,0.0,0.0,0.0,0.0,0.0,0.0,0.0,0.0,0.0,0.0,0.0,0.0,0.0,0.0,0.0,0.0,0.0,0.0,0.0,0.0,0.0,3.1105,3.1996,3.3263,3.5584,3.644,3.7044,3.7521,3.7303,3.6892,3.6334,0.0,0.0,0.0,0.0,0.0,0.0,0.0,0.0,0.0,0.0,0.0,0.0,0.0,0.0,0.0,0.0,0.0,0.0,0.0,0.0,0.0,0.0,0.0,0.0,0.0,0.0,0.0,0.0,0.0,0.0,0.0,0.0,0.0,0.0,0.0,0.0,0.0,0.0,0.0,0.0,0.0,0.0,0.0,0.0,0.0,0.0,0.0,0.0,0.0,0.0,0.0,0.0,0.0,0.0,0.0,0.0,0.0,0.0,0.0,0.0,0.0,0.0,0.0,0.0,0.0,0.0,0.0,0.0,0.0,0.0,0.0,0.0,0.0,0.0,0.0,0.0,0.0,0.0,0.0,0.0,0.0,0.0,0.0,0.0,0.0,0.0,0.0,0.0,0.0,0.0,0.0,0.0,0.0,0.0,0.0,0.0,0.0,0.0,0.0,0.0,0.0,0.0,3.1218,3.2166,3.3583,3.6114,3.6872,3.7482,3.816,3.813,3.7744,3.7015,0.0,0.0,0.0,0.0,0.0,0.0,0.0,0.0,0.0,0.0,0.0,0.0,0.0,0.0,0.0,0.0,0.0,0.0,0.0,0.0,0.0,0.0,0.0,0.0,0.0,0.0,0.0,0.0,0.0,0.0,0.0,0.0,0.0,0.0,0.0,0.0,0.0,0.0,0.0,0.0,0.0,0.0,0.0,0.0,0.0,0.0,0.0,0.0,0.0,0.0,0.0,0.0,0.0,0.0,0.0,0.0,0.0,0.0,0.0,0.0,0.0,0.0,0.0,0.0,0.0,0.0,0.0,0.0,0.0,0.0,0.0,0.0,0.0,0.0,0.0,0.0,0.0,0.0,0.0,0.0,0.0,0.0,0.0,0.0,0.0,0.0,0.0,0.0,0.0,0.0,0.0,0.0,0.0,0.0,0.0,0.0,0.0,0.0,0.0,0.0,0.0,0.0,3.1045,3.2321,3.3904,3.6065,3.7177,3.7928,3.8271,3.9026,3.8762,3.7114,0.0,0.0,0.0,0.0,0.0,0.0,0.0,0.0,0.0,0.0,0.0,0.0,0.0,0.0,0.0,0.0,0.0,0.0,0.0,0.0,0.0,0.0,0.0,0.0,0.0,0.0,0.0,0.0,0.0,0.0,0.0,0.0,0.0,0.0,0.0,0.0,0.0,0.0,0.0,0.0,0.0,0.0,0.0,0.0,0.0,0.0,0.0,0.0,0.0,0.0,0.0,0.0,0.0,0.0,0.0,0.0,0.0,0.0,0.0,0.0,2.0759,0.0,0.0,0.0,0.0,0.0,0.0,0.0,0.0,0.0,0.0,0.0,0.0,0.0,0.0,0.0,0.0,0.0,0.0,0.0,0.0,0.0,0.0,0.0,0.0,0.0,0.0,0.0,0.0,0.0,0.0,0.0,0.0,0.0,0.0,0.0,0.0,0.0,0.0,0.0,0.0,0.0,3.0902,3.2114,3.3902,3.6616,3.7338,3.8246,3.9775,3.9557,3.8888,3.7839,3.6925,0.0,0.0,0.0,0.0,0.0,0.0,0.0,0.0,0.0,0.0,0.0,0.0,0.0,0.0,0.0,0.0,0.0,0.0,0.0,0.0,0.0,0.0,0.0,0.0,0.0,0.0,0.0,0.0,0.0,0.0,0.0,0.0,0.0,0.0,0.0,0.0,0.0,0.0,0.0,0.0,0.0,0.0,0.0,0.0,0.0,0.0,0.0,0.0,0.0,0.0,0.0,0.0,0.0,0.0,0.0,0.0,0.0,0.0,0.0,0.0,2.1204,0.0,0.0,0.0,0.0,0.0,0.0,0.0,0.0,0.0,0.0,0.0,0.0,0.0,0.0,0.0,0.0,0.0,0.0,0.0,0.0,0.0,0.0,0.0,0.0,0.0,0.0,0.0,0.0,0.0,0.0,0.0,0.0,0.0,0.0,0.0,0.0,0.0,0.0,0.0,0.0,3.1193,3.2785,3.4622,3.6728,3.7567,3.8592,4.0138,3.9957,3.941,3.855,3.7686,0.0,0.0,0.0,0.0,0.0,0.0,0.0,0.0,0.0,0.0,0.0,0.0,0.0,0.0,0.0,0.0,0.0,0.0,0.0,0.0,0.0,0.0,0.0,0.0,0.0,0.0,0.0,0.0,0.0,0.0,0.0,0.0,0.0,0.0,0.0,0.0,0.0,0.0,0.0,0.0,0.0,0.0,0.0,0.0,0.0,0.0,0.0,0.0,0.0,0.0,0.0,0.0,0.0,2.2483,2.2937,2.3615,2.3763,2.3939,2.4066,2.3252,2.2753,2.2521,2.1642,0.0,0.0,0.0,0.0,0.0,0.0,0.0,0.0,0.0,0.0,0.0,0.0,0.0,0.0,0.0,0.0,0.0,0.0,0.0,0.0,0.0,0.0,0.0,0.0,2.5958,2.6057,0.0,0.0,0.0,0.0,0.0,0.0,0.0,0.0,0.0,0.0,0.0,0.0,3.1734,3.361,3.5358,3.6794,3.7788,3.8814,3.9939,4.0177,3.9889,3.901,3.8359,3.7502,0.0,0.0,0.0,0.0,0.0,0.0,0.0,0.0,0.0,0.0,0.0,0.0,0.0,0.0,0.0,0.0,0.0,0.0,0.0,0.0,0.0,0.0,0.0,0.0,0.0,0.0,0.0,0.0,0.0,0.0,0.0,0.0,1.5415,1.5691,0.0,0.0,0.0,0.0,0.0,0.0,0.0,0.0,0.0,0.0,0.0,0.0,0.0,2.0908,2.1988,2.2234,2.2734,2.3482,2.3495,2.3737,2.4218,2.4218,2.4365,2.4592,2.4693,0.0,2.3371,2.3512,0.0,0.0,0.0,0.0,0.0,0.0,0.0,0.0,0.0,0.0,0.0,0.0,0.0,0.0,0.0,0.0,0.0,0.0,0.0,0.0,0.0,0.0,2.6985,2.7863,2.8568,2.9036,0.0,2.7476,2.6442,2.7728,2.7773,0.0,0.0,0.0,0.0,0.0,0.0,0.0,3.242,3.3723,3.5312,3.7295,3.794,3.8643,3.9683,3.9975,3.9717,3.8802,3.8766,3.8023,3.6369,3.6027,0.0,0.0,0.0,0.0,0.0,0.0,0.0,0.0,0.0,0.0,0.0,0.0,0.0,0.0,0.0,0.0,0.0,0.0,0.0,0.0,0.0,0.0,0.0,0.0,0.0,0.0,0.0,0.0,0.0,1.5338,1.6101,1.6547,1.6916,1.7287,0.0,0.0,0.0,0.0,0.0,0.0,0.0,0.0,0.0,2.05,2.0939,2.1616,2.2561,2.2777,2.3405,2.4482,2.4538,2.4883,2.5365,2.5464,2.5633,2.5814,2.6117,2.5812,2.5092,2.4591,2.4261,2.4048,0.0,0.0,0.0,0.0,2.4503,2.47,2.4756,2.4879,0.0,2.5036,0.0,0.0,0.0,0.0,0.0,0.0,0.0,0.0,0.0,0.0,2.8149,2.8716,2.9076,2.9333,2.9351,2.8612,2.8081,0.0,2.8767,2.88,2.9016,0.0,0.0,0.0,0.0,3.2231,3.367,3.4981,3.6173,3.7312,3.8155,3.888,3.9439,3.9717,3.9719,3.9277,3.8971,3.8421,3.7637,3.7084,3.6209,0.0,0.0,0.0,0.0,0.0,0.0,0.0,0.0,0.0,0.0,0.0,0.0,0.0,0.0,0.0,0.0,0.0,0.0,0.0,0.0,0.0,0.0,0.0,0.0,0.0,0.0,0.0,0.0,1.6026,1.6837,1.745,1.7965,1.844,0.0,0.0,0.0,0.0,0.0,0.0,1.9801,2.0359,2.081,2.1212,2.1807,2.2488,2.3234,2.3352,2.3953,2.4987,2.511,2.5458,2.607,2.6169,2.6357,2.6507,2.6837,2.668,2.6175,2.5532,2.5263,2.5194,2.485,2.4955,2.5237,2.5191,2.5334,2.5616,2.5727,2.5846,2.5963,2.6025,2.6008,2.6025,2.5947,0.0,0.0,0.0,0.0,2.8671,2.8932,2.9249,2.9587,3.0019,3.0129,3.0166,3.0207,3.0245,3.0179,0.0,2.9756,2.9819,3.0133,0.0,0.0,0.0,0.0,3.3299,3.4832,3.5989,3.6922,3.7744,3.8651,3.9378,3.9779,3.9858,3.99,3.9924,3.9312,3.8807,3.8572,3.7945,3.7144,3.6224,0.0,0.0,0.0,0.0,0.0,0.0,0.0,0.0,0.0,0.0,0.0,0.0,0.0,0.0,0.0,0.0,0.0,0.0,0.0,0.0,0.0,0.0,0.0,0.0,0.0,0.0,0.0,0.0,0.0,1.8367,1.8456,0.0,0.0,0.0,0.0,1.9915,2.0303,2.0628,2.0883,2.1366,2.1727,2.2017,2.266,2.3384,2.4128,2.4258,2.4476,2.4745,2.4745,2.5086,2.5747,2.5734,2.5813,2.6036,2.6401,2.6205,2.5805,2.6578,2.6614,2.6242,2.6117,2.6247,2.6462,2.6214,2.63,2.6564,2.6682,2.6812,2.6925,2.6925,2.6925,2.6925,2.6925,2.7111,0.0,0.0,2.8059,2.9081,2.9894,3.0771,3.1679,3.2603,3.2899,3.3001,3.3069,3.3111,3.273,0.0,3.1266,3.1647,3.3131,0.0,3.3427,3.3543,3.3882,3.4509,3.5618,3.6148,3.7129,3.899,3.9542,4.016,4.1126,4.0756,4.0502,4.0562,3.9921,3.9251,3.8524,3.8403,3.792,3.7061,3.6048,0.0,0.0,0.0,0.0,0.0,0.0,0.0,0.0,0.0,0.0,0.0,0.0,0.0,0.0,0.0,0.0,0.0,0.0,0.0,0.0,0.0,0.0,0.0,0.0,0.0,0.0,0.0,0.0,1.922,1.9346,0.0,2.0343,2.0287,2.0268,2.0508,2.0856,2.1207,2.1488,2.1978,2.2452,2.2769,2.3024,2.3668,2.4689,2.4759,2.5235,2.6056,2.6056,2.6153,2.6407,2.6407,2.6479,2.6707,2.6968,2.7067,2.7019,2.7745,2.7539,2.6832,2.7199,2.7498,2.7832,2.7943,2.8267,2.8636,2.8736,2.8919,2.9115,2.9115,2.9115,2.9164,2.9292,2.9421,2.9501,2.9659,3.0115,3.0633,3.0953,3.1472,3.2052,3.2451,3.2652,3.2802,3.289,3.2961,3.3014,3.31,3.2782,3.2697,3.3263,3.3406,3.366,3.4261,3.4621,3.5394,3.6911,3.7425,3.8216,3.9624,4.0092,4.0529,4.1005,4.1021,4.1096,4.1231,4.1091,4.0675,3.9883,3.9864,3.9202,3.776,3.7292,3.6708,0.0,0.0,0.0,0.0,0.0,0.0,0.0,0.0,0.0,0.0,0.0,0.0,0.0,0.0,0.0,0.0,0.0,0.0,0.0,0.0,0.0,0.0,0.0,0.0,0.0,0.0,1.8833,2.0079,2.0176,2.0494,2.1386,2.1299,2.1187,2.132,2.1628,2.1879,2.194,2.2476,2.2933,2.3294,2.3479,2.4047,2.5125,2.5137,2.555,2.6358,2.6358,2.6453,2.6706,2.6706,2.6859,2.6947,2.7227,2.7357,2.7347,2.7925,2.788,2.745,2.803,2.8386,2.8651,2.8857,2.9107,2.9426,2.9696,2.9856,3.0015,3.0015,3.0068,3.0105,3.0241,3.0381,3.0536,3.0721,3.1181,3.167,3.1924,3.2496,3.308,3.3389,3.36,3.3761,3.3857,3.3935,3.4162,3.4738,3.4106,3.3604,3.3856,3.4196,3.4621,3.527,3.5822,3.6612,3.7939,3.8397,3.908,4.0139,4.0614,4.1017,4.1451,4.1492,4.1609,4.1785,4.1709,4.1417,4.0933,4.0943,4.042,3.9239,3.8498,3.7468,3.6211,0.0,0.0,0.0,0.0,0.0,0.0,0.0,0.0,0.0,0.0,0.0,0.0,0.0,0.0,0.0,0.0,0.0,0.0,0.0,0.0,0.0,0.0,0.0,1.8893,1.9023,1.9552,2.09,2.0921,2.1025,2.1487,2.1701,2.1973,2.2297,2.2689,2.2764,2.2343,2.2852,2.33,2.3626,2.4044,2.459,2.5305,2.5305,2.5394,2.565,2.565,2.5902,2.6371,2.662,2.67,2.67,2.716,2.7032,2.6657,2.7172,2.7681,2.8059,2.8746,2.8971,2.8903,2.882,2.8811,2.8978,2.9411,2.959,2.959,2.959,2.9684,2.9778,2.9778,2.9993,3.0258,3.0446,3.1155,3.207,3.2817,3.3852,3.4856,3.5543,3.5937,3.6185,3.6185,3.6291,3.6397,3.6397,3.5234,3.4492,3.5241,3.5961,3.6477,3.6709,3.7411,0.0,3.8666,3.8981,3.9553,4.0689,4.1123,4.1665,4.2498,4.2249,4.2083,4.2219,4.1701,4.1416,4.1512,4.1512,4.1464,4.1385,3.9528,3.7671,3.5887,0.0,0.0,0.0,0.0,0.0,0.0,0.0,0.0,0.0,0.0,0.0,0.0,0.0,0.0,0.0,0.0,0.0,0.0,0.0,0.0,0.0,0.0,1.7711,1.8247,1.9285,2.0377,2.1548,2.1607,2.1818,2.258,2.2476,2.235,2.2297,2.2849,2.3045,2.2972,2.3632,2.4073,2.4216,2.4426,2.4881,2.5449,2.5609,2.5869,2.631,2.631,2.6377,2.6513,2.6594,2.6594,2.6676,2.7059,2.714,2.7092,2.7727,2.8132,2.8423,2.8949,2.9369,2.974,3.0058,3.0558,3.1113,3.1486,3.1608,3.1608,3.1608,3.1731,3.1913,3.2019,3.2199,3.2392,3.2717,3.3072,3.3414,3.3856,3.4384,3.487,3.5203,3.5419,3.5586,3.5664,3.5812,3.5937,3.6077,3.5873,3.584,3.6307,3.6622,3.6904,3.7035,3.7511,0.0,3.8965,3.9405,4.0016,4.0989,4.147,4.1872,4.221,4.2354,4.2499,4.2705,4.2685,4.2441,4.1971,4.2036,4.176,4.1075,4.0367,3.9164,0.0,0.0,0.0,0.0,0.0,0.0,0.0,0.0,0.0,0.0,0.0,0.0,0.0,0.0,0.0,0.0,0.0,0.0,0.0,0.0,0.0,0.0,1.7759,1.8458,1.8744,1.9847,2.0892,2.1771,2.1975,2.2275,2.288,2.2888,2.2809,2.2795,2.3251,2.3547,2.3471,2.3913,2.4233,2.4438,2.4519,2.4827,2.5376,2.5459,2.5876,2.6444,2.6444,2.6639,2.6912,2.7008,2.7104,2.7093,2.742,2.7588,2.7733,2.7929,2.8338,0.0,0.0,0.0,0.0,0.0,3.1029,3.1495,3.1889,3.1954,3.1954,3.1954,3.2163,3.2356,3.2469,3.2723,3.3037,3.3285,3.3484,3.3728,3.4349,3.4651,3.4966,3.5468,3.5708,3.5884,3.5985,3.62,3.6372,3.6501,3.6686,0.0,3.7167,3.7192,3.7242,3.7448,3.802,3.864,3.9327,3.9771,4.0277,4.0849,4.1346,4.1657,4.1701,4.2086,0.0,0.0,0.0,4.2795,4.2468,4.2503,0.0,0.0,0.0,4.0312,3.8905,0.0,0.0,0.0,3.5414,3.4688,0.0,0.0,0.0,0.0,0.0,0.0,0.0,0.0,0.0,0.0,0.0,0.0,0.0,0.0,0.0,0.0,1.8447,1.9747,1.9854,2.0457,2.1192,2.1843,2.2173,2.2531,2.2833,2.3114,2.3275,2.3391,2.3784,2.3983,2.3822,0.0,0.0,0.0,0.0,2.4744,2.5275,2.5275,2.5605,2.6357,2.6357,2.666,2.7227,2.7514,2.7602,2.7701,2.7876,2.8139,2.8268,2.806,2.8382,2.8987,2.934,2.9517,2.9709,3.0465,3.076,3.0966,3.1372,0.0,0.0,3.1506,3.172,3.1985,3.1985,3.2378,3.2829,3.2976,3.3181,3.358,3.4475,3.4798,3.5122,3.5932,3.6399,3.6585,3.6662,3.6892,3.7118,3.7134,3.7389,3.7583,3.7642,3.7633,3.7655,3.7892,3.8681,3.9342,3.9726,4.0104,4.0441,4.0675,0.0,0.0,4.1256,4.1692,4.1962,4.1977,4.231,4.2627,4.2933,4.2951,4.2607,4.192,4.1807,4.1281,4.0269,4.0018,3.9784,3.9504,3.6594,3.5214,0.0,0.0,0.0,0.0,0.0,0.0,0.0,0.0,0.0,0.0,0.0,0.0,0.0,0.0,0.0,1.8178,1.8715,1.9323,2.0128,2.0757,2.1328,2.2067,2.2556,2.2892,2.3243,2.3487,2.3562,2.3419,2.3698,2.3805,2.3805,2.4158,2.4407,2.4501,2.4735,2.504,2.5504,2.5688,2.6009,2.6576,0.0,0.0,2.7082,2.7093,2.7249,2.7403,2.769,2.7789,2.7865,2.82,2.866,2.9319,2.9725,3.005,3.034,3.1103,3.1428,3.1514,3.186,3.1932,3.1932,3.1932,3.2217,3.2569,3.2569,3.2932,0.0,3.3618,3.3888,3.4266,3.4765,3.5005,3.523,3.5657,3.5879,3.5943,3.6258,3.6321,3.6445,3.6708,3.6846,3.6968,3.7254,3.7658,3.8036,3.8293,3.8613,3.9237,4.0088,4.0425,4.0978,4.1882,4.221,4.2208,4.1722,4.202,4.1974,4.1426,4.1788,4.2412,4.3263,4.3322,4.3209,4.3066,4.3019,4.2222,4.0762,4.0554,4.0129,3.9494,3.8749,3.8427,0.0,0.0,0.0,0.0,0.0,0.0,0.0,0.0,0.0,0.0,0.0,1.6059,0.0,0.0,1.7775,1.8506,1.9241,1.991,2.0653,2.1216,2.1562,2.1924,2.237,2.2769,2.3098,2.3398,2.3505,2.334,2.3594,2.3764,2.3764,2.4159,2.4481,2.4707,2.4968,2.5263,2.5722,2.5811,2.623,2.6795,2.6795,2.7104,2.7705,2.7705,2.7876,2.8036,2.8228,2.8318,2.8398,2.8765,2.8953,2.9106,2.9637,3.0171,3.0649,3.1345,3.1565,3.1655,3.2027,3.218,3.218,3.2346,3.2648,3.2935,3.2935,3.3482,3.4024,3.3774,3.4044,3.4393,3.4336,3.4601,3.4883,3.5133,3.5329,3.5524,3.5782,3.5894,3.6006,3.6289,3.6399,3.6523,3.6693,3.7118,3.7551,3.7992,3.8495,3.9121,3.9748,4.0407,4.105,4.1765,4.2088,4.2151,4.1953,4.2311,4.2437,4.2362,4.2562,4.2966,4.3625,4.3642,4.3642,4.3642,4.3615,4.32,4.2388,4.1842,4.1429,4.106,4.0508,3.9852,0.0,0.0,0.0,0.0,0.0,0.0,0.0,0.0,1.5652,1.6062,1.6611,1.7091,1.7091,1.7876,1.8557,1.8646,1.9618,2.052,2.1043,2.1392,2.172,2.1744,2.2196,2.2563,2.2767,2.314,2.3307,2.3148,2.3467,2.3707,2.3874,2.4068,2.4456,2.4992,2.519,2.5485,2.6009,2.6009,2.6339,2.7096,2.7096,2.7471,2.8207,2.8301,2.8488,2.8757,2.8757,2.8943,2.9095,2.924,2.9112,2.8946,2.9531,3.0131,3.0688,3.1121,3.1373,3.1455,3.1941,3.2102,3.2114,3.2287,3.2606,3.2988,3.2988,3.3534,3.4142,3.3649,3.397,3.4439,3.4059,3.428,3.464,3.4874,3.5198,3.5422,3.5517,3.5654,3.5789,3.5797,3.5958,3.6085,3.6085,3.6336,3.6831,3.7638,3.8368,3.9038,3.9608,4.0453,4.1154,4.1708,4.1936,4.2061,4.203,4.239,4.274,4.3089,4.3276,4.3513,4.3943,4.396,4.396,4.396,4.396,4.389,4.3733,4.3027,4.2701,4.2683,4.1864,4.0781,1.3229,1.3629,1.4363,1.5374,1.5612,1.5694,0.0,0.0,1.6097,1.6154,1.6835,1.7377,1.7377,1.8081,1.8775,1.9145,1.9621,2.0096,2.0604,2.1034,2.1434,2.1749,2.2324,2.2794,2.276,2.2822,2.2902,2.3066,2.3115,2.3486,2.4049,2.4345,2.4735,2.5451,2.5462,2.5767,2.6486,2.6496,2.6724,2.7274,2.7274,2.74,2.7736,2.7904,2.8196,2.8488,2.8664,2.8943,2.9128,2.9154,2.9282,2.95,2.9953,3.0224,3.0287,3.041,3.0563,3.0823,3.1046,3.1304,3.1399,3.148,3.1792,3.2114,3.2114,3.2672,3.3365,3.3298,3.3824,3.4505,3.4659,3.5015,3.5394,3.577,3.6041,3.6079,3.5663,3.5736,3.5748,3.5398,3.5424,3.5619,3.5752,3.5958,3.6488,3.7779,3.8322,3.9118,4.0654,4.108,4.1678,4.2802,4.2928,4.2624,4.1899,4.2051,4.2066,4.1834,4.2433,4.3186,4.4147,4.4181,4.4181,4.4181,4.4181,4.3836,4.318,4.3093,4.3059,4.3059,4.2823,4.2109,1.4178,1.4497,0.0,0.0,1.5881,1.6252,1.6683,1.7052,1.7298,1.7631,1.7953,1.819,1.819,1.8682,1.9212,0.0,2.0036,2.0538,2.121,2.1466,2.1646,2.1973,2.2098,2.2263,2.2524,2.26,2.2618,2.2706,2.2926,2.3227,2.368,2.4195,2.4723,2.5448,2.5746,2.6155,2.6794,2.6972,2.7065,2.7262,2.7262,2.7452,2.7631,2.7904,2.8186,2.8664,2.8757,2.885,2.8943,2.9035,2.9128,2.9301,2.9669,2.976,2.9897,3.0467,3.0751,3.0925,3.1074,3.1246,3.1332,3.1504,3.1845,3.2269,3.2269,3.2842,3.3437,3.3099,3.3556,3.4197,3.4104,3.4479,3.5004,3.5373,3.5593,3.5812,3.584,3.5703,3.5546,3.5433,3.5281,3.5133,3.5249,3.5394,3.5879,3.6983,3.7928,3.8982,4.0275,4.1022,4.1613,4.2002,4.2248,4.2064,4.1361,4.1465,4.181,4.2382,4.2686,4.3339,4.4323,4.4357,4.4357,4.4357,4.4357,4.4204,4.3897,4.3471,4.3267,4.325,4.2788,4.2296,1.4769,0.0,0.0,1.5641,1.6165,1.6751,1.7165,1.7592,1.7961,1.8286,1.8443,1.8518,1.8518,1.8852,1.9251,1.965,2.0058,2.0588,2.1293,2.1488,2.1664,2.1784,2.1642,2.1642,2.1989,2.2087,2.2176,2.2176,2.264,2.3104,2.3491,2.4088,2.4805,2.552,2.5919,2.6364,2.6794,2.7081,2.7167,2.7167,2.7262,2.7357,2.7547,2.7809,2.8279,2.8664,2.8757,2.8757,2.885,2.8943,2.9035,2.9035,2.9301,2.9393,2.9497,3.0329,3.0612,3.0703,3.0949,3.1026,3.1128,3.1395,3.1749,3.2089,3.2089,3.2686,3.3284,3.2807,3.3346,3.3991,3.3834,3.4278,3.4821,3.528,3.5493,3.5677,3.598,3.5784,3.5552,3.5375,3.5117,3.4859,3.4698,3.4883,3.5304,3.6127,3.7141,3.8361,3.9652,4.0595,4.1085,4.0846,4.1152,4.1102,4.0531,4.082,4.1313,4.2116,4.2515,4.3096,4.394,4.4158,4.4276,4.4276,4.4276,4.4276,4.4276,4.3698,4.3446,4.3412,4.2908,4.2555,0.0,0.0,1.5928,1.6425,1.7028,1.7468,1.7486,1.7495,1.7503,1.7521,1.7814,1.8148,1.8148,1.8487,1.8807,1.917,1.9569,1.9977,2.0367,2.074,2.1078,2.0988,2.0997,2.0997,0.0,2.1293,2.1482,2.1741,2.2288,2.2962,2.3634,2.4363,2.4977,2.5664,2.5974,2.6187,2.6496,2.6805,2.69,2.69,2.7167,2.7262,2.7347,2.7809,2.8186,2.8395,2.8664,2.8757,2.8757,2.885,2.885,2.885,2.9035,2.9128,2.9128,2.9393,2.9691,2.9977,3.0136,3.0397,3.0668,3.0972,3.1139,3.1306,3.1306,3.1825,3.2426,3.2413,3.3006,3.3771,3.4262,3.469,3.5264,3.5816,3.6108,3.6258,3.6011,3.6146,3.6003,3.4982,3.4923,3.4848,3.4229,3.4481,3.4902,3.5517,3.6014,3.6993,3.9032,3.9776,3.9971,3.9661,3.9939,3.9939,3.9333,4.0059,4.0391,4.0024,4.1362,4.2268,4.256,4.3256,4.3638,4.3638,4.3638,4.3638,4.3638,4.3604,4.3604,4.3604,4.3588,4.3206,0.0,0.0,1.5878,1.6387,1.6919,1.7287,1.7604,1.7873,1.8136,1.8301,1.8399,1.8497,1.8497,1.8612,1.8913,1.9468,1.968,1.9989,2.0713,2.0908,2.0907,2.0826,2.0826,0.0,0.0,0.0,0.0,2.1266,2.207,2.2786,2.3205,2.4057,2.479,2.5421,2.5703,2.5994,2.6197,2.6496,2.6699,2.69,2.7177,2.7357,2.7536,2.7631,2.8008,2.8395,2.8488,2.8664,2.8757,2.8757,2.8757,2.885,2.885,2.8943,2.8943,2.9035,2.9128,2.922,2.9577,2.976,2.9852,2.9954,3.0148,3.042,3.0487,3.0937,3.1472,3.1825,3.2351,3.2957,3.3556,3.4076,3.4577,3.5236,3.5629,3.5883,3.6008,3.5961,3.5661,3.4924,3.4723,3.447,3.3844,3.402,3.4441,3.5325,3.6413,3.7406,3.8318,3.8714,3.8781,3.8434,3.8591,3.8478,3.7947,3.8209,3.8686,3.9279,3.9747,4.0621,4.188,4.2157,4.25,4.2958,4.2958,4.2958,4.2958,4.2958,4.2912,4.2929,4.2912,4.2827,0.0,1.5498,1.5891,1.6272,1.6756,1.7196,1.7601,1.7869,1.804,1.821,1.829,1.8362,1.8362,1.8362,1.8705,1.9475,1.9606,1.9869,2.0622,2.0727,2.0736,2.0564,2.0564,2.0473,0.0,0.0,0.0,2.1019,2.1906,2.2618,2.3048,2.3874,2.4529,2.503,2.5411,2.5616,2.581,2.6197,2.6496,2.6794,2.6986,2.7262,2.7357,2.7536,2.782,2.8113,2.8196,2.8384,2.8664,2.8664,2.8757,2.8757,2.8757,2.8757,2.8757,2.8757,2.8757,2.885,2.922,2.9405,2.9393,2.9485,2.9588,2.9783,2.9943,3.0216,3.0589,3.1038,3.1472,3.1989,3.2698,3.3215,3.3641,3.4397,3.4895,3.5223,3.5642,3.565,3.5379,3.4706,3.446,3.415,3.3381,3.3521,3.3956,3.462,3.5648,3.655,3.7248,3.7494,3.7501,3.72,3.7312,3.7251,3.6984,3.7013,3.7427,3.8229,3.8499,3.9176,4.0453,4.0984,4.1466,4.1884,4.2141,4.2206,4.2206,4.2206,4.2222,4.2238,4.2222,4.2206,1.4509,1.5235,1.5911,1.615,1.6645,1.7139,1.731,1.7392,1.7392,1.7392,1.7546,1.77,0.0,0.0,1.8198,1.9025,1.9162,1.9427,2.0163,2.0283,2.0292,0.0,0.0,0.0,0.0,0.0,0.0,2.1136,0.0,2.244,2.3035,2.3717,2.4233,2.4529,2.503,2.5235,2.5235,2.581,2.6197,2.6496,2.6794,2.69,2.69,2.7357,2.7547,2.7631,2.7904,2.8102,2.8395,2.8395,2.8488,2.8757,2.8757,2.8757,2.8757,2.8757,2.8757,2.885,2.9035,2.9128,2.9128,2.9393,2.9485,2.9485,2.9485,2.9691,2.9886,3.0125,3.0499,3.1026,3.1725,3.2164,3.2599,3.3458,3.381,3.4243,3.4908,3.5223,3.509,3.4317,3.4121,3.3786,3.2839,3.3043,3.3368,3.3578,3.3911,3.4578,3.5925,3.6253,3.6214,3.597,3.6085,3.6211,3.6429,3.6414,3.6585,3.6845,3.7483,3.8059,3.846,3.974,4.0482,4.0546,4.1193,4.1491,4.1522,4.1522,4.1522,4.1522,4.1522,4.1522,1.4399,1.4926,1.5468,1.597,1.6265,1.6409,1.6648,1.673,1.6902,1.7139,1.731,1.7473,0.0,0.0,0.0,1.8246,1.8556,0.0,1.9271,1.9751,0.0,0.0,0.0,2.0292,2.0292,2.0292,0.0,0.0,2.1735,2.2153,2.285,2.3529,2.4044,2.4538,2.4627,2.4833,2.503,2.5509,2.5897,2.6197,2.6496,2.6699,2.69,2.6986,2.7272,2.7631,2.7631,2.7809,2.8092,2.8092,2.8186,2.8186,2.8186,2.829,2.8488,2.8488,2.8664,2.885,2.885,2.885,2.885,2.8943,2.8932,2.9024,2.9128,2.922,2.9416,2.9874,3.0057,3.0329,3.1026,3.1383,3.1737,3.2513,3.3129,3.3654,3.3979,3.4058,3.3872,3.3369,3.285,3.2448,3.2472,3.2932,3.3394,3.3784,3.4,3.4313,3.4826,3.4999,3.5193,3.5359,3.5394,3.5524,3.5672,3.5672,3.5816,3.6211,3.6379,3.6875,3.7747,3.8104,3.8772,3.9796,3.9982,4.0256,4.0799,4.0799,4.0799,4.0799,4.0799,4.0799,1.408,1.464,1.5092,1.5696,1.5824,1.5906,1.6245,1.6211,1.6265,1.6427,1.6461,0.0,0.0,0.0,0.0,0.0,0.0,0.0,1.8943,1.9281,1.957,0.0,2.0027,0.0,2.011,2.0354,2.0788,0.0,2.15,2.204,2.2804,2.3231,2.3646,2.4143,2.4233,2.4538,2.4932,2.5216,2.5509,2.5713,2.6004,2.6304,2.6592,2.6699,2.689,2.7156,0.0,2.7452,2.7715,2.782,2.7904,2.7998,2.7998,2.8092,2.8196,2.8196,2.829,2.8466,2.8466,2.8466,2.8466,2.8571,2.8664,2.8664,2.8653,2.8653,2.8653,2.9139,2.9335,2.9588,3.0125,3.0499,3.0859,3.156,3.2089,3.2612,3.3031,3.3013,3.2718,3.2306,3.1727,3.1468,3.185,3.2482,3.3023,3.3408,3.3864,3.4287,3.4512,3.4473,3.4481,3.4668,3.4817,3.4868,3.4971,3.5037,3.5234,3.5509,3.5589,3.5933,3.6523,3.6907,3.7562,3.8546,3.885,3.9336,4.0021,4.0021,4.0021,4.0021,4.0021,4.0091,1.3703,1.4248,1.4734,1.5228,1.5311,1.5387,1.5779,1.5627,1.5488,1.5443,0.0,0.0,1.5755,0.0,1.6645,1.7266,0.0,1.8074,1.8676,1.8904,1.9077,1.9538,1.9754,1.9845,1.9928,2.0458,2.1028,2.1388,2.1456,2.1896,2.2911,2.3046,2.3247,2.3746,2.3945,2.4332,2.4833,2.4833,2.4932,2.5235,2.5509,2.579,2.6091,2.6304,2.64,2.6496,2.6709,2.6986,2.7167,2.7347,2.7631,2.7809,2.7809,2.7904,2.7998,2.7998,2.7998,2.7998,2.7998,2.7998,2.7998,2.829,2.8395,2.829,2.8092,2.7998,2.8092,2.829,2.8477,2.8757,2.9209,2.9588,2.9874,3.0589,3.0949,3.1383,3.2089,3.1933,3.1514,3.0988,3.0663,3.062,3.111,3.1734,3.2448,3.2893,3.3593,3.4279,3.474,3.4398,3.412,3.412,3.4185,3.4278,3.4278,3.4496,3.4616,3.4802,3.4949,3.5133,3.527,3.5851,3.6477,3.7133,3.7789,3.8445,3.9101,3.9175,3.922,3.922,3.9307,3.9379,1.3398,1.3937,1.4334,1.4741,1.4817,1.4754,1.4664,1.4734,0.0,0.0,0.0,1.5002,1.5226,1.5543,0.0,1.5898,0.0,0.0,0.0,0.0,1.8897,0.0,0.0,0.0,0.0,0.0,0.0,0.0,0.0,2.2189,2.292,2.3046,2.3147,2.3447,2.3755,2.3945,2.4233,2.443,2.4735,2.4932,2.503,2.5314,2.579,2.579,2.6091,2.6496,2.6506,0.0,2.6592,2.6688,2.688,2.7081,2.7081,2.7357,2.7631,2.7631,2.7809,2.7998,2.7998,2.7998,2.7998,2.8092,2.8092,2.8092,2.7987,2.7998,2.7998,2.8092,2.8092,2.8186,2.8477,2.8757,2.9128,2.9577,3.0034,3.0487,3.1026,3.0879,3.0379,2.9633,2.9571,2.9806,3.0432,3.1035,3.1798,3.2841,3.3234,3.3721,3.4454,3.4162,3.3998,3.4142,3.3903,3.3744,3.3744,3.3951,3.4088,3.4264,3.4264,3.4399,3.4601,3.4718,3.5069,3.5711,3.6353,3.6996,3.7638,3.8164,3.8427,3.8412,3.859,3.8664,1.2826,1.3438,1.3957,1.4047,1.4255,1.4255,1.4118,0.0,0.0,0.0,0.0,1.3921,1.4165,0.0,0.0,0.0,0.0,0.0,0.0,0.0,0.0,0.0,0.0,0.0,0.0,0.0,0.0,0.0,0.0,2.2155,2.2736,2.2946,2.3046,2.3147,2.3447,2.3646,2.3737,2.4044,2.4242,2.4538,2.4637,2.4922,2.5314,2.5314,2.5518,2.5917,2.6004,0.0,2.6294,2.64,2.6602,2.6699,2.6699,2.6794,2.7071,2.7167,2.7357,2.7452,2.7631,2.7631,2.7631,2.7631,2.7715,2.7809,2.7631,2.7631,2.7631,2.7631,2.7715,2.782,2.7925,2.8196,2.8466,2.885,2.9393,2.9875,2.9894,2.9764,2.9403,2.8889,2.8655,2.8767,2.9586,3.0272,3.1029,3.1928,3.2725,3.3344,3.3754,3.3557,3.354,3.3684,3.3378,3.3157,3.3157,3.3297,3.3437,3.3479,3.3632,3.3701,3.3839,3.3839,3.4139,3.4754,3.5068,3.5696,3.6668,3.6968,3.7282,3.7596,3.7749,3.7915,1.2168,1.2806,1.3336,1.3444,1.3628,1.3783,1.3639,1.346,0.0,0.0,1.2993,1.2896,1.3222,0.0,0.0,0.0,0.0,0.0,0.0,0.0,0.0,0.0,0.0,0.0,0.0,0.0,0.0,0.0,0.0,0.0,2.2342,2.2644,2.2846,2.2846,2.3147,2.3347,2.3347,2.3546,2.3845,2.4035,2.4242,2.4538,2.4833,2.4833,2.4932,2.5235,2.5411,0.0,2.5907,2.6207,2.6304,2.64,2.64,2.64,2.6506,2.6699,2.6794,2.6794,2.7071,2.7167,2.7167,2.7167,2.7262,2.7452,2.7262,2.7167,2.7167,2.7167,2.7251,2.7347,2.7452,2.7631,2.7904,2.8196,2.8757,2.9179,2.888,2.872,2.8591,2.8321,2.8023,2.794,2.8736,2.9395,3.0114,3.0836,3.1932,3.273,3.283,3.2738,3.2709,3.2866,3.2714,3.2489,3.2489,3.2704,3.2846,3.2846,3.2988,3.3058,3.3058,3.3058,3.3282,3.377,3.391,3.4468,3.5446,3.5787,3.6165,3.6626,3.7,3.7226,1.165,1.2067,1.232,1.2855,1.3008,1.3008,1.2936,0.0,0.0,0.0,1.262,1.268,1.2935,1.3248,0.0,0.0,0.0,0.0,0.0,0.0,0.0,0.0,0.0,0.0,0.0,0.0,0.0,0.0,0.0,0.0,2.1827,2.203,2.2224,2.2224,2.2745,2.3046,2.3046,2.3347,2.3546,2.3845,2.3845,2.4143,2.4529,2.4529,2.4637,2.4932,2.4932,0.0,0.0,2.543,2.5723,2.61,2.61,2.6304,2.6496,2.6506,2.6496,2.6496,2.6592,2.6592,2.6592,2.6592,2.6794,2.6996,2.69,2.6794,2.6592,2.6592,2.6592,2.6699,2.69,2.7167,2.7441,2.7904,2.829,2.8347,2.785,2.8072,2.8221,2.7458,2.7488,2.7713,2.7893,2.8191,2.8807,2.9936,3.0486,3.1124,3.1835,3.1744,3.163,3.1655,3.1841,3.1963,3.1963,3.2069,3.22,3.22,3.22,3.22,3.22,3.22,3.2228,3.2282,3.2913,3.3254,3.3377,3.4684,3.5324,3.5393,3.6337,3.6744,1.0897,1.1561,1.2056,1.2361,1.2557,1.2588,1.2331,0.0,0.0,1.1844,1.1784,1.1766,1.1939,1.221,1.2633,0.0,0.0,0.0,0.0,0.0,0.0,0.0,0.0,0.0,0.0,0.0,0.0,0.0,0.0,0.0,2.1208,2.1623,2.1827,2.1827,2.2232,2.2434,2.2434,2.2946,2.3247,2.3347,2.3655,2.3945,2.4044,2.4242,2.444,2.4637,2.4637,0.0,0.0,2.5039,2.5323,2.5616,2.5616,2.582,2.6024,2.6207,2.6294,2.6294,2.64,2.6496,2.6496,2.6496,2.6496,2.64,2.6592,2.6602,2.6496,2.6496,2.6496,2.6496,2.6602,2.6688,2.6976,2.7441,2.7631,2.7778,2.7846,2.7774,2.7655,2.7523,2.7162,2.7138,2.7595,2.772,2.8078,2.8935,2.964,3.0121,3.0524,3.0823,3.0904,3.0881,3.1117,3.136,3.136,3.1421,3.1482,3.1629,3.1629,3.1643,3.1803,3.1803,3.1803,3.1803,3.2045,3.234,3.2764,3.3648,3.4227,3.4618,3.5518,3.5951,1.0056,1.0848,1.149,1.1677,1.1926,1.2044,0.0,0.0,0.0,1.127,1.1162,1.1151,1.1134,1.1456,1.186,1.2344,0.0,0.0,0.0,0.0,0.0,0.0,0.0,0.0,0.0,0.0,0.0,0.0,0.0,0.0,2.0599,2.1107,2.1407,2.1623,2.1827,2.2021,2.2123,2.2535,2.2846,2.3046,2.3347,2.3655,2.3854,2.3954,2.4251,2.444,2.444,0.0,0.0,2.4735,2.4932,2.5137,2.5137,2.5342,2.5635,2.581,2.5907,2.6014,2.6207,2.6217,2.6217,2.6217,2.611,2.6004,2.611,2.6207,2.6217,2.6217,2.6304,2.64,2.64,2.64,2.6592,2.6976,2.7071,2.7167,2.7631,2.7473,2.7302,2.7409,2.7025,2.6791,2.7142,2.7281,2.7522,2.8018,2.8811,2.9321,2.944,2.987,3.0102,3.0023,3.0292,3.052,3.0836,3.0823,3.0898,3.1048,3.1048,3.1123,3.1224,3.1224,3.1224,3.1224,3.1224,3.1501,3.208,3.2711,3.3304,3.3898,3.4711,3.5072,0.9281,0.9782,1.0136,1.0761,1.103,1.1162,0.0,0.0,0.0,1.123,1.1018,1.088,1.0886,1.1109,1.1365,1.1592,1.2291,0.0,0.0,0.0,0.0,0.0,0.0,0.0,0.0,0.0,0.0,0.0,0.0,0.0,1.9876,2.021,2.066,2.1318,2.1522,2.1818,2.2123,2.2131,2.2434,2.3046,2.3046,2.3247,2.3755,2.3755,2.3954,2.4152,0.0,0.0,0.0,2.4529,2.4637,2.4932,2.4932,2.5039,2.5333,2.5342,2.544,2.5742,2.5742,2.5732,2.5732,2.5732,2.5742,2.5635,2.543,2.5538,2.5732,2.5732,2.5917,2.61,2.61,2.6294,2.6496,2.6496,2.6496,2.6602,2.69,2.7081,2.7212,2.693,2.6945,2.6931,2.6628,2.6802,2.6974,2.7185,2.7938,2.851,2.851,2.8907,2.9143,2.9131,2.9131,2.9443,3.0368,3.0444,3.0444,3.0444,3.0444,3.0444,3.0444,3.0444,3.0444,3.0444,3.0444,3.0637,3.1214,3.2029,3.2691,3.3247,3.4053,3.4314,0.8983,0.9708,1.0327,1.0811,1.1018,1.1096,1.1109,0.0,1.0743,1.0418,1.0248,1.018,1.0233,1.0405,1.0717,1.1087,1.1663,0.0,0.0,0.0,0.0,0.0,0.0,0.0,0.0,0.0,0.0,0.0,0.0,0.0,1.9852,1.9971,2.0293,2.0644,2.1196,2.1428,2.1522,2.1928,2.2232,2.2434,2.2846,2.3046,2.3247,2.3447,2.3646,0.0,0.0,0.0,2.4251,2.4251,2.444,2.4637,2.4637,2.4833,2.5039,2.5039,2.5039,2.5137,2.5137,2.5137,2.5137,2.5137,2.5137,2.5137,2.503,2.5235,2.544,2.5235,2.5333,2.5518,2.5518,2.5723,2.6024,2.6197,2.6197,2.6294,2.6602,2.6794,2.704,2.6896,2.67,2.6562,2.6778,2.659,2.661,2.7103,2.751,2.7926,2.8259,2.8419,2.8578,2.8669,2.8669,2.8895,2.9431,2.9509,2.9586,2.9741,2.9741,2.9806,2.9947,2.9947,3.006,3.0464,3.0464,3.0741,3.1297,3.1934,3.2503,3.289,3.2943,3.292,0.0,0.9279,0.9925,1.0257,1.0445,0.0,0.0,0.0,1.009,0.9907,0.9706,0.9597,0.9741,0.994,1.0282,1.0783,1.1152,0.0,0.0,0.0,0.0,0.0,0.0,0.0,0.0,0.0,0.0,0.0,0.0,0.0,1.9463,1.9606,1.9781,2.0003,2.0672,2.1087,2.1326,2.1623,2.1928,2.2123,2.2434,2.2745,2.3046,2.3147,2.3447,0.0,0.0,2.3755,0.0,2.4053,2.4152,2.4341,2.4341,2.4538,2.4735,2.4735,2.4833,2.4932,2.4932,2.4932,2.4932,2.4932,2.4833,2.4735,2.4735,2.4932,2.5137,2.4941,2.503,2.5137,2.5137,2.5342,2.5625,2.5713,2.5907,2.6014,2.6304,2.6496,2.6699,2.69,2.6434,2.6256,2.6704,2.6432,2.629,2.6787,2.7103,2.751,2.7765,2.7938,2.8111,2.8283,2.8271,2.8351,2.859,2.8828,2.8895,2.904,2.904,2.9118,2.925,2.9263,2.9522,2.9985,2.9998,3.038,3.0964,3.1479,3.1822,3.1989,3.1789,3.1613,0.0,0.0,0.0,0.0,0.0,0.0,0.0,0.0,0.0,0.9551,0.9303,0.9148,0.9406,0.967,1.0001,1.0491,1.0814,0.0,0.0,0.0,0.0,0.0,0.0,0.0,0.0,0.0,0.0,0.0,0.0,0.0,1.8827,1.9153,1.9344,1.9376,1.9987,2.0588,2.1143,2.1253,2.1448,2.1954,2.2072,2.2391,2.2911,2.2937,2.3147,0.0,2.3347,2.3546,2.3746,2.3746,2.3954,2.4152,2.4152,2.4341,2.443,2.443,2.4637,2.4833,2.4833,2.4833,2.4833,2.4833,2.4637,2.443,2.443,2.4637,2.4833,2.4833,2.4833,2.4833,2.4833,2.503,2.5235,2.5235,2.544,2.5732,2.6004,2.61,2.6294,2.6794,2.6362,2.6007,2.6525,2.6185,2.5895,2.6146,2.6704,2.7185,2.7185,2.7545,2.78,2.78,2.78,2.78,2.78,2.8191,2.8431,2.8431,2.8431,2.8431,2.8431,2.8431,2.8682,2.914,2.9224,2.9666,3.0406,3.0678,3.0789,3.0664,3.0508,3.0226,0.7991,0.0,0.944,0.9389,0.0,0.0,0.0,0.0,0.0,0.0,0.0,0.0,0.0,0.9388,0.0,0.0,0.0,0.0,0.0,0.0,0.0,0.0,0.0,0.0,0.0,0.0,0.0,0.0,0.0,1.8658,1.8827,1.8907,1.9082,1.9368,1.9526,1.987,2.0205,2.0426,2.0622,2.072,2.1395,2.1827,2.1943,2.2415,2.2846,2.3046,2.3046,2.3247,2.3447,2.3447,2.3646,2.3845,2.3845,2.4053,2.4251,2.4251,2.435,2.435,2.435,2.435,2.435,2.435,2.435,2.4251,2.4251,2.435,2.435,2.435,2.444,2.4627,2.4627,2.4833,2.503,2.503,2.5235,2.543,2.543,2.581,2.6197,2.6506,2.6062,2.5715,2.6246,2.5904,2.5717,2.5895,2.6396,2.6715,2.6715,2.6809,2.6891,2.6891,2.6891,2.6798,2.661,2.7278,2.7765,2.7765,2.7592,2.751,2.751,2.751,2.794,2.8761,2.9351,2.9679,2.9761,2.9601,2.9284,2.8722,2.853,2.8061,0.8131,0.8697,0.9153,0.9294,0.9383,0.9438,0.0,0.0,0.0,0.0,0.0,0.0,0.0,0.0,0.0,0.0,0.0,0.0,0.0,0.0,0.0,0.0,0.0,0.0,0.0,0.0,0.0,0.0,0.0,1.8566,1.8827,1.8827,1.8915,1.9121,1.9121,1.936,1.986,2.0071,2.0176,2.0281,2.0769,2.1056,2.1162,2.1719,2.2087,2.2404,2.2567,2.2846,2.3247,2.3247,2.3347,2.3646,2.3646,2.3755,2.4053,2.4053,2.4053,2.4152,2.4152,2.4152,2.4152,2.4152,2.4152,2.4152,2.4152,2.4152,2.4152,2.4152,2.4251,2.4341,2.4341,2.4538,2.4735,2.4735,2.4932,2.5137,2.5235,2.5528,2.581,2.6207,2.5678,2.5351,2.5986,2.548,2.5115,2.5549,2.5884,2.6135,2.6135,2.6218,2.6313,2.6313,2.6135,2.6041,2.5863,2.6102,2.6445,2.6787,2.6622,2.6622,2.6622,2.6622,2.6898,2.7562,2.8033,2.8149,2.7887,2.7624,2.7221,2.6795,2.6694,2.6375,0.8373,0.858,0.8664,0.912,0.9113,0.9061,0.0,0.0,0.0,0.0,0.0,0.0,0.0,0.0,0.0,0.0,0.0,0.0,0.0,0.0,0.0,0.0,0.0,0.0,0.0,0.0,0.0,0.0,0.0,1.8566,1.8743,1.8735,1.8827,1.8827,1.8827,1.9113,1.9701,1.9709,1.9814,2.0023,2.0176,2.0297,2.0594,2.0941,2.1238,2.1519,0.0,0.0,2.2846,2.2846,2.3046,2.3347,2.3347,2.3546,2.3755,2.3755,2.3954,2.4152,2.4152,2.4152,2.4152,2.4152,2.4152,2.4152,2.4152,2.4152,2.4152,2.4152,2.4152,2.4152,2.4152,2.435,2.443,2.443,2.4637,2.4932,2.5137,2.5235,2.5411,2.5818,2.5253,2.4965,2.5552,2.5021,2.4625,2.4946,2.5189,2.5359,2.5359,2.5549,2.5633,2.5633,2.5454,2.5274,2.5189,2.4861,2.4946,2.5464,2.5633,2.5633,2.5633,2.5708,2.584,2.5968,2.5983,2.5944,2.5673,2.5422,2.5209,2.4876,2.4876,2.4653,0.8667,0.8885,0.8978,0.9174,0.9263,0.9263,0.0,0.0,0.0,0.0,0.0,0.0,0.0,0.0,0.0,0.0,0.0,0.0,0.0,0.0,0.0,0.0,0.0,0.0,0.0,0.0,0.0,0.0,0.0,1.828,1.8566,1.8743,1.8827,1.8827,1.8827,1.8875,1.8986,1.8986,1.8986,1.8994,1.9587,1.9922,1.9939,2.0482,2.09,2.1279,0.0,2.1637,2.2232,2.2232,2.2535,2.3046,2.3046,2.3247,2.3456,2.3755,2.3854,2.3845,2.4152,2.4152,2.4152,2.4152,2.4152,2.4152,2.4152,2.4152,2.4152,2.4152,2.4152,2.4152,2.4152,2.4251,2.4251,2.4251,2.444,2.4529,2.4627,2.4833,2.5023,2.5234,2.4849,2.449,2.4675,2.4456,2.4282,2.4368,2.4519,2.4669,2.4669,2.4669,2.4669,2.4509,2.4413,2.4251,2.3841,2.3754,2.3667,2.357,2.4251,2.468,2.4509,2.4794,2.4856,2.4563,2.4726,2.467,2.4385,2.421,2.3658,2.2859,2.2859,2.249,0.8952,0.9173,0.9384,0.9563,0.9569,0.9465,0.9263,0.0,0.0,0.0,0.0,0.0,0.0,0.0,0.0,0.0,0.0,0.0,0.0,0.0,0.0,0.0,0.0,0.0,0.0,0.0,0.0,0.0,0.0,0.0,1.8481,1.8566,1.8651,1.8827,1.8827,1.8827,1.8827,1.8827,1.8827,1.8827,1.9087,1.926,1.9276,1.9733,2.0166,2.0434,0.0,2.1172,2.1645,2.1946,2.2232,2.2535,2.2745,2.2946,2.3247,2.3655,2.3845,2.4053,2.4152,2.4152,2.4152,2.4152,2.4152,2.4152,2.4152,2.4152,2.4152,2.4152,2.4152,2.4152,2.4152,2.4152,2.4152,2.4152,2.4251,2.4341,2.444,2.4459,2.4447,2.4641,2.4159,2.3741,2.3908,2.3605,2.3503,2.359,2.3657,2.3734,2.357,2.356,2.3474,2.328,2.3105,2.294,2.2775,2.2608,2.2618,2.2882,2.3309,2.3464,2.328,2.3301,2.3231,2.2866,2.2796,2.2618,2.2245,2.198,2.1615,2.1063,2.0881,2.0785,0.9313,0.958,0.9779,1.0018,0.0,0.9636,0.9559,0.0,0.0,0.0,0.0,0.0,0.0,0.0,0.0,0.0,0.0,0.0,0.0,0.0,0.0,0.0,0.0,0.0,0.0,0.0,0.0,0.0,0.0,0.0,1.8381,1.8481,1.8566,1.8827,1.8827,1.8827,1.8827,1.8827,1.8827,1.8827,1.8827,1.8827,1.8835,1.9121,1.9383,1.9771,2.0216,2.0687,2.0983,2.1454,2.177,2.187,2.2178,2.2486,2.2775,2.3269,2.3573,2.3877,2.3978,2.4005,2.4024,2.4115,2.4152,2.4152,2.4152,2.4152,2.4152,2.4152,2.4152,2.4152,2.4152,2.4152,2.4152,2.4152,2.4152,2.4125,2.4221,2.3864,2.3684,2.3785,2.3233,2.2856,2.3024,2.2739,2.2618,2.2696,2.2696,2.2608,2.2432,2.2353,2.2246,2.205,2.1872,2.1695,2.1606,2.1356,2.1365,2.19,2.2255,2.2246,2.1952,2.1784,2.1526,2.1248,2.0988,2.0727,2.0266,2.0002,1.9729,1.9438,1.9263,1.9263,0.9898,1.0044,1.0108,1.023,0.0,0.0,1.0002,0.0,0.0,0.0,0.0,0.0,0.0,0.0,0.0,0.0,0.0,0.0,0.0,0.0,0.0,0.0,0.0,0.0,0.0,0.0,0.0,0.0,0.0,0.0,1.8087,1.8381,1.8566,1.8827,1.8827,1.8827,1.8827,1.8827,1.8827,1.8827,1.8827,1.8827,1.8827,1.8851,1.905,1.947,1.9518,1.9822,2.0322,2.0443,2.0743,2.1122,2.1218,2.1499,2.1874,2.2256,2.2447,2.2786,2.3359,2.3584,2.3648,2.4033,2.4152,2.4152,2.4152,2.4152,2.4152,2.4152,2.4152,2.4152,2.4152,2.4152,2.4152,2.4152,2.4053,2.3755,2.3392,2.3098,2.2759,2.2297,2.2106,2.2035,2.1841,2.1848,2.1731,2.1535,2.1535,2.1445,2.1177,2.1087,2.0988,2.0718,2.0727,2.0538,2.0076,1.9803,1.9629,1.9455,2.0538,2.0988,2.0718,2.0555,2.0275,2.0068,1.9637,1.9371,1.9279,1.8804,1.8442,1.8272,1.8179,1.8172,1.0099,1.0294,1.0394,1.0656,0.0,0.0,0.0,0.0,0.0,0.0,0.0,0.0,0.0,0.0,0.0,0.0,0.0,0.0,0.0,0.0,0.0,0.0,0.0,0.0,0.0,0.0,0.0,0.0,0.0,0.0,1.8087,1.8187,1.8465,1.8827,1.8827,1.8827,1.8827,1.8827,1.8827,1.8827,1.8827,1.8827,1.8827,1.8827,1.8907,1.9042,1.9272,1.9542,1.9782,2.0192,2.0378,2.0669,2.095,2.1422,2.1787,2.1882,2.2271,2.2668,2.2822,2.2981,2.3198,2.3354,2.3409,2.3409,2.3409,2.3304,2.3253,2.3508,2.3385,2.3448,2.389,2.3954,2.3954,2.3755,2.3467,2.3153,2.3001,2.2407,2.1784,2.1578,2.123,2.0919,2.0861,2.0835,2.0736,2.0538,2.0439,2.0357,1.9911,1.9911,1.9729,1.9255,1.908,1.8996,1.8812,1.8519,1.8334,1.8249,1.9263,1.9729,1.9455,1.9271,1.8988,1.8812,1.8434,1.8156,1.7978,1.7707,1.7527,1.7441,1.7246,1.7246,1.0278,1.0489,1.0601,0.0,0.0,0.0,0.0,0.0,0.0,0.0,0.0,0.0,0.0,0.0,0.0,0.0,0.0,0.0,0.0,0.0,0.0,0.0,0.0,0.0,0.0,0.0,0.0,0.0,0.0,0.0,0.0,1.8087,1.8272,1.8651,1.8735,1.8827,1.8827,1.8827,1.8827,1.8827,1.8827,1.8827,1.8827,1.8827,1.8827,1.8843,1.909,1.9201,1.9217,1.9653,1.9941,2.014,2.0504,2.0968,2.1336,2.143,2.171,2.2008,2.2227,2.2375,2.2505,2.2623,2.2659,2.2659,2.2659,2.2564,2.2515,2.2784,2.2681,2.2655,2.301,2.3278,2.3431,2.3108,2.2682,2.2364,2.2232,2.1518,2.0831,2.0711,2.0288,1.9928,1.9828,1.9737,1.9637,1.9355,1.9255,1.9072,1.8627,1.8535,1.8342,1.7878,1.7606,1.7512,1.7512,1.7225,1.7131,1.7131,1.7785,1.8164,1.8265,1.7978,1.7699,1.7512,1.7232,1.7044,1.6864,1.6588,1.6494,1.6494,1.6298,1.6393,1.0523,1.0667,0.0,0.0,0.0,0.0,0.0,0.0,0.0,0.0,0.0,0.0,0.0,0.0,0.0,0.0,0.0,0.0,0.0,0.0,0.0,0.0,0.0,0.0,0.0,0.0,0.0,0.0,0.0,0.0,0.0,1.7994,1.8179,1.8481,1.8651,1.8827,1.8827,1.8827,1.8827,1.8827,1.8827,1.8827,1.8827,1.8827,1.8827,1.8827,1.8827,1.8827,1.8827,1.8827,1.9112,1.9587,1.9845,2.0019,2.0292,2.0564,2.0744,2.0797,2.1366,2.16,2.1662,2.2034,2.2159,2.2159,2.2159,2.2159,2.2159,2.2167,2.2167,2.2072,2.1613,2.2092,2.2673,2.2265,2.1796,2.1406,2.1019,2.0466,1.9898,1.9345,1.9188,1.9096,1.8827,1.8535,1.8342,1.8087,1.7885,1.7598,1.7326,1.7138,1.6857,1.6581,1.6386,1.619,1.619,1.592,1.5825,1.5825,1.5825,1.6109,1.6951,1.677,1.6487,1.619,1.592,1.5825,1.5825,1.5534,1.5432,1.5432,1.5432,1.5534,1.0229,0.0,0.0,0.0,0.0,0.0,0.0,0.0,0.0,0.0,0.0,0.0,0.0,0.0,0.0,0.0,0.0,0.0,0.0,0.0,0.0,0.0,0.0,0.0,0.0,0.0,0.0,0.0,0.0,0.0,0.0,1.7341,1.7652,1.8115,1.8441,1.8658,1.8827,1.8827,1.8827,1.8827,1.8827,1.8827,1.8827,1.8827,1.8827,1.8827,1.8827,1.8827,1.8827,1.8827,1.9012,1.9379,1.9571,1.9845,2.0019,2.0292,2.0564,2.0762,2.0876,2.1092,2.1192,2.1307,2.1343,2.1343,2.1343,2.1169,2.0954,2.124,2.102,2.0729,2.0548,2.0727,2.094,2.11,2.0836,2.0429,2.0226,1.9621,1.9132,1.8743,1.8357,1.8094,1.8001,1.78,1.7512,1.7145,1.6958,1.6669,1.6001,1.5629,1.535,1.5261,1.5057,1.4867,1.4867,1.4771,1.4777,1.4777,1.4777,1.5153,1.6109,1.5913,1.5622,1.5432,1.5159,1.4968,1.4777,1.4675,1.4682,1.4873,1.4873,1.507,0.9702,0.0,0.0,0.0,0.0,0.0,0.0,0.0,0.0,0.0,0.0,0.0,0.0,0.0,0.0,0.0,0.0,0.0,0.0,0.0,0.0,0.0,0.0,0.0,0.0,0.0,0.0,0.0,0.0,0.0,0.0,1.684,1.7221,1.7489,1.7877,1.8222,1.8446,1.853,1.8684,1.8827,1.8827,1.8827,1.8827,1.8827,1.8827,1.8827,1.8827,1.8827,1.8827,1.8827,1.892,1.9196,1.9387,1.9662,1.9928,2.011,2.0292,2.0564,2.0564,2.0645,2.0736,2.0736,2.0637,2.0555,2.0555,2.0292,2.0078,2.0315,2.0087,1.9698,1.9605,1.9512,1.956,1.9976,1.9862,1.9512,1.9333,1.8792,1.8272,1.8079,1.7714,1.7347,1.7153,1.6864,1.6574,1.6103,1.5724,1.5337,1.4758,1.4286,1.4004,1.3919,1.3817,1.3721,1.3721,1.3721,1.3721,1.3721,1.3721,1.401,1.4586,1.4765,1.4669,1.449,1.4304,1.4112,1.4016,1.4016,1.4112,1.4208,1.4208,1.4461,0.0,0.0,0.0,0.0,0.0,0.0,0.0,0.0,0.0,0.0,0.0,0.0,0.0,0.0,0.0,0.0,0.0,0.0,0.0,0.0,0.0,0.0,0.0,0.0,0.0,0.0,0.0,0.0,0.0,0.0,1.5853,1.6411,1.6698,1.6698,1.7167,1.7593,1.7913,1.8076,1.8324,1.864,1.864,1.864,1.864,1.8796,1.8827,1.8827,1.8827,1.8827,1.8827,1.8827,1.892,1.9188,1.9188,1.9471,1.9837,1.9837,2.0019,2.0201,2.0201,2.0201,2.0201,2.0201,2.011,1.9845,1.9845,1.9671,1.9496,1.9496,1.9296,1.9004,1.8827,1.8542,1.8542,1.8912,1.8819,1.8643,1.845,1.7994,1.7535,1.7239,1.7059,1.669,1.619,1.592,1.554,1.5051,1.4286,1.3709,1.342,1.3125,1.284,1.2662,1.2667,1.2667,1.2667,1.2667,1.2667,1.2667,1.2662,1.2764,1.2764,1.3426,1.3624,1.3443,1.3443,1.3346,1.3346,1.3368,1.3477,1.3477,1.3499,1.3918,0.0,0.0,0.0,0.0,0.0,0.0,0.0,0.0,0.0,0.0,0.0,0.0,0.0,0.0,0.0,0.0,0.0,0.0,0.0,0.0,0.0,0.0,0.0,0.0,0.0,0.0,0.0,0.0,0.0,0.0,1.4937,1.5526,1.5922,1.608,1.6688,1.7037,1.7274,1.7355,1.7393,1.7463,1.7463,1.7559,1.7768,1.849,1.8827,1.8827,1.8827,1.8827,1.8827,1.8827,1.8827,1.892,1.9096,1.9279,1.9379,1.9579,1.9671,1.9762,1.9762,1.9762,1.9762,1.9762,1.9671,1.9671,1.9671,1.9304,1.8928,1.8928,1.8643,1.8365,1.8272,1.8087,1.7807,1.7707,1.7807,1.79,1.7613,1.734,1.6972,1.6574,1.6204,1.592,1.5432,1.5064,1.4682,1.3992,1.3232,1.2657,1.2365,1.2068,1.1873,1.159,1.1585,1.1585,1.1585,1.1785,1.1883,1.1883,1.2078,1.2175,1.2175,1.2759,1.2953,1.2662,1.2662,1.2565,1.2273,1.2646,1.3028,1.3232,1.364,1.3954,0.0,0.0,0.0,0.0,0.0,0.0,0.0,0.0,0.0,0.0,0.0,0.0,0.0,0.0,0.0,0.0,0.0,0.0,0.0,0.0,0.0,0.0,0.0,0.0,0.0,0.0,0.0,0.0,0.0,1.4153,1.4412,1.4817,1.5149,1.5311,1.5747,1.6166,1.6481,1.6662,1.6832,1.7072,1.7072,1.7159,1.7358,1.7974,1.8414,1.8573,1.8573,1.8669,1.8827,1.8827,1.8827,1.8827,1.8912,1.9104,1.9196,1.9387,1.9487,1.9587,1.9587,1.9587,1.9587,1.9487,1.9296,1.9204,1.9112,1.8827,1.8458,1.8272,1.7994,1.7707,1.7621,1.7347,1.7153,1.6958,1.7153,1.7254,1.7052,1.6683,1.6305,1.6103,1.5635,1.5159,1.4771,1.4202,1.3528,1.284,1.2262,1.1688,1.1492,1.1194,1.0998,1.0801,1.0806,1.0806,1.0806,1.0998,1.0998,1.0998,1.1194,1.1194,1.1194,1.1487,1.178,1.2175,1.2283,1.2246,1.2142,1.246,1.277,1.2876,1.3314,1.3632,0.0,0.0,0.0,0.0,0.0,0.0,0.0,0.0,0.0,0.0,0.0,0.0,0.0,0.0,0.0,0.0,0.0,0.0,0.0,0.0,0.0,0.0,0.0,0.0,0.0,0.0,0.0,0.0,0.0,1.3652,1.3913,1.4153,1.4314,1.4482,1.4824,1.5204,1.5626,1.5896,1.6286,1.6722,1.6722,1.6722,1.673,1.7156,1.7644,1.8119,1.8119,1.8316,1.8548,1.8548,1.868,1.8735,1.8735,1.892,1.9096,1.9104,1.9204,1.9404,1.9404,1.9304,1.9304,1.9104,1.8819,1.8643,1.845,1.8172,1.79,1.7628,1.7434,1.7145,1.6972,1.6683,1.6487,1.6487,1.6595,1.6595,1.6494,1.6021,1.5642,1.554,1.4873,1.4304,1.401,1.3141,1.237,1.1878,1.1394,1.0998,1.0605,1.0413,1.0216,1.0216,1.0216,1.0216,1.0216,1.0314,1.0314,1.0314,1.0413,1.0413,1.0413,1.0444,1.0856,1.1742,1.1924,1.2038,1.2077,1.2392,1.2496,1.2496,1.2848,1.3278,0.0,0.0,0.0,0.0,0.0,0.0,0.0,0.0,0.0,0.0,0.0,0.0,0.0,0.0,0.0,0.0,0.0,0.0,0.0,0.0,0.0,0.0,0.0,0.0,0.0,0.0,0.0,0.0,1.2448,1.279,1.3228,1.3392,1.3652,1.3822,1.423,1.4503,1.4621,1.4797,1.4986,1.5028,1.5288,1.538,1.538,1.5617,1.6282,1.7228,1.7228,1.742,1.7735,1.7735,1.8102,1.8574,1.8574,1.8658,1.8827,1.8658,1.8666,1.8574,1.8373,1.8272,1.8272,1.8272,1.8179,1.8179,1.7908,1.7621,1.7333,1.716,1.6878,1.6676,1.6683,1.6298,1.5927,1.5927,1.5648,1.5458,1.5832,1.5553,1.5077,1.4586,1.3727,1.2953,1.2662,1.1975,1.1292,1.0998,1.0703,1.0314,0.9821,0.9727,0.9628,0.943,0.9331,0.943,0.9727,0.992,1.0019,1.0019,1.0314,1.0413,1.0413,1.058,1.0773,1.0874,1.09,1.0994,1.1052,1.1782,1.2202,1.2207,1.2924,1.3455,0.0,0.0,0.0,0.0,0.0,0.0,0.0,0.0,0.0,0.0,0.0,0.0,0.0,0.0,0.0,0.0,0.0,0.0,0.0,0.0,0.0,0.0,0.0,0.0,0.0,0.0,0.0,0.0,1.1012,1.1494,1.2146,1.232,1.2728,1.3307,1.3561,1.3808,1.3984,1.4068,1.4243,1.4328,1.4503,1.458,1.4741,1.4817,1.5488,1.6624,1.6624,1.69,1.7293,1.7293,1.7474,1.7709,1.7709,1.7792,1.7905,1.7925,1.7995,1.8018,1.811,1.7994,1.7815,1.7707,1.7621,1.7441,1.7153,1.6864,1.6669,1.64,1.6109,1.5913,1.5832,1.5553,1.5363,1.5363,1.4975,1.4688,1.4873,1.4783,1.44,1.3624,1.2953,1.237,1.178,1.1194,1.0609,1.0216,0.9924,0.9624,0.9225,0.9126,0.9126,0.9031,0.8928,0.9027,0.9126,0.9426,0.9525,0.9324,0.9624,0.9624,0.9517,0.9694,0.9843,0.9943,1.0668,1.1076,1.1155,1.1567,1.1877,1.2093,1.2507,1.2989,0.0,0.0,0.0,0.0,0.0,0.0,0.0,0.0,0.0,0.0,0.0,0.0,0.0,0.0,0.0,0.0,0.0,0.0,0.0,0.0,0.0,0.0,0.0,0.0,0.0,0.0,0.0,0.0,0.9644,1.0208,1.088,1.1139,1.1638,1.2499,1.2589,1.2847,1.3188,1.3342,1.3497,1.3828,1.3828,1.399,1.4146,1.4146,1.4691,1.5689,1.586,1.6215,1.6593,1.6593,1.6733,1.6888,1.6888,1.6896,1.6926,1.7175,1.7176,1.7214,1.7462,1.7427,1.7223,1.7022,1.6893,1.6683,1.6393,1.6197,1.5906,1.5737,1.5445,1.5159,1.5077,1.4885,1.479,1.479,1.44,1.4112,1.4112,1.401,1.3721,1.2856,1.237,1.1883,1.0998,1.0507,1.0019,0.9525,0.9229,0.9031,0.8726,0.8726,0.8726,0.8726,0.8726,0.8726,0.8825,0.9031,0.9031,0.8825,0.9031,0.9031,0.8825,0.903,0.9201,0.9328,1.0383,1.0932,1.0932,1.1172,1.1459,1.1673,1.2005,1.2441,0.0,0.0,0.0,0.0,0.0,0.0,0.0,0.0,0.0,0.0,0.0,0.0,0.0,0.0,0.0,0.0,0.0,0.0,0.0,0.0,0.0,0.0,0.0,0.0,0.0,0.0,0.0,0.0,0.8341,0.8832,0.9572,0.9989,1.04,1.0816,1.122,1.1554,1.1813,1.2222,1.272,1.3137,1.3137,1.3228,1.3476,1.3476,1.3574,1.3841,1.451,1.5021,1.531,1.531,1.5654,1.6183,1.6183,1.6279,1.647,1.6293,1.6212,1.6123,1.5885,1.5993,1.6141,1.5957,1.6051,1.6096,1.5622,1.5432,1.5439,1.5172,1.4981,1.4688,1.4688,1.4298,1.3998,1.3998,1.3727,1.3539,1.3539,1.3147,1.2764,1.2467,1.178,1.0998,1.0216,0.9821,0.9426,0.8924,0.8825,0.8726,0.8432,0.8432,0.8432,0.8432,0.8432,0.8531,0.8825,0.8825,0.8825,0.8825,0.8825,0.8825,0.8825,0.9142,0.9321,0.9328,0.9641,0.9915,0.9915,1.0468,1.0802,1.0802,1.135,1.1896,0.0,0.0,0.0,0.0,0.0,0.0,0.0,0.0,0.0,0.0,0.0,0.0,0.0,0.0,0.0,0.0,0.0,0.0,0.0,0.0,0.0,0.0,0.0,0.0,0.0,0.0,0.0,0.0,0.0,0.7561,0.8155,0.872,0.9346,1.0136,1.0379,1.0789,1.1289,1.1456,1.1705,1.2206,1.2206,1.2379,1.279,1.279,1.2881,1.3045,1.33,1.3861,1.447,1.447,1.4617,1.4799,1.4812,1.4912,1.4933,1.5019,1.5088,1.5115,1.5226,1.5197,1.5201,1.511,1.5029,1.4984,1.4709,1.4539,1.4382,1.4394,1.401,1.363,1.363,1.3437,1.3141,1.2948,1.2754,1.2467,1.237,1.2268,1.2175,1.1683,1.0998,1.0314,0.9821,0.9229,0.873,0.8333,0.8137,0.8038,0.7942,0.7842,0.7939,0.8137,0.8137,0.8134,0.8233,0.8432,0.8432,0.8336,0.8432,0.8475,0.817,0.8374,0.8424,0.8301,0.8497,0.904,0.9816,1.0033,1.0363,1.0692,1.0911,1.135,0.0,0.0,0.0,0.0,0.0,0.0,0.0,0.0,0.0,0.0,0.0,0.0,0.0,0.0,0.0,0.0,0.0,0.0,0.0,0.0,0.0,0.0,0.0,0.0,0.0,0.0,0.0,0.0,0.0,0.0,0.6942,0.7576,0.8343,0.9199,0.9592,0.9951,1.0439,1.0519,1.0794,1.1277,1.136,1.1573,1.19,1.198,1.21,1.2272,1.2272,1.2784,1.3633,1.3633,1.3633,1.3633,1.3652,1.3652,1.3672,1.3847,1.3911,1.3937,1.4132,1.4179,1.418,1.4097,1.3925,1.3797,1.3788,1.3643,1.3408,1.3499,1.3141,1.2759,1.2759,1.2467,1.2175,1.1883,1.1688,1.1389,1.0993,1.1189,1.1292,1.09,1.0113,0.9525,0.913,0.8531,0.8035,0.7736,0.754,0.7444,0.7444,0.7444,0.754,0.7739,0.7739,0.7739,0.7739,0.7935,0.7935,0.7739,0.7935,0.7902,0.7638,0.778,0.7812,0.7837,0.7974,0.8377,0.9151,0.9372,0.9699,1.0139,1.0253,1.0692,0.0,0.0,0.0,0.0,0.0,0.0,0.0,0.0,0.0,0.0,0.0,0.0,0.0,0.0,0.0,0.0,0.0,0.0,0.0,0.0,0.0,0.0,0.0,0.0,0.0,0.0,0.0,0.0,0.4771,0.5237,0.586,0.6479,0.7249,0.8025,0.8623,0.9106,0.9326,0.9561,0.9905,1.0369,1.0522,1.0721,1.0988,1.1129,1.123,1.1235,1.1235,1.1757,1.2619,1.2619,1.2619,1.2619,1.2619,1.2619,1.2619,1.2619,1.2619,1.2619,1.2619,1.2868,1.2997,1.2839,1.2754,1.282,1.2774,1.2559,1.2431,1.2684,1.236,1.197,1.1878,1.1487,1.1096,1.0801,1.0507,1.0212,0.9706,0.9912,1.0216,1.0019,0.9324,0.8627,0.8038,0.7733,0.7531,0.7238,0.7135,0.7138,0.7138,0.7138,0.7238,0.7238,0.7238,0.7238,0.7238,0.7238,0.7238,0.7238,0.7238,0.7299,0.7334,0.747,0.7602,0.7729,0.7865,0.7934,0.7934,0.8592,0.892,0.8923,0.9482,1.0143,0.1515,0.0,0.0,0.0,0.0,0.0,0.0,0.0,0.0,0.0,0.0,0.0,0.0,0.0,0.0,0.0,0.0,0.0,0.0,0.0,0.0,0.0,0.0,0.0,0.0,0.0,0.0,0.0,0.3995,0.4545,0.501,0.6096,0.6868,0.7249,0.7783,0.8268,0.849,0.8639,0.8897,0.9255,0.9317,0.9423,0.955,0.9606,0.9709,0.9753,0.9753,1.0024,1.0549,1.1327,1.1671,1.1671,1.1671,1.1671,1.1671,1.1671,1.1671,1.1671,1.1671,1.1716,1.1771,1.1603,1.1508,1.1446,1.1312,1.1074,1.0968,1.1091,1.077,1.0325,1.007,0.9908,0.971,0.9414,0.9122,0.8825,0.852,0.8226,0.823,0.873,0.8329,0.7829,0.7437,0.7238,0.6842,0.6439,0.6537,0.6637,0.6637,0.6839,0.6942,0.7138,0.7238,0.7238,0.7238,0.7238,0.7238,0.7238,0.7238,0.7199,0.7132,0.7258,0.7281,0.7197,0.7315,0.7376,0.7376,0.7931,0.8374,0.8595,0.9261,0.9706,0.0,0.0,0.0,0.0,0.0,0.0,-0.0352,-0.0364,-0.025,0.0,0.0,0.0,0.0,0.0,0.0,0.0,0.0,0.0,0.0,0.0,0.0,0.0,0.0,0.0,0.0,0.2134,0.2318,0.2778,0.3276,0.3921,0.4623,0.5628,0.6247,0.6479,0.7092,0.7403,0.7484,0.7791,0.7919,0.8026,0.8098,0.8214,0.8338,0.8417,0.8545,0.8619,0.8619,0.8711,0.8894,0.9579,1.0193,1.0722,1.0722,1.0722,1.0722,1.0722,1.0722,1.0722,1.0722,1.0636,1.0549,1.0463,1.0289,1.0051,0.9952,0.9695,0.9552,0.9648,0.9329,0.8882,0.8497,0.8376,0.8227,0.8038,0.7786,0.763,0.7126,0.6734,0.6734,0.7531,0.7332,0.6836,0.6739,0.6439,0.6239,0.5839,0.5937,0.6034,0.6034,0.6237,0.6339,0.6537,0.6537,0.6537,0.6537,0.6537,0.6537,0.6537,0.6537,0.6491,0.6513,0.6583,0.6592,0.6655,0.672,0.6777,0.6824,0.7493,0.8045,0.8263,0.8598,0.8933,0.0,0.0,0.0,0.0,0.0,0.0,-0.0874,-0.0882,-0.0772,-0.0367,0.0,0.0,0.0,0.0,0.0,0.0,0.0,0.0,0.0,0.0,0.0,0.0,0.0,0.0,0.1743,0.1635,0.1811,0.2344,0.2631,0.3294,0.4465,0.516,0.5547,0.5705,0.6402,0.6633,0.6483,0.6795,0.6945,0.671,0.6849,0.7009,0.7105,0.7337,0.7411,0.7482,0.7482,0.7478,0.7566,0.7566,0.8452,0.9772,0.9772,0.9772,0.9772,0.9772,0.9772,0.9772,0.9772,0.9598,0.9423,0.9336,0.9069,0.8656,0.8637,0.8505,0.8272,0.8162,0.7847,0.7399,0.712,0.6923,0.6819,0.6532,0.6524,0.641,0.5617,0.5427,0.5634,0.6331,0.6137,0.5842,0.5842,0.5639,0.5436,0.5434,0.5436,0.5534,0.5534,0.5534,0.5636,0.5636,0.5636,0.5636,0.5636,0.5636,0.5636,0.5636,0.5636,0.5679,0.5774,0.5789,0.5884,0.6074,0.6091,0.6143,0.6239,0.7149,0.7604,0.7934,0.7934,0.8156,0.0,0.0,0.0,0.0,0.0,0.0,-0.0791,-0.0926,-0.0886,0.0,0.0,0.0,0.0,0.0,0.0,0.0,0.0,0.0,0.0,0.0,0.0,0.0,0.0,0.0,0.0635,0.094,0.1185,0.1512,0.2322,0.2981,0.3366,0.4224,0.4616,0.4696,0.5318,0.5631,0.5553,0.578,0.578,0.5628,0.5494,0.5471,0.5444,0.5382,0.5339,0.5539,0.5539,0.5625,0.5888,0.6071,0.6953,0.8273,0.8273,0.8273,0.8273,0.8273,0.8273,0.8273,0.8273,0.8185,0.8097,0.7925,0.7665,0.7408,0.7255,0.6913,0.6502,0.6262,0.6188,0.6081,0.5608,0.5529,0.5451,0.517,0.5147,0.5018,0.463,0.4589,0.4638,0.4533,0.4834,0.4937,0.4738,0.4638,0.4537,0.4334,0.4634,0.4935,0.4935,0.5334,0.5636,0.5636,0.5636,0.5636,0.5636,0.5636,0.5636,0.5636,0.5636,0.5646,0.5665,0.5751,0.5815,0.5858,0.5943,0.5998,0.6017,0.6628,0.7046,0.7376,0.7604,0.7826,0.0,0.0,0.0,0.0952,0.0,0.0,0.0,-0.0512,-0.0633,-0.0863,0.0,0.0,0.0,0.0,0.0,0.0,0.0,0.0,0.0,0.0,0.0,0.0,0.0,0.0,-0.0412,-0.007,0.0363,0.1057,0.1836,0.2322,0.2584,0.3134,0.3524,0.3756,0.4307,0.4462,0.4382,0.4616,0.4616,0.4382,0.4146,0.409,0.4195,0.411,0.4124,0.4293,0.4293,0.438,0.4469,0.4648,0.509,0.5794,0.6776,0.7132,0.7132,0.7132,0.7132,0.7132,0.7132,0.6953,0.6779,0.6602,0.634,0.5985,0.5802,0.5453,0.5201,0.4985,0.4943,0.4798,0.4434,0.4283,0.4221,0.3941,0.3905,0.3874,0.3621,0.3557,0.3491,0.3222,0.3428,0.3729,0.4135,0.4236,0.4135,0.4033,0.4234,0.4435,0.4435,0.4634,0.4834,0.4834,0.4834,0.4834,0.4834,0.4834,0.4834,0.4834,0.4937,0.5037,0.5037,0.5183,0.5333,0.5382,0.5481,0.5532,0.5532,0.5952,0.6327,0.6653,0.6764,0.6872,0.0,0.0,0.0,0.0,0.0,0.0953,0.0,0.0,0.0,-0.0617,0.0,0.0,0.0,0.0,0.0,0.0,0.0,0.0,0.0,0.0,0.0,0.0,0.0,0.0,-0.1277,-0.0965,-0.0428,0.0446,0.1048,0.1517,0.1711,0.2103,0.2496,0.282,0.3292,0.345,0.337,0.3528,0.3528,0.3212,0.3056,0.3045,0.3255,0.3186,0.3175,0.3293,0.3306,0.3312,0.3312,0.3312,0.3312,0.3491,0.5181,0.5894,0.5894,0.5894,0.5894,0.5894,0.5894,0.5628,0.5272,0.5272,0.5008,0.4652,0.4383,0.4206,0.403,0.3941,0.3762,0.3583,0.3408,0.3269,0.3126,0.2941,0.2895,0.2859,0.2721,0.2739,0.2663,0.2412,0.2422,0.2723,0.353,0.3731,0.3731,0.3731,0.3731,0.3831,0.3833,0.3932,0.3932,0.4033,0.4033,0.4033,0.4033,0.4033,0.4033,0.4033,0.4236,0.4338,0.4338,0.4535,0.4667,0.4842,0.481,0.4845,0.4845,0.5158,0.5492,0.5955,0.5955,0.5955,0.0,0.0,0.0,0.0,0.2124,0.0,0.0,0.0,0.0617,-0.0,0.0,0.0,0.0,0.0,0.0,0.0,0.0,0.0,0.0,0.0,0.0,0.0,0.0,0.0,0.0,-0.1241,-0.0913,-0.0777,-0.0144,0.0296,0.0304,0.1291,0.184,0.1879,0.2353,0.2824,0.3141,0.3141,0.2982,0.2588,0.2588,0.2545,0.2612,0.2332,0.2216,0.2357,0.2402,0.2333,0.2333,0.2333,0.2333,0.2422,0.3491,0.3935,0.3935,0.3935,0.3935,0.3935,0.3935,0.3846,0.3846,0.3846,0.3669,0.3405,0.3135,0.3045,0.3047,0.2781,0.2693,0.2603,0.2423,0.2337,0.2342,0.2342,0.2288,0.2336,0.2383,0.2424,0.2466,0.2412,0.2422,0.2422,0.2522,0.2623,0.2623,0.2623,0.2825,0.3027,0.323,0.353,0.3729,0.3932,0.4033,0.4033,0.4033,0.4033,0.4033,0.4033,0.4033,0.4033,0.4033,0.4033,0.4138,0.4145,0.4154,0.4159,0.4159,0.4159,0.464,0.5633,0.5847,0.5955,0.0,0.0,0.0,0.0,0.0,0.0,0.2127,0.0,0.112,0.0,0.0,0.0,0.0,0.0,0.0,0.0,-0.206,0.0,0.0,0.0,0.0,0.0,0.0,0.0,0.0,0.0,-0.1723,-0.168,-0.1274,-0.0937,-0.0814,-0.0225,0.0228,0.0614,0.0857,0.1177,0.1492,0.1492,0.1413,0.1256,0.1099,0.1033,0.1057,0.0904,0.0841,0.0956,0.0965,0.0887,0.0897,0.1166,0.1256,0.1256,0.1702,0.2417,0.3224,0.3224,0.3224,0.3224,0.3224,0.3226,0.3138,0.2868,0.269,0.2601,0.2422,0.2332,0.2332,0.2333,0.2334,0.2244,0.2064,0.1974,0.1885,0.1794,0.1717,0.1743,0.18,0.1824,0.185,0.1908,0.1919,0.1919,0.1919,0.2221,0.2422,0.2422,0.2522,0.2623,0.2725,0.2825,0.2924,0.3026,0.3026,0.3127,0.3328,0.3328,0.333,0.3531,0.3633,0.3835,0.4033,0.4033,0.4033,0.4033,0.4033,0.4033,0.4033,0.4033,0.4268,0.464,0.4951,0.5156,0.547,0.0,0.0,0.0,0.0,0.0,0.0,0.0,0.0,0.0,0.0,0.0,0.0,0.0,0.0,0.0,0.0,-0.209,0.0,0.0,0.0,0.0,0.0,0.0,0.0,0.0,-0.2443,-0.2423,-0.2149,-0.1894,-0.1727,-0.1468,-0.112,-0.0757,-0.0616,-0.0468,-0.0314,-0.0314,-0.0314,-0.0314,-0.0314,-0.0317,-0.0322,-0.0325,-0.0331,-0.0342,-0.0346,-0.0351,-0.0356,-0.0089,0.009,0.0179,0.0269,0.0986,0.1971,0.224,0.233,0.233,0.233,0.2332,0.2243,0.1885,0.1794,0.1794,0.1615,0.1705,0.1794,0.1974,0.1974,0.1974,0.1705,0.1705,0.1615,0.1436,0.1436,0.1452,0.1418,0.1526,0.1544,0.1605,0.1617,0.1617,0.1617,0.1919,0.2221,0.2221,0.2221,0.2221,0.2322,0.2322,0.2321,0.2422,0.2422,0.2522,0.2724,0.2724,0.2725,0.2927,0.313,0.3331,0.353,0.363,0.363,0.363,0.3732,0.3732,0.3732,0.3732,0.3833,0.3934,0.4135,0.4435,0.0,0.0,0.0,0.4938,0.0,0.0,0.0,0.0,0.2852,0.0,0.0,0.0,0.0,0.0,0.0,-0.1066,0.0,0.0,0.0,0.0,0.0,0.0,0.0,0.0,0.0,-0.3159,-0.2958,-0.296,-0.2627,-0.2387,-0.2448,-0.2035,-0.1871,-0.2043,-0.1896,-0.1842,-0.1807,-0.1808,-0.1808,-0.1808,-0.1415,-0.1258,-0.126,-0.1289,-0.1222,-0.1227,-0.1367,-0.1394,-0.1397,-0.1335,-0.1076,-0.0628,-0.0628,-0.0628,-0.0448,0.0448,0.0807,0.0807,0.0807,0.0807,0.0807,0.0718,0.0718,0.0718,0.0718,0.1076,0.1436,0.1436,0.1436,0.1436,0.1436,0.1436,0.1436,0.1436,0.1436,0.1361,0.1418,0.1431,0.1544,0.1605,0.1617,0.1617,0.1617,0.1617,0.1617,0.1617,0.1617,0.1718,0.2022,0.2022,0.2121,0.2422,0.2422,0.2422,0.2422,0.2422,0.2422,0.2422,0.2422,0.2422,0.2422,0.2724,0.2826,0.2826,0.313,0.323,0.323,0.323,0.3332,0.3636,0.3934,0.4033,0.0,0.0,0.577,0.5475,0.0,0.0,0.0,0.0,0.0,0.0,0.0,0.0,0.0,0.0,0.0168,-0.028,-0.0898,-0.1346,0.0,-0.168,-0.2047,0.0,0.0,0.0,0.0,0.0,0.0,-0.3155,-0.3025,-0.2902,-0.2859,-0.2565,-0.24,-0.2372,-0.238,-0.228,-0.2069,-0.2102,-0.2042,-0.1887,-0.1729,-0.1729,-0.173,-0.1665,-0.1684,-0.1709,-0.1572,-0.1525,-0.1566,-0.1491,-0.133,-0.1166,-0.1166,-0.1166,-0.1076,-0.0448,-0.0269,-0.0269,-0.0269,-0.0,0.0269,0.0269,0.0269,0.0269,0.0269,0.0359,0.0538,0.0807,0.0897,0.0897,0.0897,0.0897,0.0897,0.0897,0.0897,0.0904,0.0929,0.0945,0.0961,0.1085,0.1102,0.1111,0.1111,0.1111,0.1212,0.1516,0.1617,0.1617,0.1718,0.1718,0.1819,0.1818,0.1919,0.1919,0.1919,0.2221,0.2422,0.2422,0.2422,0.2422,0.2422,0.2522,0.2522,0.2522,0.2623,0.2623,0.2623,0.2623,0.2725,0.2826,0.2925,0.3327,0.6146,0.6092,0.0,0.5892,0.5703,0.0,0.5154,0.0,0.0,0.0,0.0,0.0,0.0,0.0,0.1008,0.0616,0.0056,-0.0449,0.0,-0.1176,-0.1581,0.0,0.0,0.0,0.0,0.0,-0.3272,-0.3238,-0.3179,-0.3125,0.0,-0.2938,-0.284,-0.2659,-0.2749,-0.2598,-0.2418,-0.2381,-0.2334,-0.22,-0.2042,-0.2042,-0.2043,-0.1964,-0.1901,-0.1928,-0.1783,-0.1736,-0.1784,-0.1628,-0.1654,-0.1685,-0.1685,-0.1604,-0.1525,-0.1076,-0.0987,-0.0987,-0.0987,-0.0718,-0.0448,-0.0269,-0.0269,-0.018,-0.009,-0.0,-0.0,-0.0,-0.009,-0.0,0.0179,0.0359,0.0448,0.0448,0.0448,0.0451,0.0461,0.047,0.048,0.0489,0.0499,0.0606,0.0808,0.0808,0.0909,0.1313,0.1314,0.1314,0.1314,0.1314,0.1314,0.1314,0.1314,0.1415,0.1617,0.1919,0.212,0.212,0.212,0.212,0.212,0.212,0.212,0.2221,0.2321,0.2422,0.2422,0.2422,0.2422,0.2422,0.2422,0.2724]},{"header":{"parameterUnit":"m.s-1","parameterCategory":1,"la1":30.6,"la2":29.2853,"lo1":-89.7004,"lo2":-87.6739,"dy":0.0162,"dx":0.0183,"nx":112,"ny":82,"refTime":"2023-07-31T12:00:00:Z","depth":0,"parameterNumber":3,"parameterNumberName":"V-component_of_WINDS"},"data":[0.0,0.0,0.0,0.0,0.0,0.0,0.0,0.0,0.0,0.0,0.0,0.0,0.0,0.0,0.0,0.0,0.0,0.0,0.0,0.0,0.0,0.0,0.0,0.0,0.0,0.0,0.0,0.0,0.0,0.0,0.0,0.0,0.0,0.0,0.0,0.0,0.0,0.0,0.0,0.0,0.0,0.0,0.0,0.0,0.0,0.0,0.0,0.0,0.0,0.0,0.0,0.0,0.0,0.0,0.0,0.0,0.0,0.0,0.0,0.0,0.0,0.0,0.0,0.0,0.0,0.0,0.0,0.0,0.0,0.0,0.0,0.0,0.0,0.0,0.0,0.0,0.0,0.0,0.0,0.0,0.0,0.0,0.0,0.0,0.0,0.0,0.0,0.0,0.0,0.0,0.0,-0.2627,-0.1141,0.0354,0.1601,0.1708,0.1736,0.1899,0.0,0.0,0.0,0.0,0.0,0.0,0.0,0.0,0.0,0.0,0.0,0.0,0.0,0.0,0.0,0.0,0.0,0.0,0.0,0.0,0.0,0.0,0.0,0.0,0.0,0.0,0.0,0.0,0.0,0.0,0.0,0.0,0.0,0.0,0.0,0.0,0.0,0.0,0.0,0.0,0.0,0.0,0.0,0.0,0.0,0.0,0.0,0.0,0.0,0.0,0.0,0.0,0.0,0.0,0.0,0.0,0.0,0.0,0.0,0.0,0.0,0.0,0.0,0.0,0.0,0.0,0.0,0.0,0.0,0.0,0.0,0.0,0.0,0.0,0.0,0.0,0.0,0.0,0.0,0.0,0.0,0.0,0.0,0.0,0.0,0.0,0.0,0.0,0.0,0.0,0.0,0.0,0.0,0.0,0.0,0.0,0.0,0.0,0.0,0.0,0.0,0.0,0.0,0.0,-0.3595,-0.239,-0.1043,0.0212,0.131,0.1424,0.1609,0.1882,0.0,0.0,0.0,0.0,0.0,0.0,0.0,0.0,0.0,0.0,0.0,0.0,0.0,0.0,0.0,0.0,0.0,0.0,0.0,0.0,0.0,0.0,0.0,0.0,0.0,0.0,0.0,0.0,0.0,0.0,0.0,0.0,0.0,0.0,0.0,0.0,0.0,0.0,0.0,0.0,0.0,0.0,0.0,0.0,0.0,0.0,0.0,0.0,0.0,0.0,0.0,0.0,0.0,0.0,0.0,0.0,0.0,0.0,0.0,0.0,0.0,0.0,0.0,0.0,0.0,0.0,0.0,0.0,0.0,0.0,0.0,0.0,0.0,0.0,0.0,0.0,0.0,0.0,0.0,0.0,0.0,0.0,0.0,0.0,0.0,0.0,0.0,0.0,0.0,0.0,0.0,0.0,0.0,0.0,0.0,0.0,0.0,0.0,0.0,0.0,0.0,0.0,0.0,-0.4196,-0.3315,-0.2345,-0.1159,-0.0148,0.0834,0.1187,0.1309,0.129,0.0966,0.0,0.0,0.0,0.0,0.0,0.0,0.0,0.0,0.0,0.0,0.0,0.0,0.0,0.0,0.0,0.0,0.0,0.0,0.0,0.0,0.0,0.0,0.0,0.0,0.0,0.0,0.0,0.0,0.0,0.0,0.0,0.0,0.0,0.0,0.0,0.0,0.0,0.0,0.0,0.0,0.0,0.0,0.0,0.0,0.0,0.0,0.0,0.0,0.0,0.0,0.0,0.0,0.0,0.0,0.0,0.0,0.0,0.0,0.0,0.0,0.0,0.0,0.0,0.0,0.0,0.0,0.0,0.0,0.0,0.0,0.0,0.0,0.0,0.0,0.0,0.0,0.0,0.0,0.0,0.0,0.0,0.0,0.0,0.0,0.0,0.0,0.0,0.0,0.0,0.0,0.0,0.0,0.0,0.0,0.0,0.0,0.0,0.0,0.0,0.0,0.0,0.0,-0.4243,-0.3378,-0.239,-0.149,-0.0612,0.0235,0.0691,0.0899,0.0584,0.0071,0.0,0.0,0.0,0.0,0.0,0.0,0.0,0.0,0.0,0.0,0.0,0.0,0.0,0.0,0.0,0.0,0.0,0.0,0.0,0.0,0.0,0.0,0.0,0.0,0.0,0.0,0.0,0.0,0.0,0.0,0.0,0.0,0.0,0.0,0.0,0.0,0.0,0.0,0.0,0.0,0.0,0.0,0.0,0.0,0.0,0.0,0.0,0.0,0.0,0.0,0.0,0.0,0.0,0.0,0.0,0.0,0.0,0.0,0.0,0.0,0.0,0.0,0.0,0.0,0.0,0.0,0.0,0.0,0.0,0.0,0.0,0.0,0.0,0.0,0.0,0.0,0.0,0.0,0.0,0.0,0.0,0.0,0.0,0.0,0.0,0.0,0.0,0.0,0.0,0.0,0.0,0.0,0.0,0.0,0.0,0.0,0.0,0.0,0.0,0.0,0.0,0.0,-0.4967,-0.4077,-0.283,-0.1936,-0.1222,-0.0705,-0.023,0.0,-0.0219,-0.0711,0.0,0.0,0.0,0.0,0.0,0.0,0.0,0.0,0.0,0.0,0.0,0.0,0.0,0.0,0.0,0.0,0.0,0.0,0.0,0.0,0.0,0.0,0.0,0.0,0.0,0.0,0.0,0.0,0.0,0.0,0.0,0.0,0.0,0.0,0.0,0.0,0.0,0.0,0.0,0.0,0.0,0.0,0.0,0.0,0.0,0.0,0.0,0.0,0.0,0.0,0.0,0.0,0.0,0.0,0.0,0.0,0.0,0.0,0.0,0.0,0.0,0.0,0.0,0.0,0.0,0.0,0.0,0.0,0.0,0.0,0.0,0.0,0.0,0.0,0.0,0.0,0.0,0.0,0.0,0.0,0.0,0.0,0.0,0.0,0.0,0.0,0.0,0.0,0.0,0.0,0.0,0.0,0.0,0.0,0.0,0.0,0.0,0.0,0.0,0.0,0.0,0.0,-0.5791,-0.4836,0.0,-0.2741,-0.1941,-0.1411,-0.1246,-0.1303,-0.1644,0.0,0.0,0.0,0.0,0.0,0.0,0.0,0.0,0.0,0.0,0.0,0.0,0.0,0.0,0.0,0.0,0.0,0.0,0.0,0.0,0.0,0.0,0.0,0.0,0.0,0.0,0.0,0.0,0.0,0.0,0.0,0.0,0.0,0.0,0.0,0.0,0.0,0.0,0.0,0.0,0.0,0.0,0.0,0.0,0.0,0.0,0.0,0.0,0.0,0.0,0.0,0.0,0.0,0.0,0.0,0.0,0.0,0.0,0.0,0.0,0.0,0.0,0.0,0.0,0.0,0.0,0.0,0.0,0.0,0.0,0.0,0.0,0.0,0.0,0.0,0.0,0.0,0.0,0.0,0.0,0.0,0.0,0.0,0.0,0.0,0.0,0.0,0.0,0.0,0.0,0.0,0.0,0.0,0.0,0.0,0.0,0.0,0.0,0.0,0.0,0.0,0.0,-0.7606,-0.6672,-0.5706,0.0,-0.3651,-0.2765,-0.2195,-0.2134,-0.2272,-0.2654,0.0,0.0,0.0,0.0,0.0,0.0,0.0,0.0,0.0,0.0,0.0,0.0,0.0,0.0,0.0,0.0,0.0,0.0,0.0,0.0,0.0,0.0,0.0,0.0,0.0,0.0,0.0,0.0,0.0,0.0,0.0,0.0,0.0,0.0,0.0,0.0,0.0,0.0,0.0,0.0,0.0,0.0,0.0,0.0,0.0,0.0,0.0,0.0,0.0,0.0,0.0,0.0,0.0,0.0,0.0,0.0,0.0,0.0,0.0,0.0,0.0,0.0,0.0,0.0,0.0,0.0,0.0,0.0,0.0,0.0,0.0,0.0,0.0,0.0,0.0,0.0,0.0,0.0,0.0,0.0,0.0,0.0,0.0,0.0,0.0,0.0,0.0,0.0,0.0,0.0,0.0,0.0,0.0,0.0,0.0,0.0,0.0,0.0,0.0,0.0,0.0,0.0,-0.8548,-0.7729,-0.6645,-0.5554,-0.4724,-0.3937,-0.3219,-0.2806,-0.271,0.0,0.0,0.0,0.0,0.0,0.0,0.0,0.0,0.0,0.0,0.0,0.0,0.0,0.0,0.0,0.0,0.0,0.0,0.0,0.0,0.0,0.0,0.0,0.0,0.0,0.0,0.0,0.0,0.0,0.0,0.0,0.0,0.0,0.0,0.0,0.0,0.0,0.0,0.0,0.0,0.0,0.0,0.0,0.0,0.0,0.0,0.0,0.0,0.0,0.0,0.0,0.0,0.0,0.0,0.0,0.0,0.0,0.0,0.0,0.0,0.0,0.0,0.0,0.0,0.0,0.0,0.0,0.0,0.0,0.0,0.0,0.0,0.0,0.0,0.0,0.0,0.0,0.0,0.0,0.0,0.0,0.0,0.0,0.0,0.0,0.0,0.0,0.0,0.0,0.0,0.0,0.0,0.0,0.0,0.0,0.0,0.0,0.0,0.0,0.0,0.0,0.0,0.0,-0.9882,-0.8723,-0.7603,-0.6917,-0.5772,-0.4877,-0.4358,-0.3838,-0.3634,-0.3899,0.0,0.0,0.0,0.0,0.0,0.0,0.0,0.0,0.0,0.0,0.0,0.0,0.0,0.0,0.0,0.0,0.0,0.0,0.0,0.0,0.0,0.0,0.0,0.0,0.0,0.0,0.0,0.0,0.0,0.0,0.0,0.0,0.0,0.0,0.0,0.0,0.0,0.0,0.0,0.0,0.0,0.0,0.0,0.0,0.0,0.0,0.0,0.0,0.0,0.0,0.0,0.0,0.0,0.0,0.0,0.0,0.0,0.0,0.0,0.0,0.0,0.0,0.0,0.0,0.0,0.0,0.0,0.0,0.0,0.0,0.0,0.0,0.0,0.0,0.0,0.0,0.0,0.0,0.0,0.0,0.0,0.0,0.0,0.0,0.0,0.0,0.0,0.0,0.0,0.0,0.0,0.0,0.0,0.0,0.0,0.0,0.0,0.0,0.0,0.0,0.0,0.0,-1.0902,-0.9757,-0.8685,-0.7924,-0.6834,-0.5937,-0.5363,-0.4851,-0.4634,-0.4791,0.0,0.0,0.0,0.0,0.0,0.0,0.0,0.0,0.0,0.0,0.0,0.0,0.0,0.0,0.0,0.0,0.0,0.0,0.0,0.0,0.0,0.0,0.0,0.0,0.0,0.0,0.0,0.0,0.0,0.0,0.0,0.0,0.0,0.0,0.0,0.0,0.0,0.0,0.0,0.0,0.0,0.0,0.0,0.0,0.0,0.0,0.0,0.0,0.0,0.0,0.0,0.0,0.0,0.0,0.0,0.0,0.0,0.0,0.0,0.0,0.0,0.0,0.0,0.0,0.0,0.0,0.0,0.0,0.0,0.0,0.0,0.0,0.0,0.0,0.0,0.0,0.0,0.0,0.0,0.0,0.0,0.0,0.0,0.0,0.0,0.0,0.0,0.0,0.0,0.0,0.0,0.0,0.0,0.0,0.0,0.0,0.0,0.0,0.0,0.0,0.0,0.0,-1.1607,-1.0814,-0.9802,-0.8825,-0.7902,-0.703,-0.6319,-0.592,-0.5707,-0.563,0.0,0.0,0.0,0.0,0.0,0.0,0.0,0.0,0.0,0.0,0.0,0.0,0.0,0.0,0.0,0.0,0.0,0.0,0.0,0.0,0.0,0.0,0.0,0.0,0.0,0.0,0.0,0.0,0.0,0.0,0.0,0.0,0.0,0.0,0.0,0.0,0.0,0.0,0.0,0.0,0.0,0.0,0.0,0.0,0.0,0.0,0.0,0.0,0.0,0.0,0.0,0.0,0.0,0.0,0.0,0.0,0.0,0.0,0.0,0.0,-1.2167,0.0,0.0,0.0,0.0,0.0,0.0,0.0,0.0,0.0,0.0,0.0,0.0,0.0,0.0,0.0,0.0,0.0,0.0,0.0,0.0,0.0,0.0,0.0,0.0,0.0,0.0,0.0,0.0,0.0,0.0,0.0,0.0,0.0,0.0,0.0,0.0,0.0,0.0,0.0,0.0,0.0,-1.2251,-1.153,-1.0689,-0.9897,-0.8878,-0.8042,-0.7462,-0.6797,-0.642,-0.6417,-0.6428,0.0,0.0,0.0,0.0,0.0,0.0,0.0,0.0,0.0,0.0,0.0,0.0,0.0,0.0,0.0,0.0,0.0,0.0,0.0,0.0,0.0,0.0,0.0,0.0,0.0,0.0,0.0,0.0,0.0,0.0,0.0,0.0,0.0,0.0,0.0,0.0,0.0,0.0,0.0,0.0,0.0,0.0,0.0,0.0,0.0,0.0,0.0,0.0,0.0,0.0,0.0,0.0,0.0,0.0,0.0,0.0,0.0,0.0,0.0,0.0,-1.3058,0.0,0.0,0.0,0.0,0.0,0.0,0.0,0.0,0.0,0.0,0.0,0.0,0.0,0.0,0.0,0.0,0.0,0.0,0.0,0.0,0.0,0.0,0.0,0.0,0.0,0.0,0.0,0.0,0.0,0.0,0.0,0.0,0.0,0.0,0.0,0.0,0.0,0.0,0.0,0.0,-1.3241,-1.2585,-1.1753,-1.0792,-0.9891,-0.9176,-0.8532,-0.7857,-0.7393,-0.7319,-0.7155,0.0,0.0,0.0,0.0,0.0,0.0,0.0,0.0,0.0,0.0,0.0,0.0,0.0,0.0,0.0,0.0,0.0,0.0,0.0,0.0,0.0,0.0,0.0,0.0,0.0,0.0,0.0,0.0,0.0,0.0,0.0,0.0,0.0,0.0,0.0,0.0,0.0,0.0,0.0,0.0,0.0,0.0,0.0,0.0,0.0,0.0,0.0,0.0,0.0,0.0,0.0,0.0,0.0,-2.0156,-2.0204,-2.0438,-2.0295,-2.0087,-1.975,-1.7206,-1.5858,-1.5334,-1.4189,0.0,0.0,0.0,0.0,0.0,0.0,0.0,0.0,0.0,0.0,0.0,0.0,0.0,0.0,0.0,0.0,0.0,0.0,0.0,0.0,0.0,0.0,0.0,0.0,-1.3155,-1.3134,0.0,0.0,0.0,0.0,0.0,0.0,0.0,0.0,0.0,0.0,0.0,0.0,-1.4295,-1.3579,-1.2782,-1.1778,-1.0925,-1.0219,-0.9589,-0.8815,-0.8388,-0.8203,-0.7979,-0.7971,0.0,0.0,0.0,0.0,0.0,0.0,0.0,0.0,0.0,0.0,0.0,0.0,0.0,0.0,0.0,0.0,0.0,0.0,0.0,0.0,0.0,0.0,0.0,0.0,0.0,0.0,0.0,0.0,0.0,0.0,0.0,0.0,-1.6896,-1.6827,0.0,0.0,0.0,0.0,0.0,0.0,0.0,0.0,0.0,0.0,0.0,0.0,0.0,-2.165,-2.267,-2.2429,-2.2537,-2.2975,-2.2988,-2.2823,-2.2485,-2.2485,-2.2326,-2.2046,-2.1371,0.0,-1.7373,-1.6849,0.0,0.0,0.0,0.0,0.0,0.0,0.0,0.0,0.0,0.0,0.0,0.0,0.0,0.0,0.0,0.0,0.0,0.0,0.0,0.0,0.0,0.0,-1.4728,-1.466,-1.4872,-1.5115,0.0,-1.4303,-1.3838,-1.4666,-1.5158,0.0,0.0,0.0,0.0,0.0,0.0,0.0,-1.486,-1.4228,-1.3467,-1.2751,-1.1781,-1.099,-1.0448,-0.9689,-0.9169,-0.9137,-0.8683,-0.8516,-0.8648,-0.8816,0.0,0.0,0.0,0.0,0.0,0.0,0.0,0.0,0.0,0.0,0.0,0.0,0.0,0.0,0.0,0.0,0.0,0.0,0.0,0.0,0.0,0.0,0.0,0.0,0.0,0.0,0.0,0.0,0.0,-1.7567,-1.7882,-1.8137,-1.8461,-1.8783,0.0,0.0,0.0,0.0,0.0,0.0,0.0,0.0,0.0,-2.3171,-2.346,-2.4007,-2.4838,-2.464,-2.4989,-2.5799,-2.5745,-2.5767,-2.5925,-2.58,-2.5633,-2.5478,-2.5111,-2.407,-2.2395,-2.0003,-1.8785,-1.8453,0.0,0.0,0.0,0.0,-1.6762,-1.6504,-1.6386,-1.6234,0.0,-1.6027,0.0,0.0,0.0,0.0,0.0,0.0,0.0,0.0,0.0,0.0,-1.6088,-1.5836,-1.5952,-1.601,-1.5936,-1.5455,-1.5247,0.0,-1.5864,-1.6046,-1.65,0.0,0.0,0.0,0.0,-1.5807,-1.588,-1.521,-1.4431,-1.3581,-1.2767,-1.198,-1.1402,-1.0549,-0.9995,-1.0066,-0.9356,-0.9135,-0.9384,-0.9418,-0.9449,0.0,0.0,0.0,0.0,0.0,0.0,0.0,0.0,0.0,0.0,0.0,0.0,0.0,0.0,0.0,0.0,0.0,0.0,0.0,0.0,0.0,0.0,0.0,0.0,0.0,0.0,0.0,0.0,-1.8599,-1.9031,-1.9637,-2.004,-2.048,0.0,0.0,0.0,0.0,0.0,0.0,-2.3183,-2.3837,-2.4581,-2.5392,-2.5989,-2.6564,-2.7083,-2.6982,-2.7313,-2.8119,-2.801,-2.8274,-2.8827,-2.8684,-2.8512,-2.8426,-2.8034,-2.7507,-2.6635,-2.3191,-2.1576,-2.1234,-2.0303,-1.9673,-1.9278,-1.8983,-1.8661,-1.8272,-1.8182,-1.8014,-1.7844,-1.772,-1.7709,-1.772,-1.7833,0.0,0.0,0.0,0.0,-1.7916,-1.7904,-1.7836,-1.769,-1.7419,-1.7307,-1.7242,-1.7091,-1.7025,-1.6901,0.0,-1.6579,-1.6785,-1.7222,0.0,0.0,0.0,0.0,-1.6512,-1.6801,-1.6118,-1.5388,-1.4489,-1.3782,-1.3176,-1.2638,-1.1712,-1.1065,-1.0978,-1.0167,-0.9856,-1.0065,-0.999,-1.004,-1.0216,0.0,0.0,0.0,0.0,0.0,0.0,0.0,0.0,0.0,0.0,0.0,0.0,0.0,0.0,0.0,0.0,0.0,0.0,0.0,0.0,0.0,0.0,0.0,0.0,0.0,0.0,0.0,0.0,0.0,-2.1222,-2.1325,0.0,0.0,0.0,0.0,-2.3317,-2.4089,-2.4912,-2.5788,-2.6503,-2.7315,-2.8181,-2.8744,-2.9266,-2.9796,-2.969,-2.9561,-2.949,-2.949,-2.9764,-3.0279,-3.0264,-3.0223,-3.0083,-2.971,-2.9231,-2.8409,-2.6233,-2.4927,-2.4152,-2.3005,-2.2318,-2.191,-2.0945,-2.0363,-2.0017,-1.9925,-1.975,-1.9562,-1.9562,-1.9562,-1.9562,-1.9562,-1.9338,0.0,0.0,-1.9105,-1.9157,-1.9413,-1.9603,-1.9699,-1.9687,-1.9573,-1.9439,-1.9285,-1.9213,-1.8896,0.0,-1.7599,-1.7996,-1.8745,0.0,-1.8816,-1.8689,-1.811,-1.7583,-1.7372,-1.6665,-1.6048,-1.5852,-1.4981,-1.432,-1.4161,-1.3046,-1.2286,-1.2015,-1.1353,-1.0701,-1.0322,-1.047,-1.0605,-1.0627,-1.1021,0.0,0.0,0.0,0.0,0.0,0.0,0.0,0.0,0.0,0.0,0.0,0.0,0.0,0.0,0.0,0.0,0.0,0.0,0.0,0.0,0.0,0.0,0.0,0.0,0.0,0.0,0.0,0.0,-2.2703,-2.2852,0.0,-2.403,-2.4611,-2.503,-2.5213,-2.5986,-2.678,-2.7627,-2.8384,-2.9128,-2.9943,-3.0142,-3.0706,-3.1744,-3.169,-3.2011,-3.2756,-3.2756,-3.2879,-3.305,-3.305,-3.2993,-3.2834,-3.2569,-3.2258,-3.1916,-3.0814,-2.8768,-2.6253,-2.5474,-2.4977,-2.4516,-2.3971,-2.3405,-2.2983,-2.2858,-2.2594,-2.2341,-2.2341,-2.2341,-2.2277,-2.2174,-2.197,-2.1829,-2.1647,-2.1382,-2.1152,-2.1273,-2.1029,-2.0716,-2.0673,-2.0502,-2.0298,-2.0155,-2.0001,-1.9837,-1.9693,-1.931,-1.9069,-1.9301,-1.9287,-1.9238,-1.9286,-1.8797,-1.8425,-1.8504,-1.7851,-1.7215,-1.6921,-1.6097,-1.5355,-1.5026,-1.4225,-1.3452,-1.3099,-1.2563,-1.2048,-1.1625,-1.1619,-1.1519,-1.1365,-1.1758,-1.2104,0.0,0.0,0.0,0.0,0.0,0.0,0.0,0.0,0.0,0.0,0.0,0.0,0.0,0.0,0.0,0.0,0.0,0.0,0.0,0.0,0.0,0.0,0.0,0.0,0.0,0.0,-2.305,-2.425,-2.4475,-2.4972,-2.6059,-2.6657,-2.7119,-2.7411,-2.8186,-2.8903,-2.9516,-3.0237,-3.0992,-3.1769,-3.2021,-3.2646,-3.3646,-3.3662,-3.406,-3.482,-3.482,-3.4945,-3.512,-3.512,-3.5004,-3.496,-3.4693,-3.4392,-3.4074,-3.3577,-3.1792,-2.9309,-2.8399,-2.7653,-2.6952,-2.6327,-2.5639,-2.4911,-2.4589,-2.4394,-2.4198,-2.4198,-2.4132,-2.4054,-2.3947,-2.3737,-2.3537,-2.3361,-2.3073,-2.2799,-2.2982,-2.2648,-2.2313,-2.2415,-2.2239,-2.2029,-2.1882,-2.1723,-2.1659,-2.1918,-2.09,-1.9992,-2.0142,-2.0143,-2.019,-2.0159,-1.9856,-1.9672,-1.954,-1.8935,-1.8327,-1.8081,-1.7239,-1.6572,-1.6328,-1.5513,-1.4734,-1.4286,-1.3653,-1.3158,-1.2808,-1.2713,-1.2551,-1.2466,-1.2788,-1.3085,-1.318,0.0,0.0,0.0,0.0,0.0,0.0,0.0,0.0,0.0,0.0,0.0,0.0,0.0,0.0,0.0,0.0,0.0,0.0,0.0,0.0,0.0,0.0,0.0,-2.44,-2.4348,-2.4802,-2.5925,-2.6184,-2.6551,-2.7256,-2.8154,-2.9027,-2.9859,-3.0663,-3.1189,-3.1469,-3.2185,-3.2969,-3.3742,-3.4498,-3.5118,-3.5641,-3.5641,-3.5602,-3.5466,-3.5466,-3.5814,-3.6463,-3.6306,-3.6248,-3.6248,-3.5879,-3.5388,-3.474,-3.4314,-3.388,-3.344,-3.1647,-3.0263,-2.9156,-2.8075,-2.6867,-2.5638,-2.523,-2.505,-2.505,-2.505,-2.4908,-2.4766,-2.4766,-2.4505,-2.4176,-2.4002,-2.4014,-2.4167,-2.4506,-2.4482,-2.452,-2.5003,-2.4814,-2.4522,-2.4522,-2.4364,-2.4205,-2.4205,-2.2339,-2.0828,-2.1175,-2.1607,-2.181,-2.1301,-2.1491,0.0,-2.0343,-1.9862,-1.9506,-1.9082,-1.8417,-1.8009,-1.8149,-1.6963,-1.6049,-1.5575,-1.4767,-1.416,-1.3689,-1.3689,-1.3773,-1.3948,-1.4289,-1.4461,-1.4408,0.0,0.0,0.0,0.0,0.0,0.0,0.0,0.0,0.0,0.0,0.0,0.0,0.0,0.0,0.0,0.0,0.0,0.0,0.0,0.0,0.0,0.0,-2.5294,-2.4886,-2.5477,-2.6437,-2.7704,-2.7906,-2.8434,-2.9695,-3.0237,-3.0621,-3.0973,-3.2331,-3.3219,-3.3269,-3.4546,-3.5356,-3.5566,-3.5706,-3.6033,-3.6685,-3.6574,-3.6773,-3.7227,-3.7227,-3.7323,-3.7514,-3.7456,-3.7456,-3.7398,-3.7074,-3.6845,-3.6613,-3.6135,-3.5845,-3.5415,-3.301,-3.1632,-3.0932,-3.0322,-2.9509,-2.8635,-2.8226,-2.8088,-2.8088,-2.8088,-2.795,-2.7741,-2.7589,-2.7379,-2.718,-2.685,-2.6662,-2.6578,-2.6332,-2.6028,-2.5803,-2.5812,-2.5615,-2.5383,-2.5205,-2.496,-2.4814,-2.4679,-2.397,-2.3275,-2.2908,-2.2884,-2.2726,-2.2473,-2.2096,0.0,-2.1599,-2.0952,-2.0499,-2.0436,-1.9669,-1.9082,-1.8904,-1.8087,-1.7387,-1.6822,-1.6278,-1.5763,-1.5172,-1.4989,-1.4891,-1.495,-1.5395,-1.5526,0.0,0.0,0.0,0.0,0.0,0.0,0.0,0.0,0.0,0.0,0.0,0.0,0.0,0.0,0.0,0.0,0.0,0.0,0.0,0.0,0.0,0.0,-2.6704,-2.7365,-2.7146,-2.7442,-2.8105,-2.9155,-2.9563,-3.024,-3.1492,-3.2088,-3.2574,-3.3012,-3.4309,-3.5075,-3.5126,-3.5958,-3.6613,-3.6922,-3.6869,-3.7156,-3.7799,-3.7744,-3.8004,-3.8656,-3.8656,-3.876,-3.8975,-3.8932,-3.8889,-3.8873,-3.8619,-3.8499,-3.8347,-3.7744,-3.7266,0.0,0.0,0.0,0.0,0.0,-3.0759,-3.0282,-2.9867,-2.9797,-2.9797,-2.9797,-2.9601,-2.939,-2.9235,-2.8951,-2.8592,-2.8303,-2.8097,-2.7927,-2.7691,-2.7439,-2.7196,-2.7216,-2.703,-2.6796,-2.6628,-2.6301,-2.6064,-2.5916,-2.5688,0.0,-2.4952,-2.4384,-2.384,-2.3514,-2.3185,-2.2988,-2.282,-2.2159,-2.1641,-2.1606,-2.0727,-2.0093,-2.0002,-1.918,0.0,0.0,0.0,-1.6965,-1.6408,-1.6316,0.0,0.0,0.0,-1.6492,-1.6314,0.0,0.0,0.0,-1.6987,-1.6918,0.0,0.0,0.0,0.0,0.0,0.0,0.0,0.0,0.0,0.0,0.0,0.0,0.0,0.0,0.0,0.0,-2.8542,-3.0119,-3.0283,-3.0045,-2.9986,-3.0482,-3.123,-3.2029,-3.2914,-3.3788,-3.467,-3.5507,-3.6277,-3.6754,-3.6858,0.0,0.0,0.0,0.0,-3.8286,-3.8919,-3.8919,-3.924,-3.9821,-3.9821,-4.0089,-4.0556,-4.0409,-4.0349,-4.0305,-4.0184,-4.0,-3.9813,-3.8978,-3.8356,-3.7777,-3.6231,-3.5021,-3.3877,-3.2103,-3.1439,-3.1237,-3.0829,0.0,0.0,-3.0692,-3.0498,-3.0221,-3.0221,-2.9799,-2.9301,-2.9047,-2.8843,-2.868,-2.88,-2.8686,-2.8568,-2.8839,-2.8566,-2.8327,-2.8259,-2.7926,-2.7592,-2.7603,-2.729,-2.7056,-2.6974,-2.5864,-2.4923,-2.449,-2.4524,-2.4464,-2.3988,-2.3388,-2.288,-2.2663,0.0,0.0,-2.1248,-2.0335,-1.9679,-1.9463,-1.8727,-1.8094,-1.7564,-1.7572,-1.7431,-1.715,-1.7424,-1.7417,-1.7301,-1.7922,-1.8341,-1.8526,-1.7553,-1.7175,0.0,0.0,0.0,0.0,0.0,0.0,0.0,0.0,0.0,0.0,0.0,0.0,0.0,0.0,0.0,-2.952,-3.0244,-3.0924,-3.2056,-3.2583,-3.2842,-3.2563,-3.3128,-3.3939,-3.4785,-3.5654,-3.6282,-3.6584,-3.7378,-3.7911,-3.7911,-3.8474,-3.8871,-3.902,-3.8826,-3.9117,-3.9841,-3.9745,-4.005,-4.0729,0.0,0.0,-4.0723,-4.0739,-4.0588,-4.0437,-4.0289,-4.0244,-4.0168,-3.9718,-3.9266,-3.8556,-3.622,-3.5029,-3.4596,-3.3647,-3.3263,-3.3208,-3.2849,-3.2779,-3.2779,-3.2779,-3.2499,-3.2146,-3.2146,-3.1802,0.0,-3.1076,-3.0782,-3.0449,-3.0087,-2.9897,-2.9693,-2.9394,-2.9184,-2.9106,-2.8712,-2.8633,-2.8474,-2.8167,-2.8018,-2.7857,-2.7441,-2.6614,-2.5898,-2.5587,-2.5316,-2.4997,-2.4928,-2.453,-2.4138,-2.4059,-2.3639,-2.3037,-2.2418,-2.1642,-2.1042,-2.0654,-1.982,-1.9217,-1.9036,-1.8949,-1.9012,-1.895,-1.9153,-1.902,-1.8362,-1.891,-1.9033,-1.8732,-1.8795,-1.8742,0.0,0.0,0.0,0.0,0.0,0.0,0.0,0.0,0.0,0.0,0.0,-2.7262,0.0,0.0,-2.9582,-3.0647,-3.1708,-3.2811,-3.3868,-3.4622,-3.4844,-3.4085,-3.4611,-3.5399,-3.6256,-3.7083,-3.7615,-3.7718,-3.8502,-3.897,-3.897,-3.9232,-3.9561,-3.9927,-3.9764,-4.004,-4.0767,-4.071,-4.0976,-4.1658,-4.1658,-4.1737,-4.1857,-4.1857,-4.172,-4.1565,-4.1459,-4.1397,-4.1319,-4.0514,-3.985,-3.9156,-3.7594,-3.6763,-3.6365,-3.5742,-3.5521,-3.5467,-3.5105,-3.4965,-3.4965,-3.4838,-3.4555,-3.4255,-3.4255,-3.3775,-3.3145,-3.2758,-3.2307,-3.1792,-3.1189,-3.0748,-3.0457,-3.0139,-2.9908,-2.9677,-2.9365,-2.9197,-2.9028,-2.8736,-2.8566,-2.8407,-2.8155,-2.7592,-2.7033,-2.6479,-2.6334,-2.614,-2.5936,-2.5742,-2.5527,-2.5219,-2.4792,-2.4336,-2.3857,-2.3093,-2.2446,-2.1701,-2.122,-2.084,-2.0458,-2.0467,-2.0467,-2.0467,-2.057,-2.049,-2.0105,-2.0295,-2.0206,-2.0026,-2.0086,-1.987,0.0,0.0,0.0,0.0,0.0,0.0,0.0,0.0,-2.7386,-2.7961,-2.8772,-2.9306,-2.9306,-3.0499,-3.1503,-3.1655,-3.3304,-3.4835,-3.5547,-3.6316,-3.6508,-3.5833,-3.622,-3.682,-3.7519,-3.8321,-3.879,-3.8908,-3.9445,-3.9848,-3.993,-3.9859,-4.0104,-4.0783,-4.0707,-4.0984,-4.1624,-4.1624,-4.1947,-4.2532,-4.2532,-4.2709,-4.3023,-4.2961,-4.2837,-4.2634,-4.2634,-4.2508,-4.2333,-4.1374,-4.0626,-4.0024,-3.9546,-3.9091,-3.858,-3.7752,-3.7389,-3.7321,-3.6906,-3.6766,-3.6781,-3.6655,-3.6372,-3.6,-3.6,-3.5492,-3.4743,-3.4242,-3.3674,-3.2968,-3.232,-3.1827,-3.1465,-3.1263,-3.0868,-3.0522,-3.02,-2.9917,-2.9633,-2.9378,-2.9118,-2.8961,-2.8961,-2.8645,-2.8134,-2.7346,-2.7368,-2.7334,-2.7094,-2.703,-2.6854,-2.6316,-2.5951,-2.5523,-2.5005,-2.4351,-2.357,-2.255,-2.2528,-2.2411,-2.1909,-2.1918,-2.1918,-2.1918,-2.1918,-2.1883,-2.1804,-2.1687,-2.164,-2.1631,-2.1561,-2.0891,-2.6533,-2.6748,-2.7445,-2.8612,-2.8905,-2.8905,0.0,0.0,-2.904,-2.9143,-3.0216,-3.1189,-3.1189,-3.2451,-3.3697,-3.4362,-3.5215,-3.6068,-3.6791,-3.7558,-3.8274,-3.8836,-3.8667,-3.8505,-3.8639,-3.9529,-4.0069,-3.9952,-4.0037,-4.0273,-4.0826,-4.0718,-4.0963,-4.1533,-4.1549,-4.1843,-4.2386,-4.2402,-4.2767,-4.3436,-4.3436,-4.3426,-4.3328,-4.3174,-4.3007,-4.2837,-4.2696,-4.2508,-4.2381,-4.2221,-4.2013,-4.1741,-4.1417,-4.122,-4.0931,-3.8923,-3.808,-3.7895,-3.7662,-3.7473,-3.7419,-3.7351,-3.706,-3.6781,-3.6781,-3.6286,-3.5624,-3.5552,-3.5026,-3.4355,-3.406,-3.3666,-3.3296,-3.2921,-3.2594,-3.2202,-3.1552,-3.1202,-3.0802,-3.0099,-2.9856,-2.9624,-2.9341,-2.9118,-2.8894,-2.8469,-2.8099,-2.8032,-2.8466,-2.8366,-2.8112,-2.7796,-2.7745,-2.7024,-2.53,-2.4894,-2.4287,-2.307,-2.34,-2.357,-2.335,-2.3368,-2.3368,-2.3368,-2.3368,-2.3185,-2.2838,-2.2793,-2.2774,-2.2774,-2.301,-2.2272,-2.8592,-2.8606,0.0,0.0,-2.9868,-3.0246,-3.0568,-3.0922,-3.1367,-3.1807,-3.2388,-3.2815,-3.2815,-3.3704,-3.466,0.0,-3.6146,-3.7052,-3.8265,-3.8726,-3.9251,-4.0052,-4.0072,-3.9958,-3.9812,-4.015,-4.0387,-4.0337,-4.0729,-4.1053,-4.1222,-4.1488,-4.1971,-4.2562,-4.2428,-4.2682,-4.3298,-4.3164,-4.3313,-4.3628,-4.3628,-4.3509,-4.3372,-4.3174,-4.299,-4.2696,-4.2634,-4.2571,-4.2508,-4.2445,-4.2381,-4.2238,-4.198,-4.1916,-4.1722,-4.0431,-3.9895,-3.976,-3.9594,-3.9458,-3.939,-3.9253,-3.8977,-3.8627,-3.8627,-3.8115,-3.7463,-3.7084,-3.6459,-3.5723,-3.5162,-3.463,-3.4099,-3.3715,-3.3483,-3.3105,-3.2555,-3.2006,-3.1448,-3.1074,-3.0535,-3.0139,-2.9973,-2.9831,-2.9708,-2.9682,-2.9367,-2.9242,-2.9531,-2.9532,-2.9138,-2.8331,-2.7963,-2.7317,-2.6097,-2.5785,-2.5371,-2.4716,-2.4893,-2.4896,-2.4822,-2.4841,-2.4841,-2.4841,-2.4841,-2.4755,-2.4584,-2.4345,-2.4231,-2.4221,-2.4085,-2.3687,-3.0282,0.0,0.0,-3.0698,-3.1219,-3.1839,-3.2283,-3.2741,-3.3252,-3.3854,-3.4146,-3.4283,-3.4283,-3.4902,-3.5641,-3.638,-3.7136,-3.8116,-3.9422,-3.9782,-4.0109,-4.0754,-4.0918,-4.0918,-4.071,-4.068,-4.0631,-4.0631,-4.1268,-4.1681,-4.1733,-4.236,-4.2963,-4.3541,-4.335,-4.3447,-4.3939,-4.3763,-4.3687,-4.3687,-4.3628,-4.3568,-4.3449,-4.3235,-4.2929,-4.2696,-4.2634,-4.2634,-4.2571,-4.2508,-4.2445,-4.2445,-4.2238,-4.2174,-4.2125,-4.1554,-4.137,-4.1303,-4.107,-4.0987,-4.0935,-4.073,-4.0455,-4.0161,-4.0161,-3.9651,-3.8971,-3.8582,-3.7857,-3.7094,-3.6442,-3.5808,-3.528,-3.4821,-3.4576,-3.4302,-3.3699,-3.3078,-3.2435,-3.1992,-3.1343,-3.084,-3.0698,-3.0457,-3.042,-3.0719,-3.0481,-3.0241,-3.0426,-3.0313,-2.9713,-2.86,-2.8019,-2.7464,-2.67,-2.6509,-2.6319,-2.5809,-2.6053,-2.6151,-2.5882,-2.6011,-2.6081,-2.6081,-2.6081,-2.6081,-2.6081,-2.5869,-2.572,-2.57,-2.5401,-2.5192,0.0,0.0,-3.2476,-3.3124,-3.3783,-3.4283,-3.4318,-3.4335,-3.4352,-3.4387,-3.4961,-3.5427,-3.5427,-3.6087,-3.6911,-3.7624,-3.8407,-3.9208,-3.9973,-4.0704,-4.1146,-4.1192,-4.1209,-4.1209,0.0,-4.1123,-4.1047,-4.0888,-4.1481,-4.2071,-4.2638,-4.3282,-4.3922,-4.4451,-4.4316,-4.4236,-4.4097,-4.3956,-4.3898,-4.3898,-4.3687,-4.3628,-4.3552,-4.3235,-4.299,-4.2899,-4.2696,-4.2634,-4.2634,-4.2571,-4.2571,-4.2571,-4.2445,-4.2381,-4.2381,-4.2174,-4.2012,-4.1833,-4.167,-4.1456,-4.1256,-4.1102,-4.095,-4.0799,-4.0799,-4.037,-3.9864,-3.9849,-3.9334,-3.8679,-3.8219,-3.7857,-3.7323,-3.6766,-3.6425,-3.5943,-3.508,-3.4603,-3.4017,-3.2764,-3.2283,-3.1932,-3.1365,-3.0911,-3.0879,-3.1423,-3.1032,-3.0904,-3.1187,-3.0521,-2.9712,-2.8815,-2.8226,-2.7578,-2.6907,-2.702,-2.6734,-2.5868,-2.6605,-2.6928,-2.6465,-2.6898,-2.7136,-2.7136,-2.7136,-2.7136,-2.7136,-2.7115,-2.7115,-2.7115,-2.7105,-2.6867,0.0,0.0,-3.3476,-3.4164,-3.4883,-3.5443,-3.5308,-3.5654,-3.5981,-3.5919,-3.611,-3.6301,-3.6301,-3.6528,-3.7119,-3.8415,-3.8833,-3.9443,-4.0652,-4.1035,-4.1255,-4.1318,-4.1318,0.0,0.0,0.0,0.0,-4.1071,-4.2171,-4.2854,-4.2962,-4.4077,-4.4722,-4.4703,-4.4519,-4.435,-4.4253,-4.4097,-4.3998,-4.3898,-4.3704,-4.3568,-4.3432,-4.3372,-4.3129,-4.2899,-4.2837,-4.2696,-4.2634,-4.2634,-4.2634,-4.2571,-4.2571,-4.2508,-4.2508,-4.2445,-4.2381,-4.2318,-4.2045,-4.1916,-4.1851,-4.1801,-4.1686,-4.1488,-4.139,-4.1055,-4.0646,-4.037,-3.995,-3.9451,-3.8943,-3.8516,-3.8066,-3.7457,-3.7056,-3.6674,-3.6166,-3.5494,-3.474,-3.3873,-3.3095,-3.2426,-3.1837,-3.1447,-3.1422,-3.1667,-3.1376,-3.111,-3.0891,-3.0519,-2.9893,-2.8962,-2.8556,-2.8084,-2.7318,-2.7254,-2.7088,-2.6744,-2.7063,-2.727,-2.7457,-2.7639,-2.7864,-2.8164,-2.8164,-2.8164,-2.8164,-2.8164,-2.8269,-2.8279,-2.8269,-2.8079,0.0,-3.4405,-3.487,-3.5297,-3.5934,-3.6461,-3.6289,-3.6636,-3.6987,-3.6926,-3.6886,-3.6829,-3.6829,-3.6829,-3.7312,-3.8849,-3.9111,-3.9634,-4.1136,-4.1346,-4.1363,-4.1471,-4.1471,-4.1515,0.0,0.0,0.0,-4.1701,-4.2762,-4.345,-4.3577,-4.4664,-4.5177,-4.4923,-4.4686,-4.4592,-4.448,-4.4253,-4.4097,-4.3939,-4.3822,-4.3628,-4.3568,-4.3432,-4.3251,-4.3084,-4.3007,-4.2883,-4.2696,-4.2696,-4.2634,-4.2634,-4.2634,-4.2634,-4.2634,-4.2634,-4.2634,-4.2571,-4.2318,-4.219,-4.2174,-4.2109,-4.2061,-4.1947,-4.1785,-4.1588,-4.1339,-4.1003,-4.0646,-4.0216,-3.9666,-3.9235,-3.887,-3.8202,-3.7749,-3.7443,-3.707,-3.6437,-3.569,-3.4706,-3.4012,-3.3268,-3.2377,-3.195,-3.1803,-3.1863,-3.1539,-3.1217,-3.0842,-3.0634,-3.0098,-2.9063,-2.876,-2.8454,-2.7869,-2.7765,-2.7568,-2.7395,-2.7588,-2.7815,-2.7933,-2.8299,-2.8632,-2.8921,-2.9098,-2.9279,-2.9279,-2.9279,-2.929,-2.9301,-2.929,-2.9279,-3.4389,-3.546,-3.6593,-3.6488,-3.6951,-3.7392,-3.7334,-3.7297,-3.7297,-3.7297,-3.7203,-3.7108,0.0,0.0,-3.7519,-3.9006,-3.9287,-3.9831,-4.1341,-4.1587,-4.1604,0.0,0.0,0.0,0.0,0.0,0.0,-4.2625,0.0,-4.3805,-4.4487,-4.5079,-4.5336,-4.5177,-4.4923,-4.4831,-4.4831,-4.448,-4.4253,-4.4097,-4.3939,-4.3898,-4.3898,-4.3568,-4.3449,-4.3372,-4.3174,-4.3068,-4.2899,-4.2899,-4.2837,-4.2634,-4.2634,-4.2634,-4.2634,-4.2634,-4.2634,-4.2571,-4.2445,-4.2381,-4.2381,-4.2174,-4.2109,-4.2109,-4.2109,-4.2012,-4.1898,-4.1654,-4.1406,-4.0987,-4.0424,-4.0076,-3.9722,-3.9002,-3.8723,-3.8366,-3.7763,-3.7443,-3.6816,-3.5227,-3.4873,-3.4381,-3.2982,-3.2472,-3.2223,-3.2004,-3.1622,-3.1271,-3.0955,-3.0691,-3.0253,-2.9258,-2.8961,-2.8803,-2.859,-2.8578,-2.8327,-2.7891,-2.8374,-2.842,-2.7943,-2.8873,-2.9412,-2.9458,-2.9929,-3.0283,-3.0306,-3.0306,-3.0306,-3.0306,-3.0306,-3.0306,-3.5196,-3.6035,-3.6888,-3.7397,-3.7631,-3.7739,-3.7613,-3.7577,-3.7521,-3.7392,-3.7334,-3.7259,0.0,0.0,0.0,-3.847,-3.9123,0.0,-4.0859,-4.141,0.0,0.0,0.0,-4.1604,-4.1604,-4.1604,0.0,0.0,-4.3593,-4.3951,-4.4605,-4.5199,-4.5459,-4.5194,-4.5123,-4.5032,-4.4923,-4.4631,-4.4406,-4.4253,-4.4097,-4.3998,-4.3898,-4.3822,-4.3645,-4.3372,-4.3372,-4.3235,-4.3052,-4.3052,-4.299,-4.299,-4.299,-4.2945,-4.2837,-4.2837,-4.2696,-4.2571,-4.2571,-4.2571,-4.2571,-4.2508,-4.2492,-4.2429,-4.2381,-4.2318,-4.2206,-4.1882,-4.1752,-4.1554,-4.0987,-4.0715,-4.0439,-3.9793,-3.9307,-3.8885,-3.8575,-3.7825,-3.6965,-3.5941,-3.4768,-3.3748,-3.3043,-3.3221,-3.3394,-3.3055,-3.2833,-3.2278,-3.1083,-3.0829,-3.0458,-2.9934,-2.9831,-2.9677,-2.9406,-2.9406,-2.9263,-2.8803,-2.8937,-2.894,-2.8834,-2.9107,-2.9616,-3.0399,-3.0541,-3.089,-3.1306,-3.1306,-3.1306,-3.1306,-3.1306,-3.1306,-3.6206,-3.693,-3.7591,-3.7893,-3.7967,-3.7933,-3.781,-3.7506,-3.7184,-3.7113,-3.6756,0.0,0.0,0.0,0.0,0.0,0.0,0.0,-4.0624,-4.1114,-4.1495,0.0,-4.1754,0.0,-4.1692,-4.1965,-4.2622,0.0,-4.384,-4.4205,-4.5242,-4.5594,-4.5667,-4.5406,-4.5336,-4.5194,-4.4978,-4.4797,-4.4631,-4.4536,-4.4367,-4.4212,-4.4039,-4.3998,-4.3881,-4.3671,0.0,-4.3509,-4.3295,-4.3251,-4.3174,-4.3113,-4.3113,-4.3052,-4.3007,-4.3007,-4.2945,-4.2805,-4.2805,-4.2805,-4.2805,-4.2759,-4.2696,-4.2696,-4.268,-4.268,-4.268,-4.2397,-4.2286,-4.2061,-4.1654,-4.1406,-4.1138,-4.0578,-4.0161,-3.9737,-3.9364,-3.8483,-3.7472,-3.6195,-3.4929,-3.3894,-3.3563,-3.3931,-3.4197,-3.3848,-3.3864,-3.3547,-3.2608,-3.1589,-3.0911,-3.0672,-3.0533,-3.0444,-3.0266,-3.019,-2.996,-2.9664,-2.9599,-2.9489,-2.9444,-2.9621,-3.0147,-3.1075,-3.132,-3.1712,-3.2264,-3.2264,-3.2264,-3.2264,-3.2264,-3.2176,-3.7143,-3.7857,-3.8382,-3.8168,-3.8135,-3.8083,-3.7859,-3.7266,-3.671,-3.6602,0.0,0.0,-3.6235,0.0,-3.6737,-3.8107,0.0,-3.8982,-4.0512,-4.0772,-4.1144,-4.1899,-4.1884,-4.1841,-4.178,-4.2414,-4.3114,-4.3851,-4.3992,-4.4646,-4.5953,-4.5972,-4.5871,-4.5615,-4.5511,-4.5283,-4.5032,-4.5032,-4.4978,-4.4831,-4.4631,-4.4446,-4.4293,-4.4212,-4.4155,-4.4097,-4.4015,-4.3822,-4.3687,-4.3552,-4.3372,-4.3235,-4.3235,-4.3174,-4.3113,-4.3113,-4.3113,-4.3113,-4.3113,-4.3113,-4.3113,-4.2945,-4.2899,-4.2945,-4.3052,-4.3113,-4.3052,-4.2945,-4.2821,-4.2634,-4.2302,-4.2061,-4.1882,-4.1339,-4.107,-4.0715,-4.0161,-3.9258,-3.806,-3.6283,-3.5274,-3.461,-3.4249,-3.4632,-3.4796,-3.4511,-3.4787,-3.4882,-3.4589,-3.2785,-3.154,-3.154,-3.1325,-3.1136,-3.1136,-3.0924,-3.0761,-3.052,-3.0381,-3.0139,-2.9858,-3.035,-3.088,-3.1435,-3.1991,-3.2546,-3.3101,-3.3164,-3.3202,-3.3202,-3.3129,-3.3043,-3.7316,-3.8034,-3.8596,-3.8401,-3.835,-3.8186,-3.7467,-3.7166,0.0,0.0,0.0,-3.5558,-3.5654,-3.6177,0.0,-3.7003,0.0,0.0,0.0,0.0,-4.1227,0.0,0.0,0.0,0.0,0.0,0.0,0.0,0.0,-4.5242,-4.597,-4.5972,-4.5922,-4.577,-4.5632,-4.5511,-4.5336,-4.523,-4.5086,-4.4978,-4.4923,-4.4742,-4.4446,-4.4446,-4.4293,-4.4097,-4.4114,0.0,-4.4039,-4.3981,-4.3864,-4.3763,-4.3763,-4.3568,-4.3372,-4.3372,-4.3235,-4.3113,-4.3113,-4.3113,-4.3113,-4.3052,-4.3052,-4.3052,-4.3096,-4.3113,-4.3113,-4.3052,-4.3052,-4.299,-4.2821,-4.2634,-4.2381,-4.2045,-4.172,-4.139,-4.0987,-3.9524,-3.7852,-3.6269,-3.5714,-3.5365,-3.4854,-3.5234,-3.5627,-3.5683,-3.5639,-3.5691,-3.5991,-3.4311,-3.2975,-3.2827,-3.2172,-3.1743,-3.1743,-3.1522,-3.1373,-3.1123,-3.1123,-3.0973,-3.0748,-3.0851,-3.1163,-3.1734,-3.2304,-3.2875,-3.3446,-3.3913,-3.4147,-3.4134,-3.3992,-3.3907,-3.7516,-3.8214,-3.8609,-3.8077,-3.7875,-3.7624,-3.6778,0.0,0.0,0.0,0.0,-3.4673,-3.5059,0.0,0.0,0.0,0.0,0.0,0.0,0.0,0.0,0.0,0.0,0.0,0.0,0.0,0.0,0.0,0.0,-4.5932,-4.6105,-4.6023,-4.5972,-4.5922,-4.577,-4.5667,-4.5598,-4.5459,-4.5353,-4.5194,-4.514,-4.4961,-4.4742,-4.4742,-4.4648,-4.444,-4.4367,0.0,-4.4196,-4.4155,-4.4056,-4.3998,-4.3998,-4.3939,-4.3747,-4.3687,-4.3568,-4.3509,-4.3372,-4.3372,-4.3372,-4.3372,-4.3295,-4.3235,-4.3372,-4.3372,-4.3372,-4.3372,-4.3295,-4.3251,-4.3207,-4.3007,-4.2805,-4.2571,-4.2174,-4.169,-4.1146,-3.9859,-3.8492,-3.7311,-3.6676,-3.6165,-3.5574,-3.5917,-3.617,-3.593,-3.6344,-3.6548,-3.6196,-3.5362,-3.443,-3.3684,-3.28,-3.23,-3.23,-3.2155,-3.2009,-3.1909,-3.1776,-3.1703,-3.1556,-3.1556,-3.1835,-3.2408,-3.2701,-3.3287,-3.4193,-3.4473,-3.4766,-3.5059,-3.4895,-3.4743,-3.7448,-3.7998,-3.8188,-3.7445,-3.7191,-3.6863,-3.5999,-3.5294,0.0,0.0,-3.4071,-3.3816,-3.4444,0.0,0.0,0.0,0.0,0.0,0.0,0.0,0.0,0.0,0.0,0.0,0.0,0.0,0.0,0.0,0.0,0.0,-4.6319,-4.6172,-4.6073,-4.6073,-4.5922,-4.5821,-4.5821,-4.5718,-4.5563,-4.5441,-4.5353,-4.5194,-4.5032,-4.5032,-4.4978,-4.4831,-4.4686,0.0,-4.4423,-4.427,-4.4212,-4.4155,-4.4155,-4.4155,-4.4114,-4.3998,-4.3939,-4.3939,-4.3747,-4.3687,-4.3687,-4.3687,-4.3628,-4.3509,-4.3628,-4.3687,-4.3687,-4.3687,-4.3611,-4.3552,-4.3509,-4.3372,-4.3174,-4.3007,-4.2634,-4.2061,-4.1245,-4.045,-3.9534,-3.8449,-3.7698,-3.7077,-3.6289,-3.6462,-3.6532,-3.6104,-3.6733,-3.6994,-3.6302,-3.6042,-3.554,-3.4483,-3.3435,-3.2917,-3.2917,-3.2704,-3.2561,-3.2561,-3.2417,-3.2345,-3.2345,-3.2345,-3.2563,-3.3042,-3.3178,-3.3725,-3.4681,-3.4862,-3.523,-3.568,-3.5575,-3.548,-3.667,-3.6864,-3.6822,-3.6555,-3.6481,-3.6232,-3.5302,0.0,0.0,0.0,-3.3753,-3.3689,-3.3696,-3.4287,0.0,0.0,0.0,0.0,0.0,0.0,0.0,0.0,0.0,0.0,0.0,0.0,0.0,0.0,0.0,0.0,-4.6542,-4.6447,-4.6332,-4.6332,-4.6122,-4.5972,-4.5972,-4.5821,-4.5718,-4.5563,-4.5563,-4.5406,-4.5177,-4.5177,-4.514,-4.4978,-4.4978,0.0,0.0,-4.472,-4.4553,-4.431,-4.431,-4.4212,-4.4097,-4.4114,-4.4097,-4.4097,-4.4039,-4.4039,-4.4039,-4.4039,-4.3939,-4.3839,-4.3898,-4.3939,-4.4039,-4.4039,-4.4039,-4.3998,-4.3898,-4.3687,-4.3492,-4.3174,-4.2945,-4.2626,-4.1878,-4.1423,-4.0681,-3.9214,-3.8715,-3.8144,-3.7015,-3.6739,-3.6706,-3.6804,-3.6655,-3.6603,-3.6946,-3.6197,-3.5594,-3.5467,-3.4295,-3.3536,-3.3536,-3.3353,-3.3199,-3.3199,-3.3199,-3.3199,-3.3199,-3.3199,-3.3227,-3.3283,-3.3786,-3.4136,-3.4262,-3.5141,-3.5634,-3.5703,-3.5864,-3.5951,-3.5923,-3.6391,-3.656,-3.59,-3.5708,-3.5303,-3.388,0.0,0.0,-3.254,-3.2375,-3.2548,-3.3025,-3.3321,-3.379,0.0,0.0,0.0,0.0,0.0,0.0,0.0,0.0,0.0,0.0,0.0,0.0,0.0,0.0,0.0,-4.6806,-4.6637,-4.6542,-4.6542,-4.635,-4.6253,-4.6253,-4.6023,-4.5871,-4.5821,-4.5684,-4.5511,-4.5459,-4.5353,-4.5247,-4.514,-4.514,0.0,0.0,-4.494,-4.4759,-4.4592,-4.4592,-4.4497,-4.44,-4.427,-4.4196,-4.4196,-4.4155,-4.4097,-4.4097,-4.4097,-4.4097,-4.4155,-4.4039,-4.4056,-4.4097,-4.4097,-4.4097,-4.4097,-4.4056,-4.3981,-4.3805,-4.3492,-4.3372,-4.3185,-4.2675,-4.2162,-4.1585,-4.0804,-3.9893,-3.8937,-3.8157,-3.7461,-3.6924,-3.6704,-3.6767,-3.6703,-3.6216,-3.6089,-3.5866,-3.5213,-3.4559,-3.4074,-3.4074,-3.3991,-3.3908,-3.377,-3.377,-3.3785,-3.366,-3.366,-3.366,-3.366,-3.3916,-3.4228,-3.4526,-3.5303,-3.5911,-3.6321,-3.662,-3.6744,-3.4502,-3.4936,-3.5101,-3.44,-3.4149,-3.3776,0.0,0.0,0.0,-3.1605,-3.152,-3.171,-3.2336,-3.2576,-3.3033,-3.4146,0.0,0.0,0.0,0.0,0.0,0.0,0.0,0.0,0.0,0.0,0.0,0.0,0.0,0.0,-4.6266,-4.6315,-4.6436,-4.6637,-4.6542,-4.6429,-4.6381,-4.6204,-4.6073,-4.5972,-4.5821,-4.5684,-4.5581,-4.5528,-4.5371,-4.5247,-4.5247,0.0,0.0,-4.5086,-4.4978,-4.4886,-4.4886,-4.4793,-4.4626,-4.448,-4.4423,-4.4384,-4.427,-4.4286,-4.4286,-4.4286,-4.4327,-4.4367,-4.4327,-4.427,-4.4286,-4.4286,-4.4212,-4.4155,-4.4155,-4.4155,-4.4039,-4.3805,-4.3747,-4.3687,-4.3372,-4.2917,-4.2446,-4.2005,-4.0831,-3.9719,-3.9124,-3.807,-3.7194,-3.6846,-3.6876,-3.6697,-3.5872,-3.6075,-3.6034,-3.5309,-3.5001,-3.4802,-3.4549,-3.4534,-3.4467,-3.4332,-3.4332,-3.4264,-3.4225,-3.4225,-3.4225,-3.4225,-3.4225,-3.4528,-3.5163,-3.5697,-3.6345,-3.6993,-3.7386,-3.761,-3.2103,-3.1995,-3.1905,-3.17,-3.1586,-3.152,0.0,0.0,0.0,-3.1495,-3.1549,-3.1597,-3.1616,-3.2262,-3.2773,-3.2735,-3.3999,0.0,0.0,0.0,0.0,0.0,0.0,0.0,0.0,0.0,0.0,0.0,0.0,0.0,-4.4642,-4.5392,-4.6132,-4.6778,-4.6684,-4.6525,-4.6381,-4.6398,-4.6253,-4.5972,-4.5972,-4.5871,-4.5632,-4.5632,-4.5528,-4.5423,0.0,0.0,0.0,-4.5177,-4.514,-4.4978,-4.4978,-4.494,-4.4776,-4.4793,-4.4737,-4.4587,-4.4587,-4.457,-4.457,-4.457,-4.4587,-4.4626,-4.472,-4.4682,-4.457,-4.457,-4.444,-4.431,-4.431,-4.4196,-4.4097,-4.4097,-4.4097,-4.4056,-4.3898,-4.3763,-4.3337,-4.2475,-4.1491,-4.0495,-3.9664,-3.8456,-3.7642,-3.7417,-3.6907,-3.6492,-3.6492,-3.6178,-3.5988,-3.5973,-3.5973,-3.5718,-3.4935,-3.4868,-3.4868,-3.4868,-3.4868,-3.4868,-3.4868,-3.4868,-3.4868,-3.4868,-3.4868,-3.5244,-3.5908,-3.6362,-3.695,-3.7579,-3.7986,-3.8277,-3.1071,-3.1507,-3.1782,-3.1621,-3.1549,-3.1335,-3.0729,0.0,-3.0549,-3.0042,-2.9976,-3.0206,-3.0806,-3.1098,-3.157,-3.2662,-3.3165,0.0,0.0,0.0,0.0,0.0,0.0,0.0,0.0,0.0,0.0,0.0,0.0,0.0,-4.4589,-4.4856,-4.5312,-4.6096,-4.6511,-4.6749,-4.6684,-4.6495,-4.635,-4.6253,-4.6073,-4.5972,-4.5871,-4.577,-4.5667,0.0,0.0,0.0,-4.5371,-4.5371,-4.5247,-4.514,-4.514,-4.5032,-4.494,-4.494,-4.494,-4.4886,-4.4886,-4.4886,-4.4886,-4.4886,-4.4886,-4.4886,-4.4923,-4.4831,-4.4737,-4.4831,-4.4776,-4.4648,-4.4648,-4.4553,-4.44,-4.4253,-4.4253,-4.4196,-4.4056,-4.3939,-4.3697,-4.3464,-4.2113,-4.0901,-4.0456,-3.9053,-3.7828,-3.7476,-3.7178,-3.6892,-3.6662,-3.6538,-3.6414,-3.6367,-3.6367,-3.6163,-3.5703,-3.5638,-3.5574,-3.5444,-3.5444,-3.5365,-3.5219,-3.5219,-3.5508,-3.5985,-3.5985,-3.6313,-3.6969,-3.7555,-3.8225,-3.9023,-3.926,-3.9406,0.0,-2.9656,-2.9879,-2.9787,-2.9701,0.0,0.0,0.0,-2.8894,-2.8772,-2.8799,-2.9103,-2.9981,-3.0368,-3.0954,-3.2228,-3.2619,0.0,0.0,0.0,0.0,0.0,0.0,0.0,0.0,0.0,0.0,0.0,0.0,0.0,-4.3714,-4.4036,-4.4428,-4.4928,-4.5891,-4.6539,-4.6795,-4.6637,-4.6495,-4.6381,-4.6253,-4.6122,-4.5972,-4.5922,-4.577,0.0,0.0,-4.5632,0.0,-4.5476,-4.5423,-4.53,-4.53,-4.5194,-4.5086,-4.5086,-4.5032,-4.4978,-4.4978,-4.4978,-4.4978,-4.4978,-4.5032,-4.5086,-4.5086,-4.4978,-4.4886,-4.4995,-4.4923,-4.4886,-4.4886,-4.4793,-4.4609,-4.4536,-4.4423,-4.4384,-4.4212,-4.4097,-4.3998,-4.3898,-4.251,-4.1214,-4.0925,-3.9372,-3.8075,-3.7727,-3.7476,-3.7178,-3.7013,-3.6907,-3.68,-3.6693,-3.6677,-3.6616,-3.6429,-3.6241,-3.6163,-3.6022,-3.6022,-3.5958,-3.58,-3.5816,-3.6133,-3.6864,-3.6879,-3.7349,-3.8409,-3.9047,-3.9649,-4.0216,-4.0324,-4.0462,0.0,0.0,0.0,0.0,0.0,0.0,0.0,0.0,0.0,-2.7738,-2.8007,-2.8366,-2.9165,-2.9983,-3.0779,-3.1584,-3.2321,0.0,0.0,0.0,0.0,0.0,0.0,0.0,0.0,0.0,0.0,0.0,0.0,0.0,-4.2287,-4.3019,-4.3447,-4.3518,-4.4892,-4.5971,-4.6664,-4.6635,-4.6524,-4.6288,-4.6275,-4.6165,-4.5953,-4.6005,-4.5922,0.0,-4.5821,-4.5718,-4.5615,-4.5615,-4.5528,-4.5423,-4.5423,-4.53,-4.523,-4.523,-4.514,-4.5032,-4.5032,-4.5032,-4.5032,-4.5032,-4.514,-4.523,-4.523,-4.514,-4.5032,-4.5032,-4.5032,-4.5032,-4.5032,-4.4923,-4.4831,-4.4831,-4.4737,-4.457,-4.4367,-4.431,-4.4196,-4.3939,-4.2601,-4.1418,-4.1041,-3.9561,-3.8391,-3.8221,-3.7786,-3.7417,-3.7417,-3.7225,-3.706,-3.706,-3.706,-3.706,-3.706,-3.6739,-3.6554,-3.6554,-3.6554,-3.6554,-3.6554,-3.6554,-3.6877,-3.7635,-3.7743,-3.8487,-3.9987,-4.0712,-4.1044,-4.1064,-4.1229,-4.1412,-2.3709,0.0,-2.6659,-2.6698,0.0,0.0,0.0,0.0,0.0,0.0,0.0,0.0,0.0,-2.9109,0.0,0.0,0.0,0.0,0.0,0.0,0.0,0.0,0.0,0.0,0.0,0.0,0.0,0.0,0.0,-4.2405,-4.2287,-4.2465,-4.2858,-4.35,-4.3857,-4.4367,-4.5116,-4.5081,-4.4991,-4.4946,-4.5364,-4.5505,-4.5492,-4.5958,-4.6073,-4.5972,-4.5972,-4.5871,-4.577,-4.577,-4.5667,-4.5563,-4.5563,-4.5476,-4.5371,-4.5371,-4.5318,-4.5318,-4.5318,-4.5318,-4.5318,-4.5318,-4.5318,-4.5371,-4.5371,-4.5318,-4.5318,-4.5318,-4.5247,-4.5123,-4.5123,-4.5032,-4.4923,-4.4923,-4.4831,-4.472,-4.472,-4.448,-4.4253,-4.4114,-4.2739,-4.1554,-4.1198,-3.9698,-3.8488,-3.8391,-3.8049,-3.7801,-3.7801,-3.7759,-3.77,-3.77,-3.77,-3.7743,-3.7828,-3.7373,-3.7013,-3.7013,-3.7118,-3.7178,-3.7178,-3.7178,-3.7759,-3.9047,-4.0213,-4.1037,-4.1531,-4.1885,-4.1821,-4.1403,-4.1512,-4.1407,-2.2647,-2.3896,-2.4977,-2.5362,-2.5434,-2.5413,0.0,0.0,0.0,0.0,0.0,0.0,0.0,0.0,0.0,0.0,0.0,0.0,0.0,0.0,0.0,0.0,0.0,0.0,0.0,0.0,0.0,0.0,0.0,-4.2445,-4.2287,-4.2287,-4.2483,-4.2947,-4.2947,-4.3483,-4.4607,-4.4555,-4.4529,-4.4503,-4.4794,-4.4898,-4.4869,-4.5535,-4.5791,-4.5681,-4.6014,-4.6073,-4.5871,-4.5871,-4.5821,-4.5667,-4.5667,-4.5632,-4.5476,-4.5476,-4.5476,-4.5423,-4.5423,-4.5423,-4.5423,-4.5423,-4.5423,-4.5423,-4.5423,-4.5423,-4.5423,-4.5423,-4.5371,-4.53,-4.53,-4.5194,-4.5086,-4.5086,-4.4978,-4.4886,-4.4831,-4.4665,-4.448,-4.427,-4.2948,-4.1777,-4.1385,-3.9995,-3.886,-3.86,-3.8375,-3.8205,-3.8205,-3.8148,-3.8107,-3.8107,-3.8205,-3.8246,-3.8343,-3.8157,-3.7943,-3.7727,-3.7844,-3.7844,-3.7844,-3.7844,-3.8414,-3.9546,-4.0788,-4.1536,-4.1736,-4.1934,-4.1917,-4.1658,-4.17,-4.1601,-2.2246,-2.2648,-2.2867,-2.3759,-2.4054,-2.4074,0.0,0.0,0.0,0.0,0.0,0.0,0.0,0.0,0.0,0.0,0.0,0.0,0.0,0.0,0.0,0.0,0.0,0.0,0.0,0.0,0.0,0.0,0.0,-4.2445,-4.2346,-4.2328,-4.2287,-4.2287,-4.2287,-4.2929,-4.425,-4.4268,-4.4242,-4.4191,-4.4272,-4.4281,-4.4165,-4.4908,-4.5287,-4.537,0.0,0.0,-4.6073,-4.6073,-4.5972,-4.5821,-4.5821,-4.5718,-4.5632,-4.5632,-4.5528,-4.5423,-4.5423,-4.5423,-4.5423,-4.5423,-4.5423,-4.5423,-4.5423,-4.5423,-4.5423,-4.5423,-4.5423,-4.5423,-4.5423,-4.5318,-4.523,-4.523,-4.514,-4.4978,-4.4886,-4.4831,-4.4686,-4.4271,-4.3086,-4.1963,-4.1494,-4.0237,-3.9218,-3.8969,-3.8788,-3.8678,-3.8678,-3.86,-3.8544,-3.8544,-3.8639,-3.8733,-3.8788,-3.9023,-3.8969,-3.8655,-3.8544,-3.8544,-3.8544,-3.8658,-3.9039,-3.9797,-4.0786,-4.1319,-4.1488,-4.1688,-4.1749,-4.1812,-4.1812,-4.1853,-2.1186,-2.1583,-2.1945,-2.3591,-2.3976,-2.3976,0.0,0.0,0.0,0.0,0.0,0.0,0.0,0.0,0.0,0.0,0.0,0.0,0.0,0.0,0.0,0.0,0.0,0.0,0.0,0.0,0.0,0.0,0.0,-4.2548,-4.2445,-4.2346,-4.2287,-4.2287,-4.2287,-4.2394,-4.2644,-4.2644,-4.2644,-4.2662,-4.323,-4.3464,-4.35,-4.4174,-4.482,-4.5375,0.0,-4.5876,-4.635,-4.635,-4.6204,-4.5972,-4.5972,-4.5871,-4.5787,-4.5632,-4.5581,-4.5563,-4.5423,-4.5423,-4.5423,-4.5423,-4.5423,-4.5423,-4.5423,-4.5423,-4.5423,-4.5423,-4.5423,-4.5423,-4.5423,-4.5371,-4.5371,-4.5371,-4.5247,-4.5177,-4.5123,-4.5032,-4.4681,-4.3707,-4.2824,-4.1994,-4.1067,-4.0104,-3.9432,-3.9379,-3.9239,-3.9098,-3.9098,-3.9098,-3.9098,-3.9222,-3.9259,-3.9382,-3.9677,-3.9729,-3.9781,-3.9816,-3.9382,-3.9115,-3.9222,-3.9873,-4.0363,-4.0679,-4.156,-4.2092,-4.2236,-4.2359,-4.2244,-4.1883,-4.1883,-4.1638,-2.0962,-2.161,-2.2242,-2.3521,-2.3834,-2.3876,-2.3976,0.0,0.0,0.0,0.0,0.0,0.0,0.0,0.0,0.0,0.0,0.0,0.0,0.0,0.0,0.0,0.0,0.0,0.0,0.0,0.0,0.0,0.0,0.0,-4.2503,-4.2445,-4.2387,-4.2287,-4.2287,-4.2287,-4.2287,-4.2287,-4.2287,-4.2287,-4.262,-4.2757,-4.2792,-4.3551,-4.3997,-4.4325,0.0,-4.5663,-4.5894,-4.627,-4.635,-4.6204,-4.6122,-4.6023,-4.5871,-4.5684,-4.5563,-4.5476,-4.5423,-4.5423,-4.5423,-4.5423,-4.5423,-4.5423,-4.5423,-4.5423,-4.5423,-4.5423,-4.5423,-4.5423,-4.5423,-4.5423,-4.5423,-4.5423,-4.5371,-4.53,-4.5247,-4.4814,-4.4331,-4.3776,-4.2702,-4.1749,-4.1202,-4.0475,-3.9901,-3.9849,-3.9764,-3.9696,-3.9816,-3.9799,-3.985,-3.9919,-4.002,-4.0137,-4.0254,-4.037,-4.0387,-4.0238,-3.9969,-3.9833,-3.9919,-4.0358,-4.0646,-4.083,-4.1338,-4.1658,-4.1836,-4.1998,-4.1968,-4.1789,-4.188,-4.1688,-2.1167,-2.1903,-2.2625,-2.3458,0.0,-2.385,-2.4112,0.0,0.0,0.0,0.0,0.0,0.0,0.0,0.0,0.0,0.0,0.0,0.0,0.0,0.0,0.0,0.0,0.0,0.0,0.0,0.0,0.0,0.0,0.0,-4.2526,-4.2503,-4.2445,-4.2287,-4.2287,-4.2287,-4.2287,-4.2287,-4.2287,-4.2287,-4.2287,-4.2287,-4.2305,-4.2947,-4.328,-4.3383,-4.4618,-4.5133,-4.5255,-4.5747,-4.59,-4.5852,-4.5725,-4.5597,-4.5431,-4.518,-4.5044,-4.4906,-4.5096,-4.5147,-4.5182,-4.5354,-4.5423,-4.5423,-4.5423,-4.5423,-4.5423,-4.5423,-4.5423,-4.5423,-4.5423,-4.5423,-4.5423,-4.5423,-4.5423,-4.5372,-4.5077,-4.4647,-4.4079,-4.358,-4.2569,-4.1662,-4.1323,-4.0812,-4.0387,-4.032,-4.032,-4.037,-4.0468,-4.0534,-4.0549,-4.0611,-4.0707,-4.0802,-4.0849,-4.1024,-4.1041,-4.0758,-4.0566,-4.0549,-4.0642,-4.0754,-4.0913,-4.1036,-4.1192,-4.1346,-4.1552,-4.1701,-4.1831,-4.1924,-4.2026,-4.2026,-2.1718,-2.2167,-2.2438,-2.3388,0.0,0.0,-2.4755,0.0,0.0,0.0,0.0,0.0,0.0,0.0,0.0,0.0,0.0,0.0,0.0,0.0,0.0,0.0,0.0,0.0,0.0,0.0,0.0,0.0,0.0,0.0,-4.2609,-4.2526,-4.2445,-4.2287,-4.2287,-4.2287,-4.2287,-4.2287,-4.2287,-4.2287,-4.2287,-4.2287,-4.2287,-4.2341,-4.2787,-4.3476,-4.3583,-4.4003,-4.4592,-4.46,-4.4483,-4.4283,-4.4237,-4.4079,-4.3873,-4.368,-4.3583,-4.3539,-4.4164,-4.4354,-4.4475,-4.5199,-4.5423,-4.5423,-4.5423,-4.5423,-4.5423,-4.5423,-4.5423,-4.5423,-4.5423,-4.5423,-4.5423,-4.5423,-4.5476,-4.539,-4.4698,-4.4609,-4.419,-4.2604,-4.2241,-4.1881,-4.1078,-4.0875,-4.0871,-4.0931,-4.0931,-4.0977,-4.1117,-4.1163,-4.1192,-4.1328,-4.1346,-4.1418,-4.1622,-4.1753,-4.1856,-4.1959,-4.1418,-4.1192,-4.1328,-4.1453,-4.1569,-4.1604,-4.1874,-4.2019,-4.2061,-4.2234,-4.2414,-4.253,-4.257,-4.2552,-2.1905,-2.2589,-2.3209,-2.4075,0.0,0.0,0.0,0.0,0.0,0.0,0.0,0.0,0.0,0.0,0.0,0.0,0.0,0.0,0.0,0.0,0.0,0.0,0.0,0.0,0.0,0.0,0.0,0.0,0.0,0.0,-4.2609,-4.2588,-4.2468,-4.2287,-4.2287,-4.2287,-4.2287,-4.2287,-4.2287,-4.2287,-4.2287,-4.2287,-4.2287,-4.2287,-4.2465,-4.2769,-4.3286,-4.3636,-4.3914,-4.4307,-4.4458,-4.4324,-4.417,-4.3921,-4.3698,-4.365,-4.3475,-4.3314,-4.3608,-4.3679,-4.363,-4.3923,-4.4027,-4.4027,-4.4027,-4.406,-4.4197,-4.4681,-4.4922,-4.5043,-4.5407,-4.5528,-4.5528,-4.5632,-4.532,-4.4954,-4.4659,-4.3976,-4.3219,-4.2579,-4.212,-4.173,-4.1387,-4.1335,-4.1363,-4.1418,-4.1445,-4.1507,-4.1744,-4.1744,-4.1831,-4.2008,-4.211,-4.2169,-4.2251,-4.2338,-4.2418,-4.2476,-4.2026,-4.1831,-4.1959,-4.2044,-4.2151,-4.2251,-4.2396,-4.2516,-4.2613,-4.2747,-4.2842,-4.2899,-4.2956,-4.2956,-2.2296,-2.3016,-2.3672,0.0,0.0,0.0,0.0,0.0,0.0,0.0,0.0,0.0,0.0,0.0,0.0,0.0,0.0,0.0,0.0,0.0,0.0,0.0,0.0,0.0,0.0,0.0,0.0,0.0,0.0,0.0,0.0,-4.2609,-4.253,-4.2387,-4.2328,-4.2287,-4.2287,-4.2287,-4.2287,-4.2287,-4.2287,-4.2287,-4.2287,-4.2287,-4.2287,-4.2323,-4.2876,-4.3126,-4.3161,-4.3629,-4.3756,-4.3687,-4.3474,-4.323,-4.3028,-4.2981,-4.284,-4.2732,-4.2926,-4.2982,-4.3002,-4.3227,-4.3296,-4.3296,-4.3296,-4.3346,-4.3481,-4.4002,-4.4275,-4.4463,-4.4918,-4.5197,-4.5251,-4.5109,-4.4756,-4.437,-4.4108,-4.3395,-4.271,-4.2464,-4.2062,-4.178,-4.1805,-4.1849,-4.1874,-4.1984,-4.2008,-4.2092,-4.2333,-4.2374,-4.2436,-4.2634,-4.2768,-4.2806,-4.2806,-4.2902,-4.2939,-4.2939,-4.2673,-4.2534,-4.2512,-4.2613,-4.2729,-4.2806,-4.292,-4.2995,-4.3087,-4.3214,-4.3251,-4.3251,-4.3304,-4.3268,-2.2957,-2.3407,0.0,0.0,0.0,0.0,0.0,0.0,0.0,0.0,0.0,0.0,0.0,0.0,0.0,0.0,0.0,0.0,0.0,0.0,0.0,0.0,0.0,0.0,0.0,0.0,0.0,0.0,0.0,0.0,0.0,-4.2649,-4.257,-4.2503,-4.2387,-4.2287,-4.2287,-4.2287,-4.2287,-4.2287,-4.2287,-4.2287,-4.2287,-4.2287,-4.2287,-4.2287,-4.2287,-4.2287,-4.2287,-4.2287,-4.2181,-4.2005,-4.1841,-4.1736,-4.1604,-4.1471,-4.138,-4.1485,-4.2161,-4.2392,-4.2514,-4.3245,-4.3489,-4.3489,-4.3489,-4.3489,-4.3489,-4.3506,-4.3506,-4.3554,-4.3828,-4.431,-4.4498,-4.3698,-4.3715,-4.3647,-4.2858,-4.2908,-4.2916,-4.2203,-4.2103,-4.2145,-4.2287,-4.2374,-4.2436,-4.2609,-4.2652,-4.275,-4.2882,-4.2957,-4.3069,-4.3196,-4.325,-4.3303,-4.3303,-4.3444,-4.3479,-4.3479,-4.3479,-4.3375,-4.3032,-4.3123,-4.3232,-4.3303,-4.3444,-4.3479,-4.3479,-4.3563,-4.3579,-4.3579,-4.3579,-4.3563,-2.3111,0.0,0.0,0.0,0.0,0.0,0.0,0.0,0.0,0.0,0.0,0.0,0.0,0.0,0.0,0.0,0.0,0.0,0.0,0.0,0.0,0.0,0.0,0.0,0.0,0.0,0.0,0.0,0.0,0.0,0.0,-4.1609,-4.1839,-4.1662,-4.2159,-4.2405,-4.2287,-4.2287,-4.2287,-4.2287,-4.2287,-4.2287,-4.2287,-4.2287,-4.2287,-4.2287,-4.2287,-4.2287,-4.2287,-4.2287,-4.2205,-4.2037,-4.197,-4.1841,-4.1736,-4.1604,-4.1471,-4.1415,-4.1642,-4.1621,-4.1592,-4.1818,-4.1888,-4.1888,-4.1888,-4.1998,-4.2258,-4.2835,-4.3096,-4.3215,-4.3323,-4.3454,-4.3656,-4.399,-4.3684,-4.3315,-4.3129,-4.2807,-4.2472,-4.2346,-4.2472,-4.2627,-4.2667,-4.2709,-4.2806,-4.2975,-4.305,-4.3142,-4.3373,-4.3529,-4.3649,-4.3701,-4.373,-4.3795,-4.3795,-4.3828,-4.3846,-4.3846,-4.3846,-4.3697,-4.3375,-4.3426,-4.3511,-4.3579,-4.3716,-4.3781,-4.3846,-4.386,-4.3878,-4.3814,-4.3814,-4.3767,-2.3422,0.0,0.0,0.0,0.0,0.0,0.0,0.0,0.0,0.0,0.0,0.0,0.0,0.0,0.0,0.0,0.0,0.0,0.0,0.0,0.0,0.0,0.0,0.0,0.0,0.0,0.0,0.0,0.0,0.0,0.0,-4.0908,-4.1067,-4.0953,-4.136,-4.1658,-4.1922,-4.1864,-4.1966,-4.2287,-4.2287,-4.2287,-4.2287,-4.2287,-4.2287,-4.2287,-4.2287,-4.2287,-4.2287,-4.2287,-4.2246,-4.2121,-4.2055,-4.1927,-4.178,-4.1692,-4.1604,-4.1471,-4.1471,-4.1408,-4.1363,-4.1363,-4.1391,-4.1453,-4.1453,-4.1604,-4.1859,-4.2353,-4.2591,-4.2729,-4.2772,-4.2814,-4.2921,-4.3332,-4.3083,-4.2814,-4.2917,-4.2708,-4.253,-4.2591,-4.2765,-4.2936,-4.2994,-4.3087,-4.3178,-4.3356,-4.3495,-4.3612,-4.3791,-4.3968,-4.4079,-4.4147,-4.4158,-4.4188,-4.4188,-4.4188,-4.4188,-4.4188,-4.4188,-4.4097,-4.391,-4.3809,-4.3841,-4.3942,-4.4023,-4.4085,-4.4116,-4.4116,-4.4085,-4.4055,-4.4055,-4.4178,0.0,0.0,0.0,0.0,0.0,0.0,0.0,0.0,0.0,0.0,0.0,0.0,0.0,0.0,0.0,0.0,0.0,0.0,0.0,0.0,0.0,0.0,0.0,0.0,0.0,0.0,0.0,0.0,0.0,0.0,-4.0504,-4.0366,-4.0311,-4.0311,-4.0199,-4.0462,-4.1196,-4.1082,-4.1399,-4.2114,-4.2114,-4.2114,-4.2114,-4.2216,-4.2287,-4.2287,-4.2287,-4.2287,-4.2287,-4.2287,-4.2246,-4.2103,-4.2103,-4.1995,-4.1823,-4.1823,-4.1736,-4.1648,-4.1648,-4.1648,-4.1648,-4.1648,-4.1692,-4.1841,-4.1841,-4.1945,-4.2048,-4.2048,-4.2097,-4.2187,-4.2287,-4.2391,-4.2391,-4.2228,-4.2269,-4.2369,-4.2432,-4.2649,-4.286,-4.2938,-4.3031,-4.3196,-4.3303,-4.3444,-4.3582,-4.3712,-4.3968,-4.4151,-4.424,-4.4308,-4.4412,-4.4524,-4.4542,-4.4542,-4.4542,-4.4542,-4.4542,-4.4542,-4.4524,-4.4515,-4.4515,-4.4258,-4.4218,-4.4314,-4.4314,-4.4344,-4.4344,-4.4418,-4.4427,-4.4427,-4.4501,-4.4822,0.0,0.0,0.0,0.0,0.0,0.0,0.0,0.0,0.0,0.0,0.0,0.0,0.0,0.0,0.0,0.0,0.0,0.0,0.0,0.0,0.0,0.0,0.0,0.0,0.0,0.0,0.0,0.0,0.0,0.0,-3.8911,-3.9415,-3.9657,-3.9551,-4.004,-4.0381,-4.045,-4.0394,-4.0484,-4.0646,-4.0646,-4.0625,-4.062,-4.1774,-4.2287,-4.2287,-4.2287,-4.2287,-4.2287,-4.2287,-4.2287,-4.2246,-4.2145,-4.2061,-4.2037,-4.1987,-4.1945,-4.1902,-4.1902,-4.1902,-4.1902,-4.1902,-4.1945,-4.1945,-4.1945,-4.2115,-4.2264,-4.2264,-4.2369,-4.249,-4.253,-4.2609,-4.2727,-4.2747,-4.2727,-4.2688,-4.2786,-4.2918,-4.3086,-4.3178,-4.3339,-4.3444,-4.3579,-4.3749,-4.3878,-4.4042,-4.4317,-4.4505,-4.4587,-4.4648,-4.47,-4.4815,-4.4796,-4.4796,-4.4796,-4.4764,-4.4738,-4.4738,-4.4685,-4.4659,-4.4659,-4.4496,-4.444,-4.4524,-4.4524,-4.4551,-4.4632,-4.5218,-4.5435,-4.5396,-4.6049,-4.6364,0.0,0.0,0.0,0.0,0.0,0.0,0.0,0.0,0.0,0.0,0.0,0.0,0.0,0.0,0.0,0.0,0.0,0.0,0.0,0.0,0.0,0.0,0.0,0.0,0.0,0.0,0.0,0.0,0.0,-3.8621,-3.8546,-3.8853,-3.8955,-3.887,-3.9222,-3.9516,-3.9788,-3.9734,-3.9895,-4.0218,-4.0218,-4.0181,-4.0159,-4.0849,-4.1359,-4.1716,-4.1716,-4.193,-4.2287,-4.2287,-4.2287,-4.2287,-4.2228,-4.2163,-4.2121,-4.2055,-4.203,-4.2005,-4.2005,-4.2005,-4.2005,-4.203,-4.2097,-4.2139,-4.2181,-4.2287,-4.245,-4.253,-4.2649,-4.2747,-4.2804,-4.2936,-4.2994,-4.305,-4.2994,-4.2974,-4.3013,-4.3178,-4.3322,-4.3356,-4.3548,-4.3716,-4.3828,-4.4036,-4.4248,-4.4412,-4.4595,-4.4789,-4.484,-4.4895,-4.4943,-4.4991,-4.501,-4.501,-4.501,-4.4943,-4.4943,-4.4943,-4.4895,-4.4895,-4.4895,-4.4821,-4.4745,-4.4659,-4.5055,-4.5308,-4.5315,-4.61,-4.644,-4.6431,-4.6815,-4.7151,0.0,0.0,0.0,0.0,0.0,0.0,0.0,0.0,0.0,0.0,0.0,0.0,0.0,0.0,0.0,0.0,0.0,0.0,0.0,0.0,0.0,0.0,0.0,0.0,0.0,0.0,0.0,0.0,0.0,-3.8822,-3.875,-3.8621,-3.8541,-3.8478,-3.8368,-3.8598,-3.9166,-3.9099,-3.9319,-3.9878,-3.9878,-3.9878,-3.9896,-3.9693,-4.0098,-4.0935,-4.0935,-4.1381,-4.2154,-4.2154,-4.2203,-4.2328,-4.2328,-4.2246,-4.2145,-4.2163,-4.2139,-4.209,-4.209,-4.2115,-4.2115,-4.2163,-4.2269,-4.2369,-4.2432,-4.2552,-4.2688,-4.2822,-4.288,-4.2975,-4.3086,-4.3178,-4.3232,-4.3232,-4.3233,-4.3233,-4.3251,-4.3428,-4.3566,-4.3582,-4.3814,-4.4023,-4.4097,-4.4364,-4.4605,-4.4719,-4.4865,-4.4943,-4.5038,-4.5103,-4.5148,-4.5148,-4.5148,-4.5148,-4.5148,-4.5125,-4.5125,-4.5125,-4.5103,-4.5103,-4.5103,-4.5236,-4.5219,-4.4997,-4.5696,-4.6131,-4.6282,-4.7068,-4.7464,-4.7464,-4.7532,-4.788,0.0,0.0,0.0,0.0,0.0,0.0,0.0,0.0,0.0,0.0,0.0,0.0,0.0,0.0,0.0,0.0,0.0,0.0,0.0,0.0,0.0,0.0,0.0,0.0,0.0,0.0,0.0,0.0,-3.9183,-3.9073,-3.8968,-3.8892,-3.8822,-3.8762,-3.8572,-3.8533,-3.8593,-3.8547,-3.8536,-3.8645,-3.8564,-3.8549,-3.8549,-3.8411,-3.9067,-4.0342,-4.0342,-4.0791,-4.1528,-4.1528,-4.188,-4.2463,-4.2463,-4.2405,-4.2287,-4.2405,-4.2422,-4.2463,-4.2508,-4.253,-4.253,-4.253,-4.257,-4.257,-4.2706,-4.2804,-4.29,-4.3012,-4.3123,-4.316,-4.3178,-4.3304,-4.3463,-4.3463,-4.3584,-4.3652,-4.3497,-4.3618,-4.3786,-4.391,-4.4207,-4.444,-4.4524,-4.4693,-4.487,-4.4943,-4.5014,-4.5125,-4.5235,-4.5275,-4.5297,-4.5338,-4.5359,-4.5338,-4.5275,-4.5213,-4.5192,-4.5192,-4.5125,-4.5103,-4.5103,-4.5826,-4.6202,-4.6178,-4.6292,-4.6692,-4.74,-4.815,-4.8488,-4.8507,-4.9089,-4.9351,0.0,0.0,0.0,0.0,0.0,0.0,0.0,0.0,0.0,0.0,0.0,0.0,0.0,0.0,0.0,0.0,0.0,0.0,0.0,0.0,0.0,0.0,0.0,0.0,0.0,0.0,0.0,0.0,-3.8089,-3.8191,-3.8521,-3.8486,-3.86,-3.8921,-3.8833,-3.8725,-3.8683,-3.8652,-3.8609,-3.8578,-3.8533,-3.8483,-3.8401,-3.835,-3.8821,-3.9644,-3.9644,-4.0057,-4.0739,-4.0739,-4.0917,-4.122,-4.122,-4.1163,-4.1178,-4.1722,-4.1884,-4.1938,-4.2408,-4.2649,-4.2745,-4.2747,-4.2804,-4.2899,-4.2994,-4.3087,-4.3142,-4.3286,-4.3375,-4.3426,-4.3497,-4.3618,-4.3686,-4.3686,-4.38,-4.3897,-4.3814,-4.3865,-4.3992,-4.4218,-4.444,-4.4605,-4.4745,-4.4895,-4.5057,-4.5148,-4.5233,-4.5277,-4.5341,-4.5361,-4.5361,-4.54,-4.54,-4.538,-4.5361,-4.5319,-4.5298,-4.532,-4.5277,-4.5277,-4.526,-4.6101,-4.6808,-4.7286,-4.7628,-4.7976,-4.8319,-4.9125,-4.9473,-4.9421,-4.97,-4.9778,0.0,0.0,0.0,0.0,0.0,0.0,0.0,0.0,0.0,0.0,0.0,0.0,0.0,0.0,0.0,0.0,0.0,0.0,0.0,0.0,0.0,0.0,0.0,0.0,0.0,0.0,0.0,0.0,-3.7289,-3.7442,-3.7943,-3.7909,-3.8065,-3.8469,-3.8461,-3.8396,-3.8301,-3.8475,-3.8649,-3.878,-3.878,-3.8701,-3.8603,-3.8603,-3.8775,-3.9077,-3.9009,-3.939,-4.0059,-4.0059,-4.0149,-4.0274,-4.0274,-4.0292,-4.0364,-4.0959,-4.1212,-4.1302,-4.1897,-4.2334,-4.2629,-4.2667,-4.2886,-4.3178,-4.3268,-4.3321,-4.3408,-4.3532,-4.3615,-4.3716,-4.3786,-4.3851,-4.3883,-4.3883,-4.3992,-4.4085,-4.4085,-4.4097,-4.4188,-4.4468,-4.4605,-4.4738,-4.4943,-4.5061,-4.5192,-4.5298,-4.536,-4.54,-4.5419,-4.5419,-4.5419,-4.5419,-4.5419,-4.5419,-4.54,-4.54,-4.54,-4.54,-4.54,-4.54,-4.54,-4.6455,-4.7337,-4.7988,-4.885,-4.931,-4.931,-4.9877,-5.0133,-5.0063,-5.0005,-4.9898,0.0,0.0,0.0,0.0,0.0,0.0,0.0,0.0,0.0,0.0,0.0,0.0,0.0,0.0,0.0,0.0,0.0,0.0,0.0,0.0,0.0,0.0,0.0,0.0,0.0,0.0,0.0,0.0,-3.7622,-3.7509,-3.7348,-3.7279,-3.7186,-3.7108,-3.6988,-3.6926,-3.6905,-3.7615,-3.8294,-3.8979,-3.8979,-3.8968,-3.8862,-3.8862,-3.887,-3.8817,-3.8551,-3.8879,-3.9626,-3.9626,-3.9995,-4.0563,-4.0563,-4.0545,-4.051,-4.0582,-4.0635,-4.0671,-4.0848,-4.1393,-4.2047,-4.2118,-4.2646,-4.3338,-4.3511,-4.3579,-4.3597,-4.3753,-4.3818,-4.3897,-4.3897,-4.4005,-4.406,-4.406,-4.4207,-4.4285,-4.4285,-4.4383,-4.4515,-4.4578,-4.4745,-4.4943,-4.5148,-4.5235,-4.5319,-4.5381,-4.54,-4.5419,-4.5495,-4.5495,-4.5495,-4.5495,-4.5495,-4.5476,-4.54,-4.54,-4.54,-4.54,-4.54,-4.54,-4.54,-4.703,-4.795,-4.7988,-4.9599,-5.0421,-5.0421,-5.0329,-5.0278,-5.0278,-5.0158,-5.0031,0.0,0.0,0.0,0.0,0.0,0.0,0.0,0.0,0.0,0.0,0.0,0.0,0.0,0.0,0.0,0.0,0.0,0.0,0.0,0.0,0.0,0.0,0.0,0.0,0.0,0.0,0.0,0.0,0.0,-3.6351,-3.6783,-3.6673,-3.68,-3.7178,-3.7111,-3.7014,-3.6926,-3.7181,-3.7697,-3.842,-3.842,-3.8672,-3.9073,-3.9073,-3.9064,-3.8989,-3.8902,-3.8872,-3.8962,-3.8962,-3.9095,-3.9319,-3.9355,-3.936,-3.9414,-3.9904,-4.0087,-4.016,-4.0723,-4.1192,-4.1482,-4.1515,-4.2147,-4.2908,-4.3024,-4.3452,-4.3936,-4.3974,-4.4097,-4.4237,-4.4237,-4.4296,-4.4364,-4.4421,-4.4477,-4.4578,-4.4605,-4.4613,-4.4659,-4.477,-4.4943,-4.5125,-4.5235,-4.536,-4.5438,-4.5513,-4.5568,-4.5586,-4.5622,-4.564,-4.5603,-4.5568,-4.5568,-4.5549,-4.5531,-4.5495,-4.5495,-4.5532,-4.5495,-4.5725,-4.6336,-4.749,-4.8393,-4.8949,-5.0105,-5.0625,-5.05,-5.0438,-5.0371,-5.0302,-5.0255,-5.0158,0.0,0.0,0.0,0.0,0.0,0.0,0.0,0.0,0.0,0.0,0.0,0.0,0.0,0.0,0.0,0.0,0.0,0.0,0.0,0.0,0.0,0.0,0.0,0.0,0.0,0.0,0.0,0.0,0.0,0.0,-3.6136,-3.6028,-3.6139,-3.6556,-3.6434,-3.65,-3.6708,-3.6686,-3.7033,-3.7766,-3.8047,-3.8452,-3.8925,-3.9186,-3.9272,-3.9219,-3.9219,-3.9055,-3.8766,-3.8766,-3.8766,-3.8766,-3.8822,-3.8822,-3.8877,-3.9374,-3.9559,-3.9632,-4.0185,-4.0603,-4.0892,-4.0942,-4.1619,-4.2463,-4.2753,-4.3271,-4.3855,-4.4154,-4.4364,-4.4496,-4.4496,-4.4578,-4.4659,-4.4738,-4.4789,-4.4846,-4.4924,-4.4876,-4.487,-4.4967,-4.5151,-4.5298,-4.538,-4.5476,-4.5566,-4.5618,-4.5671,-4.5706,-4.5706,-4.5706,-4.5671,-4.5637,-4.5637,-4.5637,-4.5637,-4.5584,-4.5584,-4.5637,-4.5584,-4.5986,-4.6901,-4.7769,-4.8634,-4.9481,-5.0349,-5.0739,-5.0605,-5.0565,-5.0483,-5.0396,-5.0393,-5.0302,0.0,0.0,0.0,0.0,0.0,0.0,0.0,0.0,0.0,0.0,0.0,0.0,0.0,0.0,0.0,0.0,0.0,0.0,0.0,0.0,0.0,0.0,0.0,0.0,0.0,0.0,0.0,0.0,-3.5639,-3.5574,-3.5496,-3.5388,-3.5239,-3.511,-3.4908,-3.5209,-3.606,-3.5998,-3.633,-3.7073,-3.7943,-3.8334,-3.8319,-3.9132,-3.9489,-3.9508,-3.9508,-3.9376,-3.9129,-3.9129,-3.9129,-3.9129,-3.9129,-3.9129,-3.9129,-3.9129,-3.9129,-3.9129,-3.9129,-3.9602,-4.03,-4.0412,-4.1073,-4.1932,-4.2782,-4.309,-4.3351,-4.4233,-4.4568,-4.4674,-4.4719,-4.4821,-4.4919,-4.4991,-4.5061,-4.5129,-4.518,-4.5175,-4.5148,-4.5192,-4.532,-4.5438,-4.5586,-4.5599,-4.5613,-4.57,-4.5696,-4.5715,-4.5715,-4.5715,-4.57,-4.57,-4.57,-4.57,-4.57,-4.57,-4.57,-4.57,-4.57,-4.6086,-4.697,-4.7838,-4.8687,-4.9498,-5.0366,-5.081,-5.081,-5.0663,-5.0587,-5.0606,-5.0544,-5.0416,-2.5697,0.0,0.0,0.0,0.0,0.0,0.0,0.0,0.0,0.0,0.0,0.0,0.0,0.0,0.0,0.0,0.0,0.0,0.0,0.0,0.0,0.0,0.0,0.0,0.0,0.0,0.0,0.0,-3.5754,-3.5728,-3.5646,-3.5476,-3.5335,-3.5239,-3.5105,-3.5114,-3.5362,-3.5306,-3.5685,-3.6441,-3.6687,-3.7446,-3.8662,-3.889,-3.9307,-3.9859,-3.9859,-3.9832,-3.9717,-3.9502,-3.9401,-3.9401,-3.9401,-3.9401,-3.9401,-3.9401,-3.9401,-3.9401,-3.9401,-3.9551,-3.9738,-3.9808,-4.0466,-4.1274,-4.1493,-4.2063,-4.2796,-4.3672,-4.4014,-4.4281,-4.496,-4.5156,-4.5199,-4.5262,-4.5341,-4.54,-4.5419,-4.5493,-4.5512,-4.5438,-4.5494,-4.5563,-4.5668,-4.57,-4.5781,-4.5819,-4.5786,-4.5771,-4.5771,-4.5761,-4.5765,-4.5715,-4.57,-4.57,-4.57,-4.57,-4.57,-4.57,-4.57,-4.6101,-4.7021,-4.7851,-4.8717,-4.9637,-5.0449,-5.0874,-5.0874,-5.0791,-5.072,-5.0682,-5.0585,-5.0521,0.0,0.0,0.0,0.0,0.0,0.0,-2.6912,-2.7791,-2.8612,0.0,0.0,0.0,0.0,0.0,0.0,0.0,0.0,0.0,0.0,0.0,0.0,0.0,0.0,0.0,0.0,-3.4896,-3.5373,-3.5301,-3.5651,-3.5801,-3.5718,-3.5534,-3.543,-3.5388,-3.5251,-3.5207,-3.5209,-3.5143,-3.5354,-3.5831,-3.6155,-3.705,-3.8402,-3.8765,-3.9356,-4.012,-4.012,-4.012,-4.012,-3.9901,-3.9769,-3.967,-3.967,-3.967,-3.967,-3.967,-3.967,-3.967,-3.967,-3.9693,-3.9717,-3.9739,-4.0148,-4.0691,-4.1057,-4.158,-4.2214,-4.3073,-4.3423,-4.3656,-4.423,-4.4651,-4.4937,-4.501,-4.5312,-4.5596,-4.5638,-4.5737,-4.5737,-4.5613,-4.5645,-4.5742,-4.5776,-4.5819,-4.5847,-4.5899,-4.5867,-4.5835,-4.5835,-4.5827,-4.5833,-4.5786,-4.5786,-4.5786,-4.5786,-4.5786,-4.5786,-4.5786,-4.5786,-4.6187,-4.7091,-4.7594,-4.844,-4.9713,-5.0197,-5.0622,-5.0971,-5.0897,-5.0793,-5.0738,-5.0702,-5.0664,0.0,0.0,0.0,0.0,0.0,0.0,-2.6685,-2.6939,-2.7216,-2.8005,0.0,0.0,0.0,0.0,0.0,0.0,0.0,0.0,0.0,0.0,0.0,0.0,0.0,0.0,-3.3255,-3.4043,-3.4562,-3.4608,-3.541,-3.5845,-3.5718,-3.5585,-3.5526,-3.5521,-3.5402,-3.536,-3.5407,-3.5369,-3.532,-3.5345,-3.6074,-3.6919,-3.7874,-3.8646,-3.9506,-4.0367,-4.0367,-4.0348,-4.0332,-4.0332,-4.0195,-3.9935,-3.9935,-3.9935,-3.9935,-3.9935,-3.9935,-3.9935,-3.9935,-3.9977,-4.0019,-4.0039,-4.008,-4.0291,-4.1074,-4.1341,-4.1587,-4.2485,-4.2862,-4.306,-4.3127,-4.3713,-4.4302,-4.4365,-4.4998,-4.5606,-4.575,-4.5852,-4.5886,-4.5775,-4.5841,-4.5919,-4.5919,-4.5925,-4.5929,-4.591,-4.5929,-4.5898,-4.5898,-4.5898,-4.5905,-4.5905,-4.5905,-4.5905,-4.5905,-4.5905,-4.5905,-4.5905,-4.5905,-4.6254,-4.703,-4.7146,-4.7921,-4.9472,-4.9608,-5.0034,-5.081,-5.0867,-5.088,-5.081,-5.081,-5.0775,0.0,0.0,0.0,0.0,0.0,0.0,-2.5906,-2.6507,-2.7056,0.0,0.0,0.0,0.0,0.0,0.0,0.0,0.0,0.0,0.0,0.0,0.0,0.0,0.0,0.0,-3.2357,-3.3131,-3.3944,-3.4635,-3.5432,-3.5872,-3.5779,-3.5688,-3.5659,-3.5669,-3.5581,-3.5553,-3.5565,-3.5489,-3.5489,-3.5534,-3.5693,-3.6605,-3.8129,-3.8295,-3.9228,-4.0699,-4.0699,-4.0667,-4.061,-4.0623,-4.0462,-4.0212,-4.0212,-4.0212,-4.0212,-4.0212,-4.0212,-4.0212,-4.0212,-4.023,-4.0248,-4.0302,-4.0372,-4.046,-4.0627,-4.0766,-4.1051,-4.1898,-4.2679,-4.3266,-4.333,-4.3458,-4.3606,-4.3679,-4.4311,-4.4916,-4.4997,-4.557,-4.6056,-4.6027,-4.5997,-4.6005,-4.6046,-4.6056,-4.6066,-4.6066,-4.6017,-4.5986,-4.5986,-4.5922,-4.5905,-4.5905,-4.5905,-4.5905,-4.5905,-4.5905,-4.5905,-4.5905,-4.5905,-4.5983,-4.6138,-4.6836,-4.7359,-4.7708,-4.8406,-4.8852,-4.9007,-5.0347,-5.0941,-5.0874,-5.088,-5.0846,0.0,0.0,0.0,-2.5646,0.0,0.0,0.0,-2.605,-2.636,-2.6353,0.0,0.0,0.0,0.0,0.0,0.0,0.0,0.0,0.0,0.0,0.0,0.0,0.0,0.0,-3.1443,-3.2246,-3.3299,-3.4593,-3.503,-3.5432,-3.5825,-3.582,-3.5784,-3.5741,-3.5718,-3.5699,-3.5689,-3.5659,-3.5659,-3.5689,-3.5697,-3.6608,-3.8306,-3.8296,-3.9237,-4.0849,-4.0849,-4.082,-4.0811,-4.0791,-4.0718,-4.0584,-4.0492,-4.045,-4.045,-4.045,-4.045,-4.045,-4.045,-4.0462,-4.0511,-4.054,-4.0602,-4.0655,-4.0642,-4.073,-4.0881,-4.1341,-4.1759,-4.211,-4.2189,-4.2539,-4.2859,-4.2886,-4.3536,-4.4284,-4.4756,-4.5192,-4.5628,-4.6079,-4.6123,-4.6099,-4.6104,-4.6095,-4.6104,-4.6093,-4.6075,-4.6056,-4.6056,-4.6017,-4.5997,-4.5997,-4.5997,-4.5997,-4.5997,-4.5997,-4.5997,-4.5997,-4.6005,-4.5994,-4.5994,-4.6391,-4.6806,-4.7233,-4.8107,-4.8553,-4.8553,-4.9369,-4.9736,-4.9693,-4.9698,-4.9683,0.0,0.0,0.0,0.0,0.0,-2.5685,0.0,0.0,0.0,-2.5696,0.0,0.0,0.0,0.0,0.0,0.0,0.0,0.0,0.0,0.0,0.0,0.0,0.0,0.0,-3.0794,-3.1587,-3.2673,-3.4099,-3.43,-3.4752,-3.5623,-3.5661,-3.5694,-3.5827,-3.5826,-3.583,-3.5818,-3.5823,-3.5823,-3.5813,-3.5827,-3.6651,-3.8162,-3.8344,-3.9247,-4.0707,-4.0863,-4.094,-4.094,-4.094,-4.094,-4.0926,-4.0726,-4.0649,-4.0649,-4.0649,-4.0649,-4.0649,-4.0649,-4.0687,-4.0734,-4.0734,-4.0787,-4.0829,-4.084,-4.0878,-4.0915,-4.0924,-4.0941,-4.0957,-4.1011,-4.1532,-4.2071,-4.2065,-4.2734,-4.3617,-4.4487,-4.4779,-4.5156,-4.603,-4.6206,-4.617,-4.6135,-4.6119,-4.6119,-4.6119,-4.6119,-4.6111,-4.613,-4.6102,-4.6102,-4.6093,-4.6093,-4.6093,-4.6093,-4.6093,-4.6093,-4.6093,-4.6095,-4.6105,-4.6105,-4.6047,-4.6348,-4.7056,-4.7766,-4.8116,-4.8116,-4.8064,-4.8204,-4.8503,-4.8503,-4.8503,0.0,0.0,0.0,0.0,-2.5556,0.0,0.0,0.0,-2.5696,-2.5703,0.0,0.0,0.0,0.0,0.0,0.0,0.0,0.0,0.0,0.0,0.0,0.0,0.0,0.0,0.0,-3.1597,-3.2174,-3.2373,-3.3105,-3.3924,-3.4784,-3.4781,-3.5108,-3.5849,-3.5899,-3.5885,-3.5898,-3.5898,-3.5892,-3.5883,-3.5883,-3.6395,-3.735,-3.8132,-3.9019,-3.997,-4.073,-4.1086,-4.1086,-4.1086,-4.1086,-4.1061,-4.0926,-4.0866,-4.0866,-4.0866,-4.0866,-4.0866,-4.0866,-4.0874,-4.0874,-4.0874,-4.091,-4.0972,-4.0974,-4.0981,-4.1,-4.1058,-4.1084,-4.1089,-4.1081,-4.1164,-4.1242,-4.1242,-4.191,-4.2788,-4.3646,-4.4406,-4.5167,-4.603,-4.6206,-4.6206,-4.6201,-4.6195,-4.6195,-4.6195,-4.6183,-4.619,-4.6196,-4.6135,-4.6099,-4.6102,-4.6093,-4.6093,-4.6093,-4.6093,-4.6093,-4.6093,-4.6093,-4.6093,-4.6093,-4.6093,-4.6143,-4.6221,-4.6318,-4.6376,-4.6376,-4.6376,-4.7116,-4.8502,-4.8496,-4.8503,0.0,0.0,0.0,0.0,0.0,0.0,-2.5595,0.0,-2.5659,0.0,0.0,0.0,0.0,0.0,0.0,0.0,-2.6169,0.0,0.0,0.0,0.0,0.0,0.0,0.0,0.0,0.0,-3.1554,-3.2065,-3.2436,-3.3034,-3.3896,-3.4394,-3.4823,-3.519,-3.5693,-3.5957,-3.5965,-3.5965,-3.5968,-3.5955,-3.596,-3.6411,-3.727,-3.7645,-3.8526,-3.9813,-4.0184,-4.0635,-4.1103,-4.1097,-4.1094,-4.1094,-4.1039,-4.0983,-4.0967,-4.0967,-4.0967,-4.0967,-4.0967,-4.0986,-4.1013,-4.1013,-4.1045,-4.105,-4.1061,-4.1067,-4.1067,-4.1086,-4.1106,-4.1111,-4.11,-4.1105,-4.1109,-4.1094,-4.139,-4.2015,-4.34,-4.3966,-4.461,-4.5996,-4.6269,-4.6269,-4.6269,-4.6236,-4.6206,-4.6206,-4.6201,-4.6195,-4.6209,-4.6183,-4.6157,-4.617,-4.617,-4.6164,-4.615,-4.615,-4.6169,-4.6154,-4.6166,-4.6149,-4.6093,-4.6093,-4.6093,-4.6093,-4.6093,-4.6093,-4.6093,-4.6093,-4.6445,-4.7116,-4.7104,-4.7082,-2.5734,0.0,0.0,0.0,0.0,0.0,0.0,0.0,0.0,0.0,0.0,0.0,0.0,0.0,0.0,0.0,0.0,-2.5834,0.0,0.0,0.0,0.0,0.0,0.0,0.0,0.0,-3.1037,-3.1665,-3.1724,-3.2112,-3.2962,-3.362,-3.42,-3.4679,-3.5307,-3.5759,-3.5995,-3.5995,-3.5995,-3.5995,-3.5995,-3.6327,-3.6952,-3.7186,-3.7967,-3.9139,-3.9627,-4.0194,-4.0799,-4.1015,-4.1094,-4.1093,-4.1093,-4.1062,-4.1027,-4.1033,-4.1028,-4.1028,-4.1028,-4.1067,-4.1091,-4.1109,-4.1094,-4.1094,-4.1101,-4.1097,-4.1094,-4.1105,-4.1105,-4.1105,-4.1097,-4.1097,-4.1101,-4.1108,-4.1108,-4.1576,-4.3317,-4.3704,-4.4211,-4.5968,-4.63,-4.63,-4.63,-4.6269,-4.6236,-4.6236,-4.6236,-4.6236,-4.6231,-4.6231,-4.6211,-4.6206,-4.6206,-4.6201,-4.6189,-4.6189,-4.6209,-4.6196,-4.6203,-4.6189,-4.6135,-4.6127,-4.6127,-4.6127,-4.6138,-4.6138,-4.6138,-4.6138,-4.613,-4.6122,-4.6104,-4.6056,0.0,0.0,0.0,-2.5403,0.0,0.0,0.0,0.0,-2.5525,0.0,0.0,0.0,0.0,0.0,0.0,-2.5701,0.0,0.0,0.0,0.0,0.0,0.0,0.0,0.0,0.0,-3.0697,-3.0717,-3.0737,-3.0806,-3.1198,-3.1996,-3.2123,-3.2955,-3.4647,-3.4733,-3.5147,-3.599,-3.6009,-3.6009,-3.6009,-3.6007,-3.6013,-3.6072,-3.6911,-3.7324,-3.748,-3.9156,-3.9917,-3.9995,-4.0779,-4.1099,-4.1108,-4.1108,-4.1108,-4.1091,-4.1091,-4.1105,-4.1105,-4.1105,-4.1105,-4.1105,-4.1107,-4.1107,-4.1107,-4.1107,-4.1099,-4.1108,-4.1108,-4.1108,-4.1108,-4.1108,-4.1108,-4.1108,-4.1108,-4.1108,-4.1579,-4.3317,-4.3707,-4.4211,-4.5968,-4.63,-4.63,-4.63,-4.63,-4.63,-4.63,-4.63,-4.6296,-4.6303,-4.6303,-4.626,-4.6206,-4.6206,-4.6206,-4.6206,-4.6206,-4.6206,-4.6206,-4.6206,-4.6206,-4.6206,-4.6189,-4.6203,-4.6203,-4.6203,-4.6196,-4.6196,-4.6196,-4.6208,-4.6205,-4.6122,-4.6093,0.0,0.0,-2.7147,-2.691,0.0,0.0,0.0,0.0,0.0,0.0,0.0,0.0,0.0,0.0,-2.5703,-2.5702,-2.5707,-2.5687,0.0,-2.5629,-2.6013,0.0,0.0,0.0,0.0,0.0,0.0,-3.0658,-3.0711,-3.084,-3.1119,-3.1713,-3.2294,-3.2883,-3.4038,-3.4789,-3.5076,-3.5641,-3.5958,-3.6005,-3.5994,-3.5994,-3.6013,-3.6309,-3.6739,-3.7265,-3.7897,-3.8818,-3.9852,-4.0187,-4.0623,-4.1097,-4.1097,-4.1097,-4.1099,-4.1091,-4.1093,-4.1093,-4.1093,-4.1094,-4.1093,-4.1093,-4.1132,-4.1151,-4.1112,-4.1092,-4.111,-4.1105,-4.1103,-4.1103,-4.1103,-4.1103,-4.1103,-4.1103,-4.1103,-4.1416,-4.2587,-4.329,-4.4032,-4.5202,-4.5905,-4.6295,-4.6295,-4.6295,-4.6293,-4.6303,-4.63,-4.63,-4.6296,-4.6296,-4.6292,-4.6273,-4.6269,-4.6269,-4.6269,-4.6236,-4.6206,-4.6206,-4.6206,-4.6206,-4.6206,-4.6201,-4.6201,-4.6201,-4.6195,-4.6195,-4.6195,-4.6195,-4.6209,-4.6203,-4.6177,-4.613,-2.8305,-2.8057,0.0,-2.772,-2.772,0.0,-2.7808,0.0,0.0,0.0,0.0,0.0,0.0,0.0,-2.5664,-2.5657,-2.5683,-2.5699,0.0,-2.5657,-2.585,0.0,0.0,0.0,0.0,0.0,-2.929,-3.0178,-3.0243,-3.0367,0.0,-3.1229,-3.167,-3.1999,-3.3089,-3.3963,-3.4583,-3.5154,-3.5607,-3.5968,-3.5958,-3.5958,-3.5977,-3.5981,-3.6278,-3.6785,-3.7125,-3.787,-3.8904,-3.9263,-3.9887,-4.0629,-4.0629,-4.0828,-4.1104,-4.1099,-4.1101,-4.1101,-4.1101,-4.1107,-4.1091,-4.1093,-4.1132,-4.1152,-4.1113,-4.1094,-4.1094,-4.1094,-4.1094,-4.1094,-4.1093,-4.1092,-4.1091,-4.1091,-4.1111,-4.1365,-4.2224,-4.3083,-4.3962,-4.4821,-4.57,-4.6305,-4.6301,-4.6301,-4.63,-4.629,-4.6309,-4.6309,-4.6309,-4.6309,-4.6309,-4.6309,-4.6309,-4.6306,-4.63,-4.6269,-4.624,-4.624,-4.624,-4.624,-4.624,-4.624,-4.624,-4.6236,-4.6211,-4.6206,-4.6206,-4.6206,-4.6206,-4.6206,-4.6206,-4.6189]}]]